[[{"header":{"parameterUnit":"m.s-1","parameterCategory":1,"la1":30.6,"la2":29.2853,"lo1":-89.7004,"lo2":-87.6739,"dy":0.0162,"dx":0.0183,"nx":112,"ny":82,"refTime":"2024-09-01T18:00:00:Z","depth":0,"parameterNumber":2,"parameterNumberName":"U-component_of_WINDS"},"data":[0.0,0.0,0.0,0.0,0.0,0.0,0.0,0.0,0.0,0.0,0.0,0.0,0.0,0.0,0.0,0.0,0.0,0.0,0.0,0.0,0.0,0.0,0.0,0.0,0.0,0.0,0.0,0.0,0.0,0.0,0.0,0.0,0.0,0.0,0.0,0.0,0.0,0.0,0.0,0.0,0.0,0.0,0.0,0.0,0.0,0.0,0.0,0.0,0.0,0.0,0.0,0.0,0.0,0.0,0.0,0.0,0.0,0.0,0.0,0.0,0.0,0.0,0.0,0.0,0.0,0.0,0.0,0.0,0.0,0.0,0.0,0.0,0.0,0.0,0.0,0.0,0.0,0.0,0.0,0.0,0.0,0.0,0.0,0.0,0.0,0.0,0.0,0.0,0.0,0.0,0.8596,0.9309,1.0161,1.0666,1.0538,1.0463,0.9954,0.8849,0.0,0.0,0.0,0.0,0.0,0.0,0.0,0.0,0.0,0.0,0.0,0.0,0.0,0.0,0.0,0.0,0.0,0.0,0.0,0.0,0.0,0.0,0.0,0.0,0.0,0.0,0.0,0.0,0.0,0.0,0.0,0.0,0.0,0.0,0.0,0.0,0.0,0.0,0.0,0.0,0.0,0.0,0.0,0.0,0.0,0.0,0.0,0.0,0.0,0.0,0.0,0.0,0.0,0.0,0.0,0.0,0.0,0.0,0.0,0.0,0.0,0.0,0.0,0.0,0.0,0.0,0.0,0.0,0.0,0.0,0.0,0.0,0.0,0.0,0.0,0.0,0.0,0.0,0.0,0.0,0.0,0.0,0.0,0.0,0.0,0.0,0.0,0.0,0.0,0.0,0.0,0.0,0.0,0.0,0.0,0.0,0.0,0.0,0.0,0.0,0.0,0.0,0.0,0.0,0.8798,0.9978,1.0477,1.0711,1.0687,1.0337,0.9883,0.9187,0.0,0.0,0.0,0.0,0.0,0.0,0.0,0.0,0.0,0.0,0.0,0.0,0.0,0.0,0.0,0.0,0.0,0.0,0.0,0.0,0.0,0.0,0.0,0.0,0.0,0.0,0.0,0.0,0.0,0.0,0.0,0.0,0.0,0.0,0.0,0.0,0.0,0.0,0.0,0.0,0.0,0.0,0.0,0.0,0.0,0.0,0.0,0.0,0.0,0.0,0.0,0.0,0.0,0.0,0.0,0.0,0.0,0.0,0.0,0.0,0.0,0.0,0.0,0.0,0.0,0.0,0.0,0.0,0.0,0.0,0.0,0.0,0.0,0.0,0.0,0.0,0.0,0.0,0.0,0.0,0.0,0.0,0.0,0.0,0.0,0.0,0.0,0.0,0.0,0.0,0.0,0.0,0.0,0.0,0.0,0.0,0.0,0.0,0.0,0.0,0.0,0.0,0.0,0.8547,0.9228,1.0276,1.0588,1.0721,1.0721,1.0385,0.9849,0.9086,0.8397,0.0,0.0,0.0,0.0,0.0,0.0,0.0,0.0,0.0,0.0,0.0,0.0,0.0,0.0,0.0,0.0,0.0,0.0,0.0,0.0,0.0,0.0,0.0,0.0,0.0,0.0,0.0,0.0,0.0,0.0,0.0,0.0,0.0,0.0,0.0,0.0,0.0,0.0,0.0,0.0,0.0,0.0,0.0,0.0,0.0,0.0,0.0,0.0,0.0,0.0,0.0,0.0,0.0,0.0,0.0,0.0,0.0,0.0,0.0,0.0,0.0,0.0,0.0,0.0,0.0,0.0,0.0,0.0,0.0,0.0,0.0,0.0,0.0,0.0,0.0,0.0,0.0,0.0,0.0,0.0,0.0,0.0,0.0,0.0,0.0,0.0,0.0,0.0,0.0,0.0,0.0,0.0,0.0,0.0,0.0,0.0,0.0,0.0,0.0,0.0,0.0,0.0,0.9388,0.9726,1.0463,1.0649,1.0721,1.0721,1.0317,0.973,0.8881,0.8079,0.0,0.0,0.0,0.0,0.0,0.0,0.0,0.0,0.0,0.0,0.0,0.0,0.0,0.0,0.0,0.0,0.0,0.0,0.0,0.0,0.0,0.0,0.0,0.0,0.0,0.0,0.0,0.0,0.0,0.0,0.0,0.0,0.0,0.0,0.0,0.0,0.0,0.0,0.0,0.0,0.0,0.0,0.0,0.0,0.0,0.0,0.0,0.0,0.0,0.0,0.0,0.0,0.0,0.0,0.0,0.0,0.0,0.0,0.0,0.0,0.0,0.0,0.0,0.0,0.0,0.0,0.0,0.0,0.0,0.0,0.0,0.0,0.0,0.0,0.0,0.0,0.0,0.0,0.0,0.0,0.0,0.0,0.0,0.0,0.0,0.0,0.0,0.0,0.0,0.0,0.0,0.0,0.0,0.0,0.0,0.0,0.0,0.0,0.0,0.0,0.0,0.0,0.9568,1.0175,1.0653,1.0714,1.0721,1.0721,0.9937,0.9239,0.8757,0.7634,0.0,0.0,0.0,0.0,0.0,0.0,0.0,0.0,0.0,0.0,0.0,0.0,0.0,0.0,0.0,0.0,0.0,0.0,0.0,0.0,0.0,0.0,0.0,0.0,0.0,0.0,0.0,0.0,0.0,0.0,0.0,0.0,0.0,0.0,0.0,0.0,0.0,0.0,0.0,0.0,0.0,0.0,0.0,0.0,0.0,0.0,0.0,0.0,0.0,0.0,0.0,0.0,0.0,0.0,0.0,0.0,0.0,0.0,0.0,0.0,0.0,0.0,0.0,0.0,0.0,0.0,0.0,0.0,0.0,0.0,0.0,0.0,0.0,0.0,0.0,0.0,0.0,0.0,0.0,0.0,0.0,0.0,0.0,0.0,0.0,0.0,0.0,0.0,0.0,0.0,0.0,0.0,0.0,0.0,0.0,0.0,0.0,0.0,0.0,0.0,0.0,0.0,0.9429,1.0019,0.0,1.0721,1.068,1.0585,1.0097,0.9445,0.8621,0.0,0.0,0.0,0.0,0.0,0.0,0.0,0.0,0.0,0.0,0.0,0.0,0.0,0.0,0.0,0.0,0.0,0.0,0.0,0.0,0.0,0.0,0.0,0.0,0.0,0.0,0.0,0.0,0.0,0.0,0.0,0.0,0.0,0.0,0.0,0.0,0.0,0.0,0.0,0.0,0.0,0.0,0.0,0.0,0.0,0.0,0.0,0.0,0.0,0.0,0.0,0.0,0.0,0.0,0.0,0.0,0.0,0.0,0.0,0.0,0.0,0.0,0.0,0.0,0.0,0.0,0.0,0.0,0.0,0.0,0.0,0.0,0.0,0.0,0.0,0.0,0.0,0.0,0.0,0.0,0.0,0.0,0.0,0.0,0.0,0.0,0.0,0.0,0.0,0.0,0.0,0.0,0.0,0.0,0.0,0.0,0.0,0.0,0.0,0.0,0.0,0.0,0.873,0.9456,1.0053,0.0,1.0721,1.066,1.0504,1.0046,0.9378,0.8472,0.0,0.0,0.0,0.0,0.0,0.0,0.0,0.0,0.0,0.0,0.0,0.0,0.0,0.0,0.0,0.0,0.0,0.0,0.0,0.0,0.0,0.0,0.0,0.0,0.0,0.0,0.0,0.0,0.0,0.0,0.0,0.0,0.0,0.0,0.0,0.0,0.0,0.0,0.0,0.0,0.0,0.0,0.0,0.0,0.0,0.0,0.0,0.0,0.0,0.0,0.0,0.0,0.0,0.0,0.0,0.0,0.0,0.0,0.0,0.0,0.0,0.0,0.0,0.0,0.0,0.0,0.0,0.0,0.0,0.0,0.0,0.0,0.0,0.0,0.0,0.0,0.0,0.0,0.0,0.0,0.0,0.0,0.0,0.0,0.0,0.0,0.0,0.0,0.0,0.0,0.0,0.0,0.0,0.0,0.0,0.0,0.0,0.0,0.0,0.0,0.0,0.0,0.8767,0.9724,1.0392,1.0687,1.0721,1.0656,1.0504,0.9729,0.8958,0.0,0.0,0.0,0.0,0.0,0.0,0.0,0.0,0.0,0.0,0.0,0.0,0.0,0.0,0.0,0.0,0.0,0.0,0.0,0.0,0.0,0.0,0.0,0.0,0.0,0.0,0.0,0.0,0.0,0.0,0.0,0.0,0.0,0.0,0.0,0.0,0.0,0.0,0.0,0.0,0.0,0.0,0.0,0.0,0.0,0.0,0.0,0.0,0.0,0.0,0.0,0.0,0.0,0.0,0.0,0.0,0.0,0.0,0.0,0.0,0.0,0.0,0.0,0.0,0.0,0.0,0.0,0.0,0.0,0.0,0.0,0.0,0.0,0.0,0.0,0.0,0.0,0.0,0.0,0.0,0.0,0.0,0.0,0.0,0.0,0.0,0.0,0.0,0.0,0.0,0.0,0.0,0.0,0.0,0.0,0.0,0.0,0.0,0.0,0.0,0.0,0.0,0.0,0.8767,0.9724,1.0392,1.0687,1.0721,1.0619,1.0365,0.9808,0.9086,0.8163,0.0,0.0,0.0,0.0,0.0,0.0,0.0,0.0,0.0,0.0,0.0,0.0,0.0,0.0,0.0,0.0,0.0,0.0,0.0,0.0,0.0,0.0,0.0,0.0,0.0,0.0,0.0,0.0,0.0,0.0,0.0,0.0,0.0,0.0,0.0,0.0,0.0,0.0,0.0,0.0,0.0,0.0,0.0,0.0,0.0,0.0,0.0,0.0,0.0,0.0,0.0,0.0,0.0,0.0,0.0,0.0,0.0,0.0,0.0,0.0,0.0,0.0,0.0,0.0,0.0,0.0,0.0,0.0,0.0,0.0,0.0,0.0,0.0,0.0,0.0,0.0,0.0,0.0,0.0,0.0,0.0,0.0,0.0,0.0,0.0,0.0,0.0,0.0,0.0,0.0,0.0,0.0,0.0,0.0,0.0,0.0,0.0,0.0,0.0,0.0,0.0,0.0,0.8767,0.9724,1.0392,1.0687,1.0721,1.0602,1.0304,0.992,0.9269,0.8279,0.0,0.0,0.0,0.0,0.0,0.0,0.0,0.0,0.0,0.0,0.0,0.0,0.0,0.0,0.0,0.0,0.0,0.0,0.0,0.0,0.0,0.0,0.0,0.0,0.0,0.0,0.0,0.0,0.0,0.0,0.0,0.0,0.0,0.0,0.0,0.0,0.0,0.0,0.0,0.0,0.0,0.0,0.0,0.0,0.0,0.0,0.0,0.0,0.0,0.0,0.0,0.0,0.0,0.0,0.0,0.0,0.0,0.0,0.0,0.0,0.0,0.0,0.0,0.0,0.0,0.0,0.0,0.0,0.0,0.0,0.0,0.0,0.0,0.0,0.0,0.0,0.0,0.0,0.0,0.0,0.0,0.0,0.0,0.0,0.0,0.0,0.0,0.0,0.0,0.0,0.0,0.0,0.0,0.0,0.0,0.0,0.0,0.0,0.0,0.0,0.0,0.0,0.8787,0.973,1.0392,1.0687,1.0707,1.0585,1.0304,0.9985,0.9429,0.8557,0.0,0.0,0.0,0.0,0.0,0.0,0.0,0.0,0.0,0.0,0.0,0.0,0.0,0.0,0.0,0.0,0.0,0.0,0.0,0.0,0.0,0.0,0.0,0.0,0.0,0.0,0.0,0.0,0.0,0.0,0.0,0.0,0.0,0.0,0.0,0.0,0.0,0.0,0.0,0.0,0.0,0.0,0.0,0.0,0.0,0.0,0.0,0.0,0.0,0.0,0.0,0.0,0.0,0.0,0.0,0.0,0.0,0.0,0.0,0.0,0.8404,0.0,0.0,0.0,0.0,0.0,0.0,0.0,0.0,0.0,0.0,0.0,0.0,0.0,0.0,0.0,0.0,0.0,0.0,0.0,0.0,0.0,0.0,0.0,0.0,0.0,0.0,0.0,0.0,0.0,0.0,0.0,0.0,0.0,0.0,0.0,0.0,0.0,0.0,0.0,0.0,0.0,0.8977,0.9795,1.0392,1.0687,1.0612,1.047,1.0293,0.9897,0.9371,0.8703,0.7929,0.0,0.0,0.0,0.0,0.0,0.0,0.0,0.0,0.0,0.0,0.0,0.0,0.0,0.0,0.0,0.0,0.0,0.0,0.0,0.0,0.0,0.0,0.0,0.0,0.0,0.0,0.0,0.0,0.0,0.0,0.0,0.0,0.0,0.0,0.0,0.0,0.0,0.0,0.0,0.0,0.0,0.0,0.0,0.0,0.0,0.0,0.0,0.0,0.0,0.0,0.0,0.0,0.0,0.0,0.0,0.0,0.0,0.0,0.0,0.0,0.8682,0.0,0.0,0.0,0.0,0.0,0.0,0.0,0.0,0.0,0.0,0.0,0.0,0.0,0.0,0.0,0.0,0.0,0.0,0.0,0.0,0.0,0.0,0.0,0.0,0.0,0.0,0.0,0.0,0.0,0.0,0.0,0.0,0.0,0.0,0.0,0.0,0.0,0.0,0.0,0.0,0.9084,0.9876,1.0392,1.0687,1.0582,1.0432,1.0293,0.993,0.9517,0.9062,0.8333,0.0,0.0,0.0,0.0,0.0,0.0,0.0,0.0,0.0,0.0,0.0,0.0,0.0,0.0,0.0,0.0,0.0,0.0,0.0,0.0,0.0,0.0,0.0,0.0,0.0,0.0,0.0,0.0,0.0,0.0,0.0,0.0,0.0,0.0,0.0,0.0,0.0,0.0,0.0,0.0,0.0,0.0,0.0,0.0,0.0,0.0,0.0,0.0,0.0,0.0,0.0,0.0,0.0,0.8387,0.8558,0.9033,0.896,0.8881,0.8851,0.8688,0.8471,0.8103,0.7526,0.0,0.0,0.0,0.0,0.0,0.0,0.0,0.0,0.0,0.0,0.0,0.0,0.0,0.0,0.0,0.0,0.0,0.0,0.0,0.0,0.0,0.0,0.0,0.0,0.6642,0.6066,0.0,0.0,0.0,0.0,0.0,0.0,0.0,0.0,0.0,0.0,0.0,0.0,0.8775,0.9435,1.0096,1.0624,1.0561,1.0409,1.029,0.9998,0.9707,0.9439,0.8818,0.8275,0.0,0.0,0.0,0.0,0.0,0.0,0.0,0.0,0.0,0.0,0.0,0.0,0.0,0.0,0.0,0.0,0.0,0.0,0.0,0.0,0.0,0.0,0.0,0.0,0.0,0.0,0.0,0.0,0.0,0.0,0.0,0.0,0.7051,0.7498,0.0,0.0,0.0,0.0,0.0,0.0,0.0,0.0,0.0,0.0,0.0,0.0,0.0,0.8356,0.8499,0.891,0.9157,0.9239,0.9473,0.9625,0.9703,0.9683,0.8911,0.7621,0.7633,0.0,0.873,0.8313,0.0,0.0,0.0,0.0,0.0,0.0,0.0,0.0,0.0,0.0,0.0,0.0,0.0,0.0,0.0,0.0,0.0,0.0,0.0,0.0,0.0,0.0,0.4874,0.4711,0.4729,0.472,0.0,0.407,0.3601,0.3348,0.3241,0.0,0.0,0.0,0.0,0.0,0.0,0.0,0.7498,0.7942,0.8819,1.0502,1.0473,1.03,1.0283,0.9998,0.9751,0.9591,0.9364,0.9093,0.872,0.8092,0.0,0.0,0.0,0.0,0.0,0.0,0.0,0.0,0.0,0.0,0.0,0.0,0.0,0.0,0.0,0.0,0.0,0.0,0.0,0.0,0.0,0.0,0.0,0.0,0.0,0.0,0.0,0.0,0.0,0.651,0.6845,0.7057,0.6895,0.6603,0.0,0.0,0.0,0.0,0.0,0.0,0.0,0.0,0.0,0.7054,0.631,0.6041,0.6357,0.6609,0.6825,0.7003,0.7093,0.7231,0.7355,0.7355,0.6928,0.6253,0.6253,0.6432,0.671,0.6225,0.5764,0.5315,0.0,0.0,0.0,0.0,0.4616,0.4129,0.4404,0.4092,0.0,0.3206,0.0,0.0,0.0,0.0,0.0,0.0,0.0,0.0,0.0,0.0,0.4525,0.4504,0.3888,0.337,0.3245,0.2261,0.1729,0.0,0.4116,0.4816,0.482,0.0,0.0,0.0,0.0,0.505,0.5788,0.6106,0.6661,0.7624,0.8359,0.8794,0.8794,0.9432,0.9795,0.9734,0.9591,0.9412,0.9198,0.871,0.8103,0.0,0.0,0.0,0.0,0.0,0.0,0.0,0.0,0.0,0.0,0.0,0.0,0.0,0.0,0.0,0.0,0.0,0.0,0.0,0.0,0.0,0.0,0.0,0.0,0.0,0.0,0.0,0.0,0.6403,0.6898,0.6976,0.6886,0.6649,0.0,0.0,0.0,0.0,0.0,0.0,0.6946,0.6011,0.5637,0.607,0.4917,0.4409,0.4713,0.4833,0.4976,0.5145,0.5145,0.5241,0.5431,0.5431,0.5163,0.4693,0.4693,0.4332,0.381,0.4177,0.4141,0.381,0.3631,0.3448,0.3367,0.3635,0.3538,0.3254,0.3584,0.3461,0.3101,0.2778,0.2843,0.2906,0.2589,0.0,0.0,0.0,0.0,0.3172,0.3032,0.3145,0.3372,0.3486,0.2631,0.1878,0.1885,0.1223,0.106,0.0,0.3862,0.4698,0.421,0.0,0.0,0.0,0.0,0.3643,0.414,0.438,0.4704,0.5357,0.6335,0.6931,0.6931,0.793,0.8714,0.9143,0.9112,0.9189,0.95,0.9208,0.8754,0.8113,0.0,0.0,0.0,0.0,0.0,0.0,0.0,0.0,0.0,0.0,0.0,0.0,0.0,0.0,0.0,0.0,0.0,0.0,0.0,0.0,0.0,0.0,0.0,0.0,0.0,0.0,0.0,0.0,0.0,0.7723,0.6769,0.0,0.0,0.0,0.0,0.3283,0.3616,0.3921,0.4183,0.4441,0.4703,0.4974,0.5051,0.5127,0.534,0.5345,0.535,0.5357,0.5357,0.536,0.5431,0.5431,0.4492,0.2819,0.2819,0.188,0.0469,0.3449,0.4591,0.4445,0.4074,0.3965,0.397,0.4093,0.3285,0.2099,0.2256,0.1399,0.0181,0.0186,0.0971,0.1862,0.1827,0.2751,0.0,0.0,0.1947,0.1782,0.05,0.0191,0.0259,0.0262,0.0197,0.0132,0.0134,0.1326,0.195,0.0,0.0245,0.0716,0.1924,0.0,0.2096,0.2154,0.2125,0.2267,0.2753,0.2832,0.3486,0.5228,0.5291,0.52,0.52,0.5188,0.5833,0.7421,0.7538,0.8207,0.9738,0.9513,0.9208,0.8831,0.816,0.0,0.0,0.0,0.0,0.0,0.0,0.0,0.0,0.0,0.0,0.0,0.0,0.0,0.0,0.0,0.0,0.0,0.0,0.0,0.0,0.0,0.0,0.0,0.0,0.0,0.0,0.0,0.0,0.5313,0.4922,0.0,0.4149,0.3799,0.3608,0.367,0.3982,0.4312,0.4595,0.3681,0.3303,0.35,0.2392,0.1871,0.1948,0.1948,0.1948,0.1948,0.1948,0.1948,0.1948,0.1948,0.1545,0.0941,0.0941,0.0605,0.0067,0.119,0.1628,0.1604,0.1447,0.1437,0.1437,0.1507,0.114,0.0702,0.0763,0.0446,0.0,0.0,0.031,0.0667,0.0663,0.0966,0.1273,0.0793,0.0689,0.058,0.013,0.0,0.0,0.0,0.0,0.0,0.0,0.0469,0.0732,0.0132,0.0899,0.1684,0.1946,0.1283,0.0981,0.188,0.125,0.0772,0.0913,0.093,0.121,0.1881,0.2836,0.344,0.3408,0.435,0.5128,0.5754,0.5808,0.6022,0.6615,0.6542,0.635,0.6091,0.5681,0.5497,0.0,0.0,0.0,0.0,0.0,0.0,0.0,0.0,0.0,0.0,0.0,0.0,0.0,0.0,0.0,0.0,0.0,0.0,0.0,0.0,0.0,0.0,0.0,0.0,0.0,0.4946,0.4752,0.3882,0.3618,0.3339,0.302,0.2681,0.2564,0.2665,0.2855,0.3051,0.3256,0.2239,0.173,0.1813,0.0605,0.0,0.0,0.0,0.0,0.0,0.0,0.0,0.0,0.0,0.0,0.0,0.0,0.0,0.0,0.0,0.0,0.0,0.0,0.0,0.0,0.0,0.0,0.0,0.0,0.0,0.0,0.0,0.0,0.0,0.0,0.0,0.0,0.0,0.0,0.0,0.0,0.0,0.0,0.0,0.0,0.0,0.0,0.0,0.0,0.0,0.0927,0.1555,0.1392,0.0575,0.0321,0.12,0.058,0.0,0.0,0.0,0.0,0.0,0.0995,0.1634,0.1676,0.2652,0.3518,0.4032,0.4103,0.4353,0.4888,0.4917,0.4784,0.4598,0.4253,0.4159,0.428,0.0,0.0,0.0,0.0,0.0,0.0,0.0,0.0,0.0,0.0,0.0,0.0,0.0,0.0,0.0,0.0,0.0,0.0,0.0,0.0,0.0,0.0,0.0,0.483,0.4358,0.3868,0.3703,0.2951,0.2233,0.178,0.0678,0.0,0.0,0.0,0.0,0.0,0.0,0.0,0.0,0.0,0.0,0.0,0.0,0.0,0.0,0.0,0.0,0.0,0.0,0.0,0.0,0.0,0.0,0.0,0.0,0.0,0.0,0.0,0.0,0.0,0.0,0.0,0.0,0.0,0.0,0.0,0.0,0.0,0.0,0.0,0.0,0.0,0.0,0.0,0.0,0.0,0.0,0.0,0.0,0.0,0.0,0.0,0.0,0.0,0.0,0.0,0.0,0.0,0.0,0.0,0.0,0.0,0.0,0.0,0.0,0.0,0.0,0.0,0.0,0.0,0.0,0.0674,0.2345,0.2448,0.3148,0.4688,0.4729,0.4707,0.4577,0.399,0.3495,0.3033,0.0,0.0,0.0,0.0,0.0,0.0,0.0,0.0,0.0,0.0,0.0,0.0,0.0,0.0,0.0,0.0,0.0,0.0,0.0,0.0,0.0,0.3271,0.2125,0.2517,0.2578,0.2178,0.1177,0.0831,0.065,0.052,0.0197,0.0,0.0,0.0,0.0,0.0,0.0,0.0,0.0,0.0,0.0,0.0,0.0,0.0,0.0,0.0,0.0,0.0,0.0,0.0,0.0,0.0,0.0,0.0,0.0,0.0,0.0,0.0,0.0,0.0,0.0,0.0,0.0,0.0,0.0,0.0,0.0,0.0,0.0,0.0,0.0,0.0,0.0,0.0,0.0,0.0,0.0,0.0,0.0,0.0,0.0,0.0,0.0,0.0,0.0,0.0,0.0,0.0,0.0,0.0,0.0,0.0,0.0,0.0,0.0,0.0,0.0,0.0,0.0,0.0,0.0,0.0184,0.0642,0.0685,0.0902,0.1352,0.1347,0.1348,0.1302,0.1907,0.2051,0.0,0.0,0.0,0.0,0.0,0.0,0.0,0.0,0.0,0.0,0.0,0.0,0.0,0.0,0.0,0.0,0.0,0.0,0.0,0.0,0.0,0.0,0.2101,0.0931,0.0958,0.1048,0.0887,0.0065,0.0,0.0,0.0,0.0,0.0,0.0,0.0,0.0,0.0,0.0,0.0,0.0,0.0,0.0,0.0,0.0,0.0,0.0,0.0,0.0,0.0,0.0,0.0,-0.0067,-0.0807,-0.1143,-0.121,-0.1948,-0.2283,0.0,0.0,0.0,0.0,0.0,0.0,0.0,0.0,0.0,0.0,0.0,0.0,0.0,0.0,0.0,0.0,0.0,0.0,0.0,0.0,0.0,0.0,0.0,0.0,0.0,0.0,0.0,0.0,0.0,0.0,0.0,0.0,0.0,0.0,0.0,0.0,0.0,0.0,0.0,0.0,0.0,0.0,0.0,0.0,0.0,0.0,0.0,0.0,0.0,0.0,0.0,0.0,0.0,0.0,0.0,0.0,0.0,0.0,0.0,0.3018,0.3335,0.0,0.0,0.0,0.0,0.0,0.0,0.0,0.0,0.0,0.0,0.0,0.0,0.0,0.0,0.0,0.0,0.0722,0.0,0.0,0.0,0.0,0.0,0.0,0.0,0.0,0.0,0.0,0.0,0.0,0.0,0.0,0.0,0.0,0.0,0.0,-0.0338,-0.0338,-0.0135,-0.0135,-0.0338,-0.0338,-0.0405,-0.0607,-0.0607,-0.0606,-0.0673,-0.2283,-0.3021,-0.3154,-0.476,-0.5431,-0.5095,-0.1881,-0.0605,-0.0605,-0.0605,-0.0605,-0.0605,-0.0605,0.0,0.0,-0.0605,-0.0471,-0.0336,-0.0538,-0.0336,-0.0067,-0.0471,-0.0471,-0.0336,-0.0538,-0.0605,-0.0605,-0.0605,-0.0605,-0.0605,-0.0605,-0.0605,-0.0605,-0.0605,-0.0605,-0.0605,-0.0605,-0.0269,0.0,0.0,0.0,0.0,0.0,0.0,0.0,0.0,0.0,0.0,0.0,0.0,0.0,0.0,0.0,0.0,0.0,0.0,0.0,0.0,0.0,0.0,0.0,0.0,0.0,0.0065,0.2192,0.2663,0.0,0.0,0.0,0.0,0.0,0.0,0.0,0.0,0.0,0.0,0.0,0.0,0.0,0.0,0.0,0.1741,0.0751,0.0,0.0,0.0,0.0,0.0,0.0,0.0,0.0,0.0,0.0,0.0,0.0,0.0,0.0,-0.1495,-0.2323,-0.2323,-0.2348,-0.2362,-0.2362,-0.0765,-0.0765,-0.2362,0.0,0.0,-0.4497,-0.4497,-0.447,-0.436,-0.4693,-0.4896,-0.4896,-0.523,-0.5431,-0.5297,-0.4628,-0.436,-0.436,-0.436,-0.436,-0.436,-0.436,-0.436,-0.436,-0.436,-0.3355,-0.2417,-0.3891,-0.2283,0.0,-0.3556,-0.3288,-0.2484,-0.3958,-0.436,-0.436,-0.436,-0.436,-0.436,-0.436,-0.436,-0.436,-0.436,-0.436,-0.436,-0.436,-0.1948,0.0,0.0,0.0,0.0,0.0,0.0,0.0,0.0,0.0,0.0,0.0,0.0,0.0,0.0,0.0,0.0,0.0,0.0,0.0,0.0,0.0,0.0,0.0,0.0,0.0,0.0,0.051,0.0578,0.0,0.0,0.0,0.0,0.0,0.0,0.0,0.0,0.0,0.0,0.0,0.2083,0.2398,0.0,0.0839,0.0885,0.0387,0.0,0.0,0.0,0.0,0.0,0.0,-0.0336,-0.1277,-0.1344,-0.1747,-0.2618,-0.2685,-0.276,-0.2779,-0.3751,-0.4257,-0.4356,-0.4386,-0.4332,-0.4332,-0.3355,-0.3355,-0.4332,-0.4332,-0.4801,-0.5732,-0.5623,-0.5585,-0.5548,-0.6382,-0.6698,-0.6765,-0.7702,-0.8038,-0.8038,-0.8038,-0.6967,-0.5431,-0.5431,-0.5431,-0.5431,-0.5431,-0.5431,-0.5431,-0.5431,-0.4762,-0.4226,-0.5096,-0.4158,-0.3087,-0.4896,-0.4762,-0.4292,-0.5163,-0.5431,-0.5431,-0.5431,-0.5431,-0.5431,-0.5431,-0.5431,-0.5431,-0.5431,-0.5431,-0.5431,-0.5431,-0.3891,-0.2685,-0.2685,-0.1948,-0.1344,-0.1344,-0.0538,0.0,0.0,0.0,0.0,0.0,0.0,0.0,0.0,0.0,0.0,0.0,0.0,0.0,0.0,0.0,0.0,0.0,0.0,0.0,0.0,0.0,0.0,0.0,0.0,0.0,0.0,0.0,0.0,0.0,0.2593,0.2448,0.2834,0.194,0.1127,0.1386,0.068,0.0,0.0,0.0,-0.0133,-0.047,-0.0538,-0.0673,-0.1009,-0.074,-0.121,-0.302,-0.3221,-0.3824,-0.5297,-0.5431,-0.5462,-0.5602,-0.5963,-0.6216,-0.637,-0.6389,-0.6329,-0.6329,-0.5978,-0.5978,-0.6329,-0.6329,-0.6529,-0.686,-0.6767,-0.6646,-0.6694,-0.7947,-0.8501,-0.8634,-1.0114,-1.0721,-1.0721,-1.0721,-0.8975,-0.6433,-0.6433,-0.6433,-0.6433,-0.6433,-0.6433,-0.6433,-0.6433,-0.6164,-0.5964,-0.6299,-0.5965,-0.5564,-0.6233,-0.6164,-0.5964,-0.6366,-0.6433,-0.6433,-0.6433,-0.6433,-0.6433,-0.6433,-0.6433,-0.6433,-0.6433,-0.6433,-0.6433,-0.6433,-0.6433,-0.6164,-0.5498,-0.4158,-0.3221,-0.3221,-0.1948,-0.1075,-0.1075,-0.1075,-0.1075,-0.1075,-0.0732,-0.0527,-0.0521,-0.0195,0.0,0.0,0.0,0.0,0.0,0.0,0.0,0.0,0.0,0.0,0.0,0.0,0.0,0.4706,0.3855,0.3165,0.356,0.3218,0.3084,0.0,0.2947,0.1837,0.2201,0.1163,0.0187,0.0191,0.0065,0.0,0.0,0.0,-0.0537,-0.2148,-0.2417,-0.3021,-0.4626,-0.3355,-0.3087,-0.4896,-0.5095,-0.5163,-0.5364,-0.5431,-0.5462,-0.5602,-0.7261,-0.8263,-0.8369,-0.8398,-0.8375,-0.8375,-0.6647,-0.6647,-0.8375,-0.8375,-0.9188,-1.0789,-1.0644,-1.0512,-1.0322,-1.0381,-1.0382,-1.0382,-1.0654,-1.0721,-1.0721,-1.0721,-1.0452,-1.0117,-1.0117,-1.0117,-1.0117,-1.0117,-1.0117,-1.0117,-1.0117,-0.9039,-0.8033,-0.9643,-0.7902,-0.6032,-0.9244,-0.8972,-0.81,-0.9712,-1.0117,-1.0117,-1.0117,-1.0117,-1.0117,-1.0117,-1.0117,-1.0117,-1.0117,-1.0117,-1.0117,-1.0117,-1.0117,-0.9042,-0.5899,-0.5228,-0.5095,-0.5095,-0.4896,-0.4827,-0.4827,-0.4827,-0.4827,-0.4827,-0.335,-0.241,-0.2406,-0.087,0.0,0.0,0.0,0.0,0.0,0.0,0.0,0.0,0.0,0.0,0.0,0.0,0.0,0.4086,0.3157,0.2267,0.2597,0.1945,0.131,0.176,0.1248,0.0721,0.0879,0.0449,0.0,0.0,0.0,-0.0334,-0.141,-0.1545,-0.2216,-0.4024,-0.4292,-0.488,-0.6626,-0.6199,-0.6093,-0.6829,-0.6898,-0.7365,-0.8437,-0.8507,-0.8585,-0.884,-0.9596,-1.0144,-1.0358,-1.0419,-1.0377,-1.0377,-0.9579,-0.9579,-1.0377,-1.0377,-1.0784,-1.1518,-1.1365,-1.1168,-1.0873,-1.0785,-1.0721,-1.0721,-1.0721,-1.0721,-1.0721,-1.0721,-1.0721,-1.0721,-1.0721,-1.0721,-1.0721,-1.0721,-1.0721,-1.0721,-1.0721,-1.018,-0.9709,-1.0452,-0.9646,-0.8773,-1.025,-1.018,-0.9775,-1.0518,-1.0721,-1.0721,-1.0721,-1.0721,-1.0721,-1.0721,-1.0721,-1.0721,-1.0721,-1.0721,-1.0721,-1.0721,-1.0721,-1.0183,-0.8706,-0.7567,-0.6898,-0.6898,-0.603,-0.5431,-0.5431,-0.5431,-0.5431,-0.5431,-0.4693,-0.4292,-0.4292,-0.3556,-0.3154,-0.3154,-0.3154,-0.3154,-0.3154,-0.3154,-0.3154,-0.3154,-0.3154,-0.3167,-0.3259,-0.3236,-0.3281,0.2804,0.202,0.1317,0.1426,0.0691,0.0,0.0,0.0,0.0,0.0,0.0,0.0,0.0,-0.0404,-0.1143,-0.2484,-0.3087,-0.4091,-0.5897,-0.6078,-0.6713,-0.8385,-0.8621,-0.8731,-0.8764,-0.8767,-0.9305,-1.0585,-1.0721,-1.085,-1.1148,-1.1231,-1.1304,-1.1609,-1.1619,-1.1619,-1.1619,-1.1619,-1.1619,-1.1619,-1.1619,-1.1619,-1.1613,-1.146,-1.1229,-1.0873,-1.0829,-1.0758,-1.0721,-1.0721,-1.0721,-1.0721,-1.0721,-1.0721,-1.0721,-1.0721,-1.0721,-1.0721,-1.0721,-1.0721,-1.0721,-1.0721,-1.0721,-1.0721,-1.0721,-1.0721,-1.0721,-1.0721,-1.0721,-1.0721,-1.0721,-1.0721,-1.0721,-1.0721,-1.0721,-1.0721,-1.0721,-1.0721,-1.0721,-1.0721,-1.0721,-1.0721,-1.0721,-1.0721,-1.0721,-1.0721,-0.9573,-0.8767,-0.8767,-0.7633,-0.6833,-0.6833,-0.6833,-0.6833,-0.6833,-0.6433,-0.6097,-0.6097,-0.5696,-0.5431,-0.5431,-0.5431,-0.5431,-0.5431,-0.5431,-0.5431,-0.5431,-0.545,-0.5486,-0.5607,-0.5638,-0.5713,0.0441,0.0102,0.0054,0.0057,0.006,0.0,0.0,0.0,0.0,0.0,0.0,0.0,0.0,-0.1411,-0.2618,-0.2685,-0.4158,-0.5897,-0.7698,-0.781,-0.8443,-1.0363,-1.052,-1.0489,-1.0638,-1.0654,-1.0651,-1.0721,-1.0721,-1.085,-1.1148,-1.1231,-1.1304,-1.1609,-1.1619,-1.1619,-1.1619,-1.1619,-1.1619,-1.1619,-1.1619,-1.1619,-1.1613,-1.146,-1.1229,-1.088,-1.0877,-1.0789,-1.0721,-1.0721,-1.0721,-1.0721,-1.0721,-1.0721,-1.0721,-1.0721,-1.0721,-1.0721,-1.0721,-1.0721,-1.0721,-1.0721,-1.0721,-1.0721,-1.0721,-1.0721,-1.0721,-1.0721,-1.0721,-1.0721,-1.0721,-1.0721,-1.0721,-1.0721,-1.0721,-1.0721,-1.0721,-1.0721,-1.0721,-1.0721,-1.0721,-1.0721,-1.0721,-1.0721,-1.0721,-1.0721,-1.0651,-1.0654,-1.0654,-1.0585,-1.0518,-1.0518,-1.0518,-1.0518,-1.0518,-0.8903,-0.7897,-0.7897,-0.6364,-0.5431,-0.5431,-0.5431,-0.5431,-0.5431,-0.5431,-0.5431,-0.5431,-0.55,-0.5604,-0.5609,-0.5763,-0.5765,0.0104,0.0,-0.0288,-0.1509,-0.1819,-0.2135,-0.3295,-0.3585,-0.3526,-0.3443,-0.3282,-0.3251,-0.3158,-0.3601,-0.4449,-0.5723,-0.6566,-0.7622,-0.9495,-0.9738,-0.9958,-1.0509,-1.0612,-1.0622,-1.0575,-1.066,-1.0721,-1.0721,-1.0721,-1.085,-1.1148,-1.1231,-1.1304,-1.1609,-1.1619,-1.1619,-1.1619,-1.1619,-1.1619,-1.1619,-1.1619,-1.1619,-1.1613,-1.146,-1.1335,-1.1233,-1.1033,-1.085,-1.0796,-1.0761,-1.0721,-1.0721,-1.0721,-1.0721,-1.0721,-1.0721,-1.0721,-1.0721,-1.0721,-1.0721,-1.0721,-1.0721,-1.0721,-1.0721,-1.0721,-1.0721,-1.0721,-1.0721,-1.0721,-1.0721,-1.0721,-1.0721,-1.0721,-1.0721,-1.0721,-1.0721,-1.0721,-1.0721,-1.0721,-1.0721,-1.0721,-1.0721,-1.0721,-1.0721,-1.0721,-1.0721,-1.0721,-1.0721,-1.0721,-1.0721,-1.0721,-1.0721,-1.0721,-1.0721,-1.0721,-1.0114,-0.9779,-0.9779,-0.9241,-0.8909,-0.8909,-0.8909,-0.8909,-0.8909,-0.8909,-0.8948,-0.9033,-0.9072,-0.9245,-0.948,-0.9496,-0.9581,-0.1656,-0.1853,-0.2235,-0.3347,-0.3641,-0.398,-0.5152,-0.5342,-0.5228,-0.4996,-0.4854,-0.4712,-0.4496,-0.4969,-0.5873,-0.7292,-0.8151,-0.9057,-1.0482,-1.0673,-1.0622,-1.0578,-1.0612,-1.0622,-1.0578,-1.0663,-1.0721,-1.0721,-1.0721,-1.085,-1.1148,-1.1231,-1.1304,-1.1609,-1.1619,-1.1619,-1.1619,-1.1619,-1.1619,-1.1619,-1.1619,-1.1619,-1.1616,-1.1518,-1.1443,-1.1379,-1.1131,-1.0995,-1.087,-1.0782,-1.0721,-1.0721,-1.0721,-1.0721,-1.0721,-1.0721,-1.0721,-1.0721,-1.0721,-1.0721,-1.0721,-1.0721,-1.0721,-1.0721,-1.0721,-1.0721,-1.0721,-1.0721,-1.0721,-1.0721,-1.0721,-1.0721,-1.0721,-1.0721,-1.0721,-1.0721,-1.0721,-1.0721,-1.0721,-1.0721,-1.0721,-1.0721,-1.0721,-1.0721,-1.0721,-1.0721,-1.0721,-1.0721,-1.0721,-1.0721,-1.0721,-1.0721,-1.0721,-1.0721,-1.0721,-1.0721,-1.0721,-1.0721,-1.0721,-1.0721,-1.0721,-1.0721,-1.0721,-1.0721,-1.0775,-1.0782,-1.088,-1.0985,-1.1206,-1.1392,-1.1447,-1.1525,-0.47,-0.5234,-0.5415,-0.5525,-0.5506,-0.5557,-0.5624,-0.549,-0.5253,-0.4979,-0.482,-0.4598,-0.4282,-0.566,-0.6941,-0.7449,-0.8907,-1.0152,-1.066,-1.0595,-1.0558,-1.0704,-1.0592,-1.0561,-1.0707,-1.0721,-1.0724,-1.0731,0.0,-1.0856,-1.1148,-1.1237,-1.1311,-1.1609,-1.1619,-1.1619,-1.1619,-1.1619,-1.1619,-1.1619,-1.1619,-1.1619,-1.1619,-1.1619,-1.1541,-1.1396,-1.1233,-1.1087,-1.088,-1.0785,-1.0721,-1.0721,-1.0721,-1.0721,-1.0721,-1.0721,-1.0721,-1.0721,-1.0721,-1.0721,-1.0721,-1.0721,-1.0721,-1.0721,-1.0721,-1.0721,-1.0721,-1.0721,-1.0721,-1.0721,-1.0721,-1.0721,-1.0721,-1.0721,-1.0721,-1.0721,-1.0721,-1.0721,-1.0721,-1.0721,-1.0721,-1.0721,-1.0721,-1.0721,-1.0721,-1.0721,-1.0721,-1.0721,-1.0721,-1.0721,-1.0721,-1.0721,-1.0721,-1.0721,-1.0721,-1.0721,-1.0721,-1.0721,-1.0721,-1.0721,-1.0721,-1.0721,-1.0721,-1.0721,-1.0796,-1.0873,-1.088,-1.124,-1.1385,-1.1396,-1.1548,-1.1619,-0.4973,-0.5256,-0.571,-0.7021,-0.729,-0.7517,-0.8898,-0.8909,-0.8541,-0.8227,-0.7921,-0.7564,-0.7259,-0.7828,-0.847,-0.884,-0.9617,-1.0337,-1.0673,-1.0687,-1.0677,-1.0714,-1.0683,-1.0677,-1.0717,-1.0721,-1.0768,0.0,-1.0823,-1.0972,-1.1224,-1.127,-1.1419,-1.1613,-1.1619,-1.1619,-1.1619,-1.1619,-1.1619,-1.1619,-1.1619,-1.1619,-1.1619,-1.1619,-1.1599,-1.1545,-1.1277,-1.1141,-1.1087,-1.0829,-1.0721,-1.0721,-1.0721,-1.0721,-1.0721,-1.0721,-1.0721,-1.0721,-1.0721,-1.0721,-1.0721,-1.0721,-1.0721,-1.0721,-1.0721,-1.0721,-1.0721,-1.0721,-1.0721,-1.0721,-1.0721,-1.0721,-1.0721,-1.0721,-1.0721,-1.0721,-1.0721,-1.0721,-1.0721,-1.0721,-1.0721,-1.0721,-1.0721,-1.0721,-1.0721,-1.0721,-1.0721,-1.0721,-1.0721,-1.0721,-1.0721,-1.0721,-1.0721,-1.0721,-1.0721,-1.0721,-1.0721,-1.0721,-1.0721,-1.0721,-1.0721,-1.0721,-1.0721,-1.0721,-1.0758,-1.0766,-1.088,-1.1131,-1.128,-1.1396,-1.1548,-1.1619,-0.7242,-0.7565,-0.7956,-0.8952,-0.9079,-0.9201,-0.9986,-0.9903,-0.9469,-0.8906,-0.8591,-0.8286,-0.7855,-0.8197,-0.8612,-0.9028,-0.9591,-1.0134,-1.0561,-1.0677,-1.0721,-1.0721,-1.0721,-1.0721,-1.0721,-1.15,-1.2107,-1.2202,-1.1347,-1.104,-1.1253,-1.1345,-1.146,-1.1613,-1.1619,-1.1619,-1.1619,-1.1619,-1.1619,-1.1619,-1.1619,-1.1619,-1.1619,-1.1619,-1.1582,-1.1504,0.0,-1.1128,-1.105,-1.0816,-1.0721,-1.0721,-1.0721,-1.0721,-1.0721,-1.0721,-1.0721,-1.0721,-1.0721,-1.0721,-1.0721,-1.0721,-1.0721,-1.0721,-1.0721,-1.0721,-1.0721,-1.0721,-1.0721,-1.0721,-1.0721,-1.0721,-1.0721,-1.0721,-1.0721,-1.0721,-1.0721,-1.0721,-1.0721,-1.0721,-1.0721,-1.0721,-1.0721,-1.0721,-1.0721,-1.0721,-1.0721,-1.0721,-1.0721,-1.0721,-1.0721,-1.0721,-1.0721,-1.0721,-1.0721,-1.0721,-1.0721,-1.0721,-1.0721,-1.0721,-1.0721,-1.0721,-1.0751,-1.0819,-1.0819,-1.0894,-1.1043,-1.1189,-1.1307,-1.1396,-1.1548,-1.1619,-1.005,-1.0605,-1.0714,-1.0697,-1.0544,-1.029,-0.9859,-0.9473,-0.8971,-0.8099,-0.7884,-0.7685,-0.7166,-0.7557,-0.8113,-0.8635,-0.9215,-0.9815,-1.0409,-1.0799,-1.0958,-1.0717,-1.1111,-1.1314,-1.114,-1.2978,-1.4152,-1.4204,-1.2676,-1.1866,-1.2138,-1.1896,-1.197,-1.2323,-1.2327,-1.2255,-1.1972,-1.1972,-1.1832,-1.1619,-1.1619,-1.1619,-1.1619,-1.1599,-1.1518,-1.1382,-1.1209,-1.1063,-1.087,-1.0782,-1.0721,-1.0721,-1.0721,-1.0721,-1.0721,-1.0721,-1.0721,-1.0721,-1.0721,-1.0721,-1.0721,-1.0721,-1.0721,-1.0721,-1.0721,-1.0721,-1.0721,-1.0721,-1.0721,-1.0721,-1.0721,-1.0721,-1.0721,-1.0721,-1.0721,-1.0721,-1.0721,-1.0721,-1.0721,-1.0721,-1.0721,-1.0721,-1.0721,-1.0721,-1.0721,-1.0721,-1.0721,-1.0721,-1.0721,-1.0721,-1.0721,-1.0721,-1.0721,-1.0721,-1.0721,-1.0721,-1.0721,-1.0721,-1.0721,-1.0721,-1.0721,-1.0721,-1.0792,-1.0877,-1.088,-1.1019,-1.1231,-1.1314,-1.1392,-1.1396,-1.1548,-1.1619,-1.0338,-1.0605,-1.069,-1.0565,-1.0232,-0.9852,-0.953,-0.8842,-0.8157,-0.7756,-0.738,-0.7045,-0.6943,-0.7451,-0.8041,-0.8618,-0.9215,-0.9815,-1.0409,-1.1728,-1.2187,-1.0836,-1.3259,-1.4557,-1.3407,-1.4902,0.0,0.0,-1.6113,-1.5941,-1.6013,-1.4648,-1.4611,-1.6197,-1.6197,-1.5495,-1.3939,-1.3939,-1.3167,-1.1619,-1.1619,-1.1619,-1.1616,-1.1487,-1.1416,-1.1375,-1.1104,0.0,-1.087,-1.0782,-1.0721,-1.0721,-1.0721,-1.0721,-1.0721,-1.0721,-1.0721,-1.0721,-1.0721,-1.0721,-1.0721,-1.0721,-1.0721,-1.0721,-1.0721,-1.0721,-1.0721,-1.0721,-1.0721,-1.0721,-1.0721,-1.0721,-1.0721,-1.0721,-1.0721,-1.0721,-1.0721,-1.0721,-1.0721,-1.0721,-1.0721,-1.0721,-1.0721,-1.0721,-1.0721,-1.0721,-1.0721,-1.0721,-1.0721,-1.0721,-1.0721,-1.0721,-1.0721,-1.0721,-1.0721,-1.0721,-1.0721,-1.0721,-1.0721,-1.0721,-1.0721,-1.0721,-1.0792,-1.0877,-1.088,-1.1019,-1.1231,-1.1314,-1.1392,-1.1396,-1.1548,-1.1619,-1.0409,-1.0605,-1.0683,-1.0531,-1.0154,-0.9659,-0.9052,-0.8397,-0.7746,-0.7139,-0.6905,-0.6763,-0.661,-0.7129,-0.7937,-0.8947,-0.9122,-0.9946,-1.2188,-1.269,-1.2957,-1.3343,-1.4879,-1.5678,-1.5172,-1.6885,-1.8106,-1.8465,-1.854,-1.8202,-1.7161,-1.6281,-1.6263,-1.7183,-1.7183,-1.6761,-1.5839,-1.5844,-1.542,-1.4512,-1.4512,-1.4456,-1.4284,-1.4261,-1.4047,-1.3861,-1.3684,-1.3549,-1.3518,-1.3424,-1.3386,-1.3386,-1.3386,-1.3386,-1.3386,-1.3386,-1.2804,-1.2022,-1.2022,-1.1439,-1.0721,-1.0721,-1.0721,-1.0721,-1.0721,-1.0721,-1.0721,-1.0721,-1.0721,-1.0721,-1.0721,-1.0721,-1.0721,-1.0721,-1.0721,-1.0721,-1.0721,-1.0721,-1.0721,-1.0721,-1.0721,-1.0721,-1.0721,-1.0721,-1.0721,-1.0721,-1.0721,-1.0721,-1.0721,-1.0721,-1.0721,-1.0721,-1.0721,-1.0721,-1.0721,-1.0721,-1.0721,-1.0721,-1.0721,-1.0721,-1.0721,-1.0799,-1.0907,-1.1056,-1.106,-1.1134,-1.128,-1.1355,-1.1392,-1.1396,-1.1548,-1.1619,-1.0402,-1.0558,-1.0599,-1.0477,-1.0059,-0.9459,-0.8625,-0.8038,-0.7441,-0.6678,-0.6542,-0.6542,-0.6381,-0.6852,-0.7764,-0.9296,-0.9253,-1.0264,-1.3883,-1.3899,-1.4128,-1.5698,-1.656,-1.7001,-1.7021,-1.8821,0.0,-2.0409,-2.0634,-1.9843,-1.7954,-1.8234,-1.8444,-1.8444,-1.8444,-1.8234,-1.7814,-1.7814,-1.7604,-1.7183,-1.7132,-1.7011,-1.683,-1.6666,-1.6441,-1.612,-1.6069,-1.6015,-1.5913,-1.5913,-1.5913,-1.5913,-1.5913,-1.5913,-1.5913,-1.5913,-1.5009,-1.384,-1.384,-1.2931,-1.1828,-1.1828,-1.1306,-1.0721,-1.0721,-1.0721,-1.0787,-1.1178,-1.0979,-1.0787,-1.1178,-1.124,-1.1372,-1.1762,-1.1501,-1.124,-1.124,-1.124,-1.1178,-1.0784,-1.0721,-1.0721,-1.0721,-1.0721,-1.0721,-1.0721,-1.0721,-1.0721,-1.0721,-1.0721,-1.0721,-1.0721,-1.0721,-1.0721,-1.0721,-1.0721,-1.0721,-1.0721,-1.0751,-1.0755,-1.0721,-1.0897,-1.1046,-1.1231,-1.1265,-1.1287,-1.144,-1.144,-1.144,-1.1443,-1.1562,-1.1619,-1.0375,-1.0409,-1.0317,-1.0304,-0.9811,-0.9108,-0.8484,-0.7726,-0.7018,-0.6573,-0.6419,-0.6371,-0.6474,-0.662,-0.7415,-0.9456,-0.9807,-1.0936,-1.3995,-1.5677,-1.6403,-1.5941,-1.8704,-2.0214,-1.9193,-2.075,-2.2011,-2.2567,-2.2634,-2.1809,-1.9912,-2.1459,-2.2372,-2.2372,-2.2372,-2.1527,-1.9849,-1.9843,-1.8932,-1.7178,-1.6966,-1.685,-1.682,-1.636,-1.616,-1.611,-1.5969,-1.5934,0.0,-1.5913,-1.5913,-1.5913,-1.5913,-1.5913,-1.5913,-1.5913,-1.5789,-1.5654,-1.5654,-1.5589,-1.5399,-1.5399,-1.3259,-1.0721,-1.0721,-1.0721,-1.1045,-1.2606,-1.1894,-1.1045,-1.2672,-1.3062,-1.3451,-1.5074,-1.4232,-1.3062,-1.3062,-1.3062,-1.2606,-1.0982,-1.0721,-1.0721,-1.0721,-1.0721,-1.0721,-1.0721,-1.0721,-1.0721,-1.0721,-1.0721,-1.0721,-1.0721,-1.0721,-1.0721,-1.0721,-1.0721,-1.0721,-1.0721,-1.0782,-1.0799,-1.0724,-1.0992,-1.1148,-1.1231,-1.1301,-1.1447,-1.1599,-1.1599,-1.1599,-1.1599,-1.1613,-1.1619,-1.1149,-1.0929,-1.0485,-1.1279,-1.0336,-0.9006,-0.817,-0.8013,-0.7928,-0.7398,-0.7258,-0.7234,-0.7258,-0.741,-0.8143,-1.0208,-1.0516,-1.1773,-1.5558,-1.6111,-1.6657,-1.8106,-1.9594,-2.0691,-2.095,0.0,-2.2231,-2.2819,-2.2928,-2.2578,-2.1809,-2.251,-2.2928,-2.2928,-2.2928,-2.251,-2.1809,-2.1809,-2.1302,-2.0301,-2.0187,-1.997,-1.9664,-1.9525,-1.9273,-1.9116,-1.9072,-1.903,0.0,-1.903,-1.903,-1.903,-1.903,-1.903,-1.903,-1.903,-1.8378,-1.7468,-1.7468,-1.6754,-1.5913,-1.5913,-1.4944,-1.3844,-1.3844,-1.3844,-1.397,-1.4684,-1.4358,-1.397,-1.4684,-1.4879,-1.5009,-1.5719,-1.5394,-1.4879,-1.4879,-1.4879,-1.4684,-1.397,-1.3844,-1.3517,-1.2479,-1.2285,-1.1894,-1.085,-1.0721,-1.0721,-1.0721,-1.0721,-1.0721,-1.0721,-1.0721,-1.0721,-1.0721,-1.0721,-1.0721,-1.0721,-1.0778,-1.0782,-1.0721,-1.0921,-1.1077,-1.1231,-1.1314,-1.1467,-1.1619,-1.1619,-1.1619,-1.1619,-1.1619,-1.1619,-1.1569,-1.1647,-1.1535,-1.2354,-1.14,-0.9973,-0.9002,-0.9013,-0.9054,-0.8398,-0.8237,-0.8237,-0.8237,-0.8306,-0.9025,-1.1,-1.1316,-1.2723,-1.6627,-1.6604,-1.7049,-1.9389,-1.9927,-2.0535,-2.1623,-2.2038,-2.2418,-2.2901,-2.2928,-2.2928,-2.2928,-2.2928,-2.2928,-2.2928,-2.2928,-2.2819,-2.2732,-2.2732,-2.2579,-2.2291,-2.2205,-2.1951,-2.1614,-2.1527,-2.1309,-2.1109,-2.1109,-2.1109,0.0,-2.1109,-2.1109,-2.1109,-2.1109,-2.1109,-2.1109,-2.1109,-2.0329,-1.9285,-1.9285,-1.8442,-1.7474,-1.7474,-1.7474,-1.7474,-1.7474,-1.6695,-1.5978,-1.6496,-1.6689,-1.6689,-1.6689,-1.6307,-1.6172,-1.7211,-1.7017,-1.6689,-1.6689,-1.6689,-1.6496,-1.5978,-1.5913,-1.5524,-1.4297,-1.4101,-1.3648,-1.2413,-1.2219,-1.2022,-1.1567,-1.1501,-1.124,-1.0787,-1.1178,-1.124,-1.0721,-1.0721,-1.0721,-1.0721,-1.0761,-1.0965,-1.1439,-1.1174,-1.1531,-1.2791,-1.2414,-1.2581,-1.3246,-1.3246,-1.3246,-1.3242,-1.2678,-1.2112,-1.1347,-1.2566,-1.3648,-1.3539,-1.3108,-1.2442,-1.1338,-1.0795,-1.0316,-0.9478,-0.9296,-0.9296,-0.9296,-0.9301,-0.9906,-1.1799,-1.2355,-1.3664,-1.6759,-1.7402,-1.8029,-1.929,-1.9626,-2.0147,-2.1029,-2.2171,-2.2921,-2.2928,-2.2928,0.0,-2.2928,-2.2928,-2.2928,-2.2928,-2.2928,-2.2719,-2.2425,-2.2425,-2.2278,-2.1984,-2.1769,-2.1628,-2.1608,-2.1249,-2.1109,-2.1109,-2.1109,-2.1109,0.0,-2.1109,-2.1109,-2.1109,-2.1109,-2.1109,-2.1109,-2.1109,-2.1109,-2.1046,-2.1046,-2.1046,-2.1046,-2.1046,-2.1046,-2.1046,-2.1046,-1.8634,-1.6237,-1.7988,-1.8442,-1.8442,-1.8442,-1.7211,-1.6759,-2.0202,-1.9744,-1.8442,-1.8442,-1.8442,-1.7988,-1.6237,-1.5913,-1.5913,-1.5854,-1.5848,-1.5848,-1.5848,-1.5848,-1.52,-1.3517,-1.3259,-1.261,-1.085,-1.2215,-1.2545,-1.085,-1.0721,-1.0721,-1.0721,-1.0796,-1.1605,-1.3202,-1.1939,-1.286,-1.6451,-1.4949,-1.5147,-1.7112,-1.7112,-1.7112,-1.7112,-1.5208,-1.3377,-1.128,-1.1896,-1.2356,-1.3127,-1.2436,-1.1399,-1.0558,-1.0873,-1.1172,-1.0471,-1.034,-1.034,-1.034,-1.034,-1.0907,-1.2713,-1.3674,-1.493,-1.6914,-1.7809,-1.8417,-1.8998,-2.0207,-2.1172,0.0,0.0,-2.2559,-2.2559,-2.2746,-2.2772,-2.2572,-2.2559,-2.2652,-2.2921,-2.2665,-2.2512,-2.2418,-2.2218,-2.1977,-2.1755,-2.1661,-2.1507,-2.1243,-2.1156,-2.1109,-2.1109,-2.1109,-2.1109,-2.1109,-2.1109,-2.1109,-2.1109,-2.1109,-2.1109,-2.1109,-2.1109,-2.1109,-2.1109,-2.1109,-2.1109,-2.1109,-2.1109,-2.1109,-2.1109,-2.1109,-2.0329,-1.9546,-2.0132,-2.0265,-2.0265,-2.0265,-1.9871,-1.9744,-2.0849,-2.0652,-2.0265,-2.0265,-2.0265,-2.0132,-1.9546,-1.9477,-1.9094,-1.7859,-1.7667,-1.7275,-1.6108,-1.5913,-1.5719,-1.5139,-1.5074,-1.4879,-1.4297,-1.4749,-1.4358,-1.2606,-1.3582,-1.4227,-1.4227,-1.4291,-1.4557,-1.5074,-1.4879,-1.5356,-1.6586,-1.6255,-1.647,-1.7183,-1.7183,-1.7183,-1.7183,-1.6615,-1.6131,-1.142,-1.2312,-1.2964,-1.3551,-1.3032,-1.2203,-1.1402,-1.1782,-1.2111,-1.1502,-1.1354,-1.1354,-1.1354,-1.1354,-1.1794,-1.3124,-1.4085,-1.5189,-1.6663,-1.7589,-1.8424,-1.9165,-2.0421,0.0,0.0,-2.1911,-2.2258,-2.2258,-2.2425,-2.2452,-2.2265,-2.2258,-2.2338,-2.2525,-2.2352,-2.2205,-2.2091,-2.1911,-2.1677,-2.139,-2.139,-2.1289,-2.1109,-2.1109,-2.1109,-2.1109,-2.1109,-2.1109,0.0,-2.1109,-2.1109,-2.1109,-2.1109,-2.1109,-2.1109,-2.1109,-2.1109,-2.1109,-2.1109,-2.1109,-2.1109,-2.1109,-2.1109,-2.1109,-2.1109,-2.1109,-2.1109,-2.1109,-2.1109,-2.1109,-2.1109,-2.1109,-2.1109,-2.1109,-2.1109,-2.1109,-2.1109,-2.1109,-2.1109,-2.1109,-2.1109,-2.0779,-1.968,-1.9483,-1.9094,-1.8052,-1.7859,-1.7602,-1.6953,-1.6888,-1.6625,-1.5978,-1.6496,-1.6431,-1.5334,-1.5659,-1.5913,-1.5913,-1.5913,-1.6278,-1.7017,-1.6637,-1.7126,-1.8738,-1.8279,-1.8476,-1.935,-1.935,-1.9002,-1.8309,-1.8395,-1.8159,0.0,-1.3348,-1.4713,-1.4376,-1.4315,-1.4115,-1.3273,-1.31,0.0,-1.2358,-1.2251,-1.2285,-1.2325,-1.2338,-1.2565,-1.328,-1.3854,-1.4723,-1.6192,-1.7174,-1.8277,-1.972,-2.0374,0.0,-2.1082,-2.1623,-2.1951,-2.1951,-2.1977,-2.1977,-2.1957,-2.1951,-2.1944,-2.1924,-2.1924,-2.1804,-2.1621,-2.1594,-2.1383,-2.1109,-2.1109,-2.1109,-2.1109,-2.1109,-2.1109,0.0,-2.1109,-2.1109,-2.1109,-2.1109,-2.1109,-2.1109,-2.1109,-2.1109,-2.1109,-2.1109,-2.1109,-2.1109,-2.1109,-2.1109,-2.1109,-2.1109,-2.1109,-2.1109,-2.1109,-2.1109,-2.1109,-2.1109,-2.1109,-2.1109,-2.1109,-2.1109,-2.1109,-2.1109,-2.1109,-2.1109,-2.1109,-2.1109,-2.1109,-2.1109,-2.1109,-2.1109,-2.1109,-2.1109,-2.1109,-2.1109,-2.1109,-2.0526,-1.8896,-1.8704,-1.8052,-1.6431,-1.7731,-1.8704,-1.8704,-1.7211,-1.6237,-1.6237,-1.6237,-1.7114,-1.9054,-1.7642,-1.8544,-2.2304,-2.0841,-2.0984,-2.2928,-2.2928,-2.2022,-2.034,-2.0602,-1.9807,-1.0857,0.0,-1.2563,-1.2225,-1.2325,-1.2378,0.0,-1.2024,-1.2078,-1.1703,-1.181,-1.2147,-1.2596,-1.2683,-1.3246,-1.4937,-1.5331,-1.5939,-1.7369,-1.8584,-1.9659,-2.0681,-2.0922,-2.1036,-2.1102,-2.1443,-2.1722,-2.1722,-2.1857,-2.1891,-2.1728,-2.1722,-2.155,-2.1323,-2.1316,-2.139,-2.1614,-2.1329,-2.1182,-2.1109,-2.1109,-2.1109,-2.1109,-2.1109,-2.1109,-2.1109,-2.1109,-2.1109,-2.1109,-2.1109,-2.1109,-2.1109,-2.1109,-2.1109,-2.1109,-2.1109,-2.1109,-2.1109,-2.1109,-2.1109,-2.1109,-2.1109,-2.1109,-2.1109,-2.1109,-2.1109,-2.1109,-2.1109,-2.1109,-2.1109,-2.1109,-2.1109,-2.1109,-2.1109,-2.1109,-2.1109,-2.1109,-2.1109,-2.1109,-2.1109,-2.1109,-2.1109,-2.1109,-2.1109,-2.1109,-2.1109,-2.1109,-2.0976,-2.0526,-2.0519,-2.0329,-1.9935,-2.0259,-2.0519,-2.0519,-2.0132,-1.9871,-1.9871,-1.9871,-2.0094,-2.0617,-2.0642,-2.1134,-2.2084,-2.2113,-2.2437,-2.2928,-2.2928,-2.2647,-2.2235,-2.2534,-2.2505,-1.0352,-1.133,-1.2268,-1.2107,-1.2187,-1.2268,-1.2064,-1.1844,-1.1657,-1.1637,-1.1757,-1.2087,-1.2677,-1.2904,-1.346,-1.4983,-1.5518,-1.6486,-1.8384,-1.9546,-2.0428,-2.1036,-2.1109,-2.1109,0.0,-2.1256,-2.1349,-2.1349,-2.1496,-2.1516,-2.1356,-2.1349,-2.1276,-2.1116,-2.1109,-2.1189,-2.1349,-2.1189,-2.1109,-2.1109,-2.1109,-2.1109,-2.1109,-2.1109,-2.1109,-2.1109,-2.1109,-2.1109,-2.1109,-2.1109,-2.1109,-2.1109,-2.1109,-2.1109,-2.1109,-2.1109,-2.1109,-2.1109,-2.1109,-2.1109,-2.1109,-2.1109,-2.1109,-2.1109,-2.1109,-2.1109,-2.1109,-2.1109,-2.1109,-2.1109,-2.1109,-2.1109,-2.1109,-2.1109,-2.1109,-2.1109,-2.1109,-2.1109,-2.1109,-2.1109,-2.1109,-2.1109,-2.1109,-2.1109,-2.1109,-2.1109,-2.1109,-2.1109,-2.1109,-2.1109,-2.1109,-2.1109,-2.1109,-2.1109,-2.1109,-2.1109,-2.1109,-2.1109,-2.1109,-2.1169,-2.1309,-2.1744,-2.2111,-2.2385,-2.2699,-2.2928,-2.2928,-2.2928,-2.2928,-2.2941,-2.318,-2.3487,-1.0134,-1.1504,-1.2782,-1.2563,-1.2616,-1.2703,-1.2656,-1.2067,-1.1577,-1.1877,-1.2007,-1.2234,-1.2871,-1.324,-1.3781,-1.4703,-1.5624,-1.7048,-1.9199,-2.018,-2.0782,-2.1076,-2.1109,0.0,-2.1109,-2.1109,-2.1109,-2.1109,-2.1109,-2.1109,-2.1109,-2.1109,-2.1109,-2.1109,-2.1109,-2.1109,-2.1109,-2.1109,-2.1109,-2.1109,-2.1109,-2.1109,-2.1109,-2.1109,-2.1109,-2.1109,0.0,0.0,-2.1109,-2.1109,-2.1109,-2.1109,-2.1109,-2.1109,-2.1109,-2.1109,-2.1109,-2.1109,-2.1109,-2.1109,-2.1109,-2.1109,-2.1109,-2.1109,-2.1109,-2.1109,-2.1109,-2.1109,-2.1109,-2.1109,-2.1109,-2.1109,-2.1109,-2.1109,-2.1109,-2.1109,-2.1109,-2.1109,-2.1109,-2.1109,-2.1109,-2.1109,-2.1109,-2.1109,-2.1109,-2.1109,-2.1109,-2.1109,-2.1109,-2.1109,-2.1109,-2.1109,-2.1109,-2.1109,-2.1109,-2.1109,-2.1109,-2.1109,-2.1109,-2.1243,-2.1608,-2.183,-2.2238,-2.2786,-2.2839,-2.2928,-2.2928,-2.2928,-2.2928,-2.2941,-2.3227,-2.3534,-1.0575,-1.1819,-1.2543,-1.1544,-1.1817,-1.2305,-1.2094,-1.1933,-1.1884,-1.2178,-1.2476,-1.2911,-1.3769,-1.4372,-1.5064,-1.6186,-1.7535,-1.8838,-1.994,0.0,-2.0782,-2.1076,0.0,-2.1109,-2.1109,-2.1109,-2.1109,-2.1109,-2.1109,-2.1109,-2.1109,-2.1109,-2.1109,-2.1109,-2.1109,-2.1109,-2.1109,-2.1109,-2.1109,-2.1109,-2.1109,-2.1109,-2.1109,-2.1109,-2.1109,-2.1109,0.0,-2.1109,-2.1109,-2.1109,-2.1109,-2.1109,-2.1109,-2.1109,-2.1109,-2.1109,-2.1109,-2.1109,-2.1109,-2.1109,-2.1109,-2.1109,-2.1109,-2.1109,-2.1109,-2.1109,-2.1109,-2.1109,-2.1109,-2.1109,-2.1109,-2.1109,-2.1109,-2.1109,-2.1109,-2.1109,-2.1109,-2.1109,-2.1109,-2.1109,-2.1109,-2.1109,-2.1109,-2.1109,-2.1109,-2.1109,-2.1109,-2.1109,-2.1109,-2.1109,-2.1109,-2.1109,-2.1109,-2.1109,-2.1109,-2.1109,-2.1109,-2.1109,-2.1109,-2.1243,-2.1608,-2.183,-2.2144,-2.2478,-2.2732,-2.2928,-2.2928,-2.2928,-2.2928,-2.2879,-2.344,-2.3728,-1.0053,-1.1136,-1.1977,-1.1757,-1.2605,-1.3467,-1.3333,-1.2939,-1.2679,-1.2966,-1.3133,-1.3454,-1.4188,-1.493,-1.6252,-1.8803,-1.9415,-2.0116,-2.1576,-2.1266,-2.0962,0.0,0.0,-2.1109,-2.1109,-2.1908,-2.2466,-2.2466,-2.3248,-2.373,-2.373,-2.373,-2.3373,-2.2466,-2.2466,-2.2034,-2.1109,-2.1109,-2.1109,-2.1109,-2.1109,-2.1109,-2.1109,-2.1109,-2.1109,-2.1109,0.0,-2.1109,-2.1109,-2.1109,-2.1109,-2.1109,-2.1109,-2.1109,-2.1109,-2.1109,-2.1109,-2.1109,-2.1109,-2.1109,-2.1109,-2.1109,-2.1109,-2.1109,-2.1109,-2.1109,-2.1109,-2.1109,-2.1109,-2.1109,-2.1109,-2.1109,-2.1109,-2.1109,-2.1109,-2.1109,-2.1109,-2.1109,-2.1109,-2.1109,-2.1109,-2.1109,-2.1109,-2.1109,-2.1109,-2.1109,-2.1109,-2.1109,-2.1109,-2.1109,-2.1109,-2.1109,-2.1109,-2.1109,-2.1109,-2.1109,-2.1109,-2.1109,-2.1109,-2.1243,-2.1608,-2.183,-2.2124,-2.2412,-2.2712,-2.2928,-2.2928,-2.2928,-2.2928,-2.2941,-2.332,-2.3614,-0.9773,-1.0695,-1.1582,-1.2418,-1.342,-1.4282,-1.4563,-1.4048,-1.3661,-1.4113,-1.4219,-1.4372,-1.4937,-1.5752,-1.7346,-2.0504,-2.0545,-2.0895,-2.2957,-2.231,-2.1846,-2.2208,-2.1908,-2.1846,-2.2208,-2.3076,-2.3752,-2.4116,-2.5322,-2.5976,-2.5976,-2.5976,-2.5436,-2.4178,-2.4178,-2.3559,-2.2271,-2.2271,-2.1839,-2.1109,-2.1109,-2.1109,-2.1109,-2.1481,-2.1664,-2.1727,-2.209,-2.2027,-2.1664,-2.1664,-2.1475,-2.1109,-2.1109,-2.1109,-2.1109,-2.1109,-2.1109,-2.1109,-2.1109,-2.1109,-2.1109,-2.1109,-2.1109,-2.1109,-2.1109,-2.1109,-2.1109,-2.1109,-2.1109,-2.1109,-2.1109,-2.1109,-2.1109,-2.1109,-2.1109,-2.1109,-2.1109,-2.1109,-2.1109,-2.1109,-2.1109,-2.1109,-2.1109,-2.1109,-2.1109,-2.1109,-2.1109,-2.1109,-2.1109,-2.1109,-2.1109,-2.1109,-2.1109,-2.1109,-2.1109,-2.1109,-2.1109,-2.1109,-2.1109,-2.1216,-2.1436,-2.1797,-2.2091,-2.2311,-2.2672,-2.2928,-2.2928,-2.2928,-2.2928,-2.2941,-2.318,-2.3487,-1.0521,-1.1156,-1.1735,-1.3154,-1.3387,-1.3587,-1.4727,-1.4669,-1.4736,-1.5852,-1.6134,-1.6179,-1.6493,-1.723,-1.829,-1.9708,-2.0073,-2.0964,-2.3269,0.0,-2.3993,-2.5489,-2.4355,-2.3993,-2.5497,-2.4417,-2.424,-2.5733,-2.5915,-2.5976,-2.5976,-2.5976,-2.5924,-2.5855,-2.5802,-2.5794,-2.568,-2.568,-2.4093,-2.1109,-2.1109,-2.1109,-2.1172,-2.2709,-2.3387,-2.3512,-2.5016,-2.477,-2.3387,-2.3387,-2.2529,-2.1109,-2.1109,-2.1109,-2.1109,-2.1109,-2.1109,-2.1109,-2.1109,-2.1109,-2.1109,-2.1109,-2.1109,-2.1109,-2.1109,-2.1109,-2.1109,-2.1109,-2.1109,-2.1109,-2.1109,-2.1109,-2.1109,-2.1109,-2.1109,-2.1109,-2.1109,-2.1109,-2.1109,-2.1109,-2.1109,-2.1109,-2.1109,-2.1109,-2.1109,-2.1109,-2.1109,-2.1109,-2.1109,-2.1109,-2.1109,-2.1109,-2.1109,-2.1109,-2.1109,-2.1109,-2.1109,-2.1109,-2.1109,-2.1122,-2.1136,-2.1683,-2.1997,-2.2017,-2.2572,-2.2928,-2.2928,-2.2928,-2.2928,-2.2941,-2.318,-2.3487,-0.9933,-1.1361,-1.2702,-1.3241,-1.4703,-1.5875,-1.5356,-1.5565,-1.6059,-1.6737,-1.7012,-1.7181,-1.7482,-1.8686,-2.0362,-2.2475,-2.3171,-2.41,-2.6282,-2.5749,-2.5322,-2.5924,-2.5436,-2.5314,-2.5915,-2.6349,-2.6841,-2.7443,-2.8486,-2.9039,-2.9039,-2.9039,-2.8545,-2.7503,-2.7503,-2.7013,-2.5976,-2.5976,-2.5367,-2.4155,-2.4155,-2.4155,-2.4155,-2.477,-2.5077,-2.5138,-2.5741,-2.568,-2.5077,-2.5077,-2.4108,-2.2529,-2.1481,-2.1109,-2.1109,-2.1109,-2.1109,-2.1109,-2.1109,-2.1109,-2.1109,-2.1109,-2.1109,-2.1109,-2.1109,-2.1109,-2.1109,-2.1109,-2.1109,-2.1109,-2.1109,-2.1109,-2.1109,-2.1109,-2.1109,-2.1109,-2.1109,-2.1109,-2.1109,-2.1109,-2.1109,-2.1109,-2.1109,-2.1109,-2.1109,-2.1109,-2.1109,-2.1109,-2.1109,-2.1109,-2.1109,-2.1109,-2.1109,-2.1109,-2.1109,-2.1109,-2.1109,-2.1109,-2.1109,-2.1109,-2.1109,-2.1677,-2.1984,-2.1984,-2.2565,-2.2928,-2.2928,-2.2928,-2.2928,-2.2941,-2.318,-2.3387,-1.0625,-1.228,-1.3899,-1.4204,-1.6054,-1.7654,-1.7061,-1.7474,-1.8039,-1.8254,-1.8804,-1.9124,-1.8874,-2.033,-2.2253,0.0,-2.5086,-2.6109,-2.8116,-2.7443,-2.6953,-2.7503,-2.7073,-2.6953,-2.7512,-2.8051,-2.8605,-2.9157,-3.0274,-3.0889,-3.0889,-3.0889,-3.0392,-2.9226,-2.9216,-2.8673,-2.7572,-2.7572,-2.7572,-2.7572,-2.7572,-2.7022,-2.6037,-2.653,-2.6772,-2.6772,-2.7323,-2.7263,-2.6772,-2.6772,-2.5802,-2.4232,-2.3069,-2.2632,-2.2632,-2.2632,-2.2334,-2.1971,-2.2452,-2.1964,-2.1172,-2.1727,-2.1538,-2.1109,-2.1109,-2.1109,-2.1109,-2.1109,-2.1109,-2.1109,-2.1109,-2.1109,-2.1109,-2.1109,-2.1109,-2.1109,-2.1109,-2.1109,-2.1109,-2.1109,-2.1109,-2.1109,-2.1109,-2.1109,-2.1109,-2.1109,-2.1109,-2.1109,-2.1109,-2.1109,-2.1109,-2.1109,-2.1109,-2.1109,-2.1109,-2.1109,-2.1109,-2.1109,-2.1109,-2.1109,-2.1109,-2.1583,-2.1891,-2.1984,-2.2472,-2.2772,-2.2928,-2.2928,-2.2928,-2.2934,-2.308,-2.3233,-1.2932,-1.405,-1.5195,-1.6328,-1.7357,-1.8446,-1.9987,-2.0559,-2.0794,-2.0765,-2.1786,-2.2322,-2.0986,-2.2234,-2.3698,-2.4421,-2.5152,-2.6287,-2.8185,-2.8417,-2.9039,-3.0704,-2.9403,-2.9098,-3.0762,-2.9403,-2.9098,-3.0762,-3.0889,-3.0889,-3.0889,-3.0889,-3.0889,-3.0889,-3.0889,-3.0889,-3.0889,-3.0889,-3.0889,-3.0889,-3.0889,-2.9226,-2.6098,-2.7683,-2.8417,-2.8545,-3.0206,-2.9962,-2.8417,-2.8417,-2.7443,-2.6037,-2.5976,-2.5976,-2.5976,-2.5976,-2.5016,-2.3876,-2.5436,-2.3854,-2.1418,-2.3084,-2.2529,-2.1172,-2.1172,-2.1172,-2.1109,-2.1109,-2.1109,-2.1109,-2.1109,-2.1109,-2.1109,-2.1109,-2.1109,-2.1109,-2.1109,-2.1109,-2.1109,-2.1109,-2.1109,-2.1109,-2.1109,-2.1109,-2.1109,-2.1109,-2.1109,-2.1109,-2.1109,-2.1109,-2.1109,-2.1109,-2.1109,-2.1109,-2.1109,-2.1109,-2.1109,-2.1109,-2.1109,-2.1109,-2.1109,-2.1396,-2.1755,-2.1977,-2.2271,-2.2565,-2.2928,-2.2928,-2.2928,-2.2928,-2.2928,-2.3026,-1.2581,-1.4539,-1.6519,-1.7101,-1.9457,-2.1629,-2.1442,-2.167,-2.2064,-2.2762,-2.3029,-2.3074,-2.2695,-2.4144,-2.5617,-2.6122,-2.766,-2.916,-3.0022,-3.0147,-3.0333,-3.083,-3.046,-3.0333,-3.083,-3.046,-3.0333,-3.083,-3.0889,-3.0889,-3.0889,-3.0889,-3.0889,-3.0889,-3.0889,-3.0889,-3.0889,-3.0889,-3.0889,-3.0889,-3.0889,-3.0401,-2.9471,-2.9962,-3.0147,-3.0206,-3.0704,-3.0635,-3.0089,-2.8911,-2.811,-2.7563,-2.647,-2.5976,-2.5976,-2.5976,-2.568,-2.5375,-2.5855,-2.5375,-2.4648,-2.5138,-2.4947,-2.4517,-2.4517,-2.3737,-2.2834,-2.2834,-2.2034,-2.1109,-2.1109,-2.1109,-2.1109,-2.1109,-2.1109,-2.1109,-2.1109,-2.1109,-2.1109,-2.1109,-2.1109,-2.1109,-2.1109,-2.1109,-2.1109,-2.1109,-2.1109,-2.1109,-2.1109,-2.1109,-2.1109,-2.1109,-2.1109,-2.1109,-2.1109,-2.1109,-2.1109,-2.1109,-2.1109,-2.1109,-2.1109,-2.1396,-2.1755,-2.1977,-2.2271,-2.2565,-2.2928,-2.2928,-2.2928,-2.2928,-2.2928,-2.2913,-1.487,-1.6686,-1.8396,-1.9453,-2.1451,-2.3268,-2.3786,-2.3738,-2.3823,-2.4538,-2.4918,-2.4977,-2.4576,-2.5901,0.0,-2.7892,-2.9229,-3.0361,-3.083,-3.0889,-3.0889,-3.0889,-3.0889,-3.0889,-3.0889,-3.0889,-3.0889,-3.0889,-3.0889,-3.0889,-3.0889,-3.0889,-3.0889,-3.0889,-3.0889,-3.0889,-3.0889,-3.0889,-3.0889,-3.0889,-3.0889,-3.0889,-3.0889,-3.0889,-3.0889,-3.0889,-3.0889,-3.0889,-3.083,-2.9835,-2.9403,-2.9285,-2.8307,-2.794,-2.794,-2.794,-2.7512,-2.7073,-2.7692,-2.7082,-2.6098,-2.6772,-2.6522,-2.5976,-2.5976,-2.5322,-2.4532,-2.4532,-2.3861,-2.2882,-2.2278,-2.2097,-2.1915,-2.1229,-2.1109,-2.1109,-2.1109,-2.1109,-2.1109,-2.1109,-2.1109,-2.1109,-2.1109,-2.1109,-2.1109,-2.1109,-2.1109,-2.1109,-2.1109,-2.1109,-2.1109,-2.1109,-2.1109,-2.1109,-2.1109,-2.1109,-2.1109,-2.1109,-2.1109,-2.1109,-2.1109,-2.1283,-2.1516,-2.181,-2.2098,-2.2392,-2.2686,-2.2874,-2.2928,-2.2928,-2.2928,-2.2928,-1.834,-1.9443,-2.0391,-2.2545,-2.3247,-2.4007,-2.6416,-2.6333,-2.5888,-2.6236,-2.71,-2.7453,-2.648,-2.7422,-2.8603,-2.9385,-2.9863,-3.0293,-3.0713,-3.0771,-3.0791,-3.082,-3.083,-3.084,-3.0889,-3.0889,-3.0889,-3.0889,-3.0889,-3.0889,-3.0889,-3.0889,-3.0889,-3.0889,-3.0889,-3.0889,-3.0889,-3.0889,-3.0889,-3.0889,-3.0889,-3.0889,-3.0889,-3.0889,-3.0889,-3.0889,-3.0889,-3.0889,-3.0889,-3.0889,-3.0889,-3.0889,-3.0889,-3.0889,-3.0889,-3.0889,-2.9962,-2.8852,-3.0392,-2.892,-2.6712,-2.8179,-2.7623,-2.647,-2.647,-2.6349,-2.6219,-2.6219,-2.6098,-2.568,-2.4178,-2.3814,-2.3442,-2.1908,-2.1292,-2.1109,-2.1109,-2.1109,-2.1109,-2.1109,-2.1109,-2.1109,-2.1109,-2.1109,-2.1109,-2.1109,-2.1109,-2.1109,-2.1109,-2.1109,-2.1109,-2.1109,-2.1109,-2.1109,-2.1109,-2.1109,-2.1109,-2.1109,-2.1109,-2.1109,-2.1109,-2.1109,-2.1249,-2.1608,-2.181,-2.2104,-2.2418,-2.2692,-2.2839,-2.2928,-2.2928,-2.2928,-1.6889,-1.833,-2.0019,-2.2477,-2.4424,-2.584,-2.6396,-2.6894,-2.7343,-2.7756,-2.799,-2.8077,-2.7877,-2.8329,-2.8848,-2.9033,-2.9424,-2.9736,-2.99,-2.9853,-2.998,-3.0303,-3.0342,-3.0488,-3.0859,-3.0889,-3.0889,-3.0889,-3.0889,-3.0889,-3.0889,-3.0889,-3.0889,-3.0889,-3.0889,-3.0889,-3.0889,-3.0889,-3.0889,-3.0889,-3.0889,-3.0889,-3.0889,-3.0889,-3.0889,-3.0889,-3.0889,-3.0889,-3.0889,-3.0889,-3.0889,-3.0889,-3.0889,-3.0889,-3.0889,-3.0889,-3.0645,-3.0392,-3.0772,-3.046,-2.9903,-3.0274,-3.0147,-2.9844,-2.9844,-2.892,-2.7871,-2.7871,-2.6953,-2.5915,-2.5558,-2.5497,-2.5375,-2.5008,-2.2999,-2.1109,-2.1109,-2.1109,-2.1109,-2.1109,-2.1109,-2.1109,-2.1109,-2.1109,-2.1109,-2.1109,-2.1109,-2.1109,-2.1109,-2.1109,-2.1109,-2.1109,-2.1109,-2.1109,-2.1109,-2.1109,-2.1109,-2.1109,-2.1109,-2.1109,-2.1109,-2.1109,-2.1249,-2.1608,-2.1681,-2.1897,-2.2418,-2.2478,-2.2632,-2.2928,-2.2928,-2.2928,-1.7383,-1.876,-2.0254,-2.3013,-2.5078,-2.6387,-2.6387,-2.6894,-2.7412,-2.7637,-2.8008,-2.8291,-2.8291,-2.8467,-2.8682,-2.8887,-2.9111,-2.9336,-2.9597,-2.9626,-2.9704,-2.9873,-2.9893,-2.999,-3.0234,-3.0264,-3.0264,-3.0264,-3.0264,-3.0264,-3.0264,-3.0449,-3.0557,-3.0557,-3.0771,-3.0889,-3.0889,-3.0889,-3.0889,-3.0889,-3.0889,-3.0889,-3.0889,-3.0889,-3.0889,-3.0889,-3.0889,-3.0889,-3.0889,-3.0889,-3.0889,-3.0889,-3.0889,-3.0889,-3.0889,-3.0889,-3.0889,-3.0889,-3.0889,-3.0889,-3.0889,-3.0889,-3.0889,-3.0889,-3.0889,-3.0274,-2.9589,-2.9589,-2.8979,-2.8179,-2.7383,-2.7134,-2.6953,-2.6158,-2.4701,-2.3427,-2.3427,-2.3427,-2.3427,-2.3427,-2.3427,-2.3427,-2.3427,-2.2827,-2.2034,-2.1235,-2.1109,-2.1109,-2.1109,-2.1109,-2.1109,-2.1109,-2.1109,-2.1109,-2.1109,-2.1109,-2.1109,-2.1109,-2.1109,-2.1109,-2.1109,-2.1109,-2.1182,-2.1336,-2.1541,-2.1769,-2.2004,-2.313,-2.3813,-2.3976,-2.4987,-2.4993,-1.79,-1.9365,-2.0801,-2.3516,-2.5185,-2.6162,-2.6162,-2.6543,-2.6904,-2.6904,-2.7588,-2.8184,-2.8184,-2.8242,-2.8408,-2.875,-2.8809,-2.8935,-2.9297,-2.9411,-2.9375,-2.9443,-2.9453,-2.9482,-2.956,-2.9626,-2.9626,-2.9626,-2.9626,-2.9626,-2.9626,-2.9902,-3.0088,-3.0088,-3.0459,-3.0664,-3.0664,-3.0664,-3.0664,-3.0664,-3.0732,-3.081,-3.0889,-3.0889,-3.0889,-3.0889,-3.0889,-3.0889,-3.0889,-3.0889,-3.0889,-3.0889,-3.0889,-3.0889,-3.0889,-3.0889,-3.0889,-3.0889,-3.0889,-3.0889,-3.0889,-3.0889,-3.0889,-3.0889,-3.0889,-3.0889,-3.0889,-3.0889,-3.0889,-3.0577,-2.9216,-2.8852,-2.8486,-2.7142,-2.6832,-2.6712,-2.6106,-2.5976,-2.5976,-2.5976,-2.5976,-2.5976,-2.5976,-2.4901,-2.3566,-2.2146,-2.1964,-2.1964,-2.1964,-2.1964,-2.1964,-2.1964,-2.1727,-2.1538,-2.1538,-2.1538,-2.1538,-2.1538,-2.1783,-2.1964,-2.1964,-2.1964,-2.1964,-2.1964,-2.1974,-2.194,-2.1995,-2.4209,-2.537,-2.5558,-2.7277,-2.7314,-1.5615,-1.8403,-2.1385,-2.2949,-2.4343,-2.5292,-2.5292,-2.5879,-2.6475,-2.6475,-2.7148,-2.7806,-2.7806,-2.8047,-2.831,-2.8369,-2.8379,-2.8398,-2.8457,-2.8457,-2.8594,-2.8965,-2.9004,-2.915,-2.9531,-2.9626,-2.9626,-2.9626,-2.9626,-2.9626,-2.9626,-2.9675,-2.9658,-2.9658,-2.9717,-2.9746,-2.9746,-2.9746,-2.9746,-2.9802,-3.0117,-3.0508,-3.0889,-3.0889,-3.0889,-3.0889,-3.0889,-3.0889,-3.0889,-3.0889,-3.0889,-3.0889,-3.0889,-3.0889,-3.0889,-3.0889,-3.0889,-3.0889,-3.0889,-3.0889,-3.0889,-3.0889,-3.0889,-3.0889,-3.0889,-3.0889,-3.0889,-3.0889,-3.0889,-3.083,-3.0635,-3.0587,-3.0518,-3.0274,-3.0274,-2.9471,-2.6591,-2.5976,-2.5976,-2.5976,-2.5976,-2.5976,-2.5976,-2.5802,-2.5611,-2.5367,-2.5375,-2.5375,-2.5375,-2.5375,-2.5375,-2.5375,-2.4108,-2.327,-2.327,-2.327,-2.327,-2.327,-2.4586,-2.5375,-2.5375,-2.5375,-2.5375,-2.5375,-2.4038,-2.347,-2.3679,-2.5368,-2.6549,-2.7174,-2.7482,-2.7671,-1.656,-1.9004,-2.1289,-2.3076,-2.4111,-2.4766,-2.5057,-2.5419,-2.5723,-2.5967,-2.6514,-2.7021,-2.7256,-2.7451,-2.7656,-2.79,-2.7939,-2.8027,-2.8262,-2.8291,-2.8359,-2.8545,-2.8564,-2.8643,-2.8838,-2.8857,-2.8857,-2.8857,-2.8857,-2.8857,-2.8857,-2.9082,-2.9209,-2.9209,-2.9443,-2.9626,-2.9626,-2.9626,-2.9626,-2.9626,-2.9756,-2.9951,-3.0146,-3.0146,-3.042,-3.0889,-3.0889,-3.0889,-3.0889,-3.0889,-3.0889,-3.0889,-3.0889,-3.0889,-3.0889,-3.0889,-3.0889,-3.0889,-3.0889,-3.0889,-3.0889,-3.0889,-3.0889,-3.0889,-3.0889,-3.0889,-3.0889,-3.0889,-3.0889,-3.0889,-3.0889,-3.0889,-3.0889,-3.0889,-3.0889,-3.0518,-2.9048,-2.8733,-2.8733,-2.8733,-2.8733,-2.8426,-2.7503,-2.7314,-2.7013,-2.6158,-2.5976,-2.5976,-2.5976,-2.5976,-2.5976,-2.5976,-2.5383,-2.4955,-2.4955,-2.4955,-2.4955,-2.4955,-2.5619,-2.5976,-2.5976,-2.5976,-2.5976,-2.5976,-2.5322,-2.4972,-2.5122,-2.6985,-2.806,-2.8407,-2.9583,-2.9717,-1.6843,-1.8603,-2.0107,-2.2266,-2.3379,-2.4072,-2.4619,-2.4824,-2.5,-2.5332,-2.5752,-2.6143,-2.6465,-2.6787,-2.7119,-2.7451,-2.75,-2.7607,-2.792,-2.7969,-2.7969,-2.7969,-2.8066,-2.8135,-2.8135,-2.8232,-2.8291,-2.8291,-2.8291,-2.8291,-2.8291,-2.8584,-2.876,-2.876,-2.9072,-2.9248,-2.9248,-2.9248,-2.9297,-2.9404,-2.9404,-2.9463,-2.9626,-2.9626,-2.9932,-3.0566,-3.0664,-3.0781,-3.0889,-3.0889,-3.0889,-3.0889,-3.0889,-3.0889,-3.0889,-3.0889,-3.0889,-3.0889,-3.0889,-3.0889,-3.0889,-3.0889,-3.0889,-3.0889,-3.0889,-3.0889,-3.0889,-3.0889,-3.0889,-3.0889,-3.0889,-3.0889,-3.0889,-3.0889,-3.0889,-3.0889,-3.0889,-3.0889,-3.0889,-3.0889,-3.0889,-3.0518,-2.9226,-2.9039,-2.8605,-2.7452,-2.7263,-2.7263,-2.7263,-2.7263,-2.7263,-2.7263,-2.6832,-2.6591,-2.6591,-2.6591,-2.6591,-2.6591,-2.7013,-2.7263,-2.7263,-2.7263,-2.7263,-2.7263,-2.7263,-2.7013,-2.6591,-2.8595,-2.9605,-2.9767,-3.1283,-3.1354,-1.4637,-1.5937,-1.7408,-1.958,-2.1377,-2.2832,-2.3662,-2.417,-2.4453,-2.4482,-2.4834,-2.5184,-2.5213,-2.6182,-2.7021,-2.7041,-2.7051,-2.7051,-2.708,-2.708,-2.708,-2.708,-2.7441,-2.7748,-2.7748,-2.8057,-2.8291,-2.8291,-2.8291,-2.8291,-2.8291,-2.831,-2.833,-2.833,-2.834,-2.8359,-2.8359,-2.8359,-2.8564,-2.8955,-2.8955,-2.917,-2.9626,-2.9626,-2.959,-2.9658,-3.0059,-3.0488,-3.0889,-3.0889,-3.0889,-3.0889,-3.0889,-3.0889,-3.0889,-3.0889,-3.0889,-3.0889,-3.0889,-3.0889,-3.0889,-3.0889,-3.0889,-3.0889,-3.0889,-3.0889,-3.0889,-3.0889,-3.0889,-3.0889,-3.0889,-3.0889,-3.0889,-3.0889,-3.0889,-3.0889,-3.0889,-3.0889,-3.0889,-3.0889,-3.0889,-3.0889,-3.0762,-3.0772,-3.0762,-3.0645,-3.0645,-3.0645,-3.0645,-3.0645,-3.0645,-3.0645,-2.9216,-2.8298,-2.8298,-2.8298,-2.8298,-2.8298,-2.9776,-3.0645,-3.0645,-3.0645,-3.0645,-3.0645,-3.0645,-2.9844,-2.8298,-2.999,-3.1005,-3.1394,-3.1483,-3.1707,-1.4766,-1.5527,-1.6365,-1.852,-2.0185,-2.1494,-2.2373,-2.331,-2.4092,-2.4365,-2.4541,-2.4648,-2.4648,-2.5498,-2.6289,-2.6572,-2.6611,-2.6709,-2.6973,-2.7012,-2.7012,-2.7012,-2.7148,-2.7246,-2.7246,-2.7383,-2.7588,-2.7871,-2.7891,-2.8008,-2.8281,-2.8291,-2.8291,-2.8291,-2.8291,-2.8291,-2.8291,-2.8291,-2.8369,-2.8516,-2.8516,-2.8594,-2.875,-2.875,-2.8896,-2.916,-2.9307,-2.9629,-3.0039,-3.0039,-3.0039,-3.0039,-3.0039,-3.0205,-3.0449,-3.0449,-3.0635,-3.0889,-3.0889,-3.0889,-3.0889,-3.0889,-3.0889,-3.0889,-3.0889,-3.0889,-3.0889,-3.0889,-3.0889,-3.0889,-3.0889,-3.0889,-3.0889,-3.0889,-3.0889,-3.0889,-3.0889,-3.0889,-3.0889,-3.0889,-3.0889,-3.0889,-3.0889,-3.0889,-3.0889,-3.0889,-3.0889,-3.0889,-3.0889,-3.0889,-3.0889,-3.0889,-3.0333,-3.002,-3.002,-3.002,-3.002,-3.002,-3.0587,-3.0889,-3.0889,-3.0889,-3.0889,-3.0889,-3.0889,-3.0577,-3.002,-3.0587,-3.0967,-3.1113,-3.1113,-3.1201,-1.4258,-1.4766,-1.5469,-1.7676,-1.8867,-1.995,-2.1523,-2.2432,-2.3096,-2.3662,-2.4004,-2.4209,-2.4209,-2.4805,-2.5439,-2.5879,-2.5947,-2.6094,-2.6523,-2.6582,-2.6582,-2.6582,-2.6719,-2.6807,-2.6807,-2.6934,-2.7139,-2.7422,-2.7451,0.0,-2.7851,-2.7861,-2.793,-2.8076,-2.8223,-2.8291,-2.8291,-2.8291,-2.8291,-2.8291,-2.8291,-2.8291,-2.8291,-2.8291,-2.8447,-2.8711,-2.8711,-2.9033,-2.9626,-2.9626,-2.9626,-2.9626,-2.9626,-2.9736,-2.999,-2.999,-3.0185,-3.0449,-3.0449,-3.0537,-3.0664,-3.0664,-3.0762,-3.0889,-3.0889,-3.0889,-3.0889,-3.0889,-3.0889,-3.0889,-3.0889,-3.0889,-3.0889,-3.0889,-3.0889,-3.0889,-3.0889,-3.0889,-3.0889,-3.0889,-3.0889,-3.0889,-3.0889,-3.0889,-3.0889,-3.0889,-3.0889,-3.0889,-3.0889,-3.0889,-3.0889,-3.0889,-3.0889,-3.0889,-3.0889,-3.0889,-3.0889,-3.0889,-3.0889,-3.0889,-3.0889,-3.0889,-3.0889,-3.0889,-3.0889,-3.0889,-3.0889,-3.0889,-3.0889,-3.0889,-3.0889,-3.0889,0.0,0.0,0.0,-1.6738,-1.7295,-1.8096,-2.1055,-2.1435,-2.1366,-2.2295,-2.3135,-2.3721,-2.3769,-2.4102,-2.4521,-2.5008,-2.5086,-2.5205,-2.5586,-2.5645,-2.5654,-2.5664,-2.6094,-2.6357,-2.6367,-2.6738,-2.6982,-2.6992,-2.6992,-2.7002,-2.7012,-2.7012,-2.7207,-2.7679,-2.8057,-2.8271,-2.8271,-2.8281,-2.8291,-2.8291,-2.8291,-2.8291,-2.8291,-2.8291,-2.8291,-2.8291,-2.8291,-2.876,-2.9531,-2.9531,-2.9531,-2.9531,-2.9531,-2.9597,-2.9551,-2.9551,-2.9616,-2.9626,-2.9626,-2.9834,-3.0176,-3.0176,-3.0488,-3.0869,-3.0869,-3.0879,-3.0889,-3.0889,-3.0889,-3.0889,-3.0889,-3.0889,-3.0889,-3.0889,-3.0889,-3.0889,-3.0889,-3.0889,-3.0889,-3.0889,-3.0889,-3.0889,-3.0889,-3.0889,-3.0889,-3.0889,-3.0889,-3.0889,-3.0889,-3.0889,-3.0889,-3.0889,-3.0889,-3.0889,-3.0889,-3.0889,-3.0889,-3.0889,-3.0889,-3.0889,-3.0889,-3.0889,-3.0889,-3.0889,-3.0889,-3.0889,-3.0889,-3.0889,-3.0889,-3.0889,-3.0889,-3.0889,-1.2983,0.0,0.0,0.0,0.0,0.0,0.0,0.0,-1.9748,-2.1239,-2.1736,-2.2185,-2.3101,-2.3364,-2.3588,-2.4072,-2.4394,-2.4639,-2.4766,-2.4738,-2.4902,-2.5215,-2.5361,-2.5557,-2.5889,-2.5976,-2.6221,0.0,-2.6562,-2.6699,-2.6992,-2.7012,-2.707,-2.7197,-2.7617,-2.7894,-2.7894,-2.8135,-2.8291,-2.8291,-2.8291,-2.8291,-2.8291,-2.8291,-2.8291,-2.8291,-2.8291,-2.8428,-2.8643,-2.8643,-2.8643,-2.8643,-2.8643,-2.8828,-2.9092,-2.9092,-2.9297,-2.9626,-2.9626,-2.9648,-2.9746,-2.9746,-3.0039,-3.0391,-3.0391,-3.0625,-3.0889,-3.0889,-3.0889,-3.0889,-3.0889,-3.0889,-3.0889,-3.0889,-3.0889,-3.0889,-3.0889,-3.0889,-3.0889,-3.0889,-3.0889,-3.0889,-3.0889,-3.0889,-3.0889,-3.0889,-3.0889,-3.0889,-3.0889,-3.0889,-3.0889,-3.0889,-3.0889,-3.0889,-3.0889,-3.0889,-3.0889,-3.0889,-3.0889,-3.0889,-3.0889,-3.0889,-3.0889,-3.0889,-3.0889,-3.0889,-3.0889,-3.0889,-3.0889,-3.0889,-3.0889,-3.0889,-1.3525,-1.3721,-1.4131,-1.4482,0.0,0.0,-1.7126,-1.7798,-1.8603,0.0,-2.0937,-2.1424,-2.2165,-2.2594,-2.2959,-2.3213,-2.3613,-2.3958,-2.4365,-2.4414,-2.4512,-2.4766,-2.4795,-2.4971,-2.541,-2.5459,-2.5644,-2.6084,-2.6113,-2.6221,-2.6475,-2.665,-2.6758,-2.6758,-2.7168,-2.7393,-2.7393,-2.7812,-2.8027,-2.8027,-2.8203,-2.8291,-2.8291,-2.8291,-2.8291,-2.8291,-2.8291,-2.8291,-2.8291,-2.8291,-2.8291,-2.8291,-2.8291,-2.8437,-2.8662,-2.8662,-2.8818,-2.9033,-2.9033,-2.915,-2.9297,-2.9297,-2.959,-2.9932,-2.9932,-3.0127,-3.0342,-3.0342,-3.0469,-3.0644,-3.084,-3.0889,-3.0889,-3.0889,-3.0889,-3.0889,-3.0889,-3.0889,-3.0889,-3.0889,-3.0889,-3.0889,-3.0889,-3.0889,-3.0889,-3.0889,-3.0889,-3.0889,-3.0889,-3.0889,-3.0889,-3.0889,-3.0889,-3.0889,-3.0889,-3.0889,-3.0889,-3.0889,-3.0889,-3.0889,-3.0889,-3.0889,-3.0889,-3.0889,-3.0889,-3.0889,-3.0889,-3.0889,-3.0889,-3.0889,-3.0889,-3.0889,-1.4455,-1.4668,0.0,-1.585,-1.5557,0.0,-1.7633,-1.7705,-1.7744,0.0,-2.0186,-2.081,-2.0956,-2.168,-2.2227,-2.2227,-2.2656,-2.3257,-2.4105,-2.4277,-2.4251,-2.4346,-2.4346,-2.4521,-2.4998,-2.5047,-2.5156,-2.5508,-2.5586,-2.5615,-2.5615,-2.6074,-2.6318,-2.6318,-2.6728,-2.6943,-2.6943,-2.7373,-2.7598,-2.765,-2.7969,-2.8154,-2.8154,-2.8203,-2.8223,-2.8223,-2.8271,-2.8291,-2.8291,-2.8291,-2.8291,-2.8291,-2.8291,-2.8291,-2.8291,-2.8441,-2.8548,-2.8548,-2.8698,-2.8999,-2.9263,-2.9263,-2.9515,-2.977,-2.977,-2.9689,-2.9626,-2.9626,-2.9873,-3.0293,-3.0703,-3.085,-3.0889,-3.0889,-3.0889,-3.0889,-3.0889,-3.0889,-3.0889,-3.0889,-3.0889,-3.0889,-3.0889,-3.0889,-3.0889,-3.0889,-3.0889,-3.0889,-3.0889,-3.0889,-3.0889,-3.0889,-3.0889,-3.0889,-3.0889,-3.0889,-3.0889,-3.0889,-3.0889,-3.0889,-3.0889,-3.0889,-3.0889,-3.0889,-3.0889,-3.0889,-3.0889,-3.0889,-3.0889,-3.0889,-3.0889,-3.0889,-1.5938,-1.6006,-1.619,-1.5674,0.0,0.0,-1.5264,-1.5937,-1.6921,0.0,-1.7764,-1.8447,-1.9482,-2.0078,-2.042,-2.042,-2.1387,-2.2422,-2.3227,-2.3344,-2.3471,-2.3867,-2.3906,-2.4072,-2.4502,-2.4541,-2.458,-2.4668,-2.5,-2.5195,-2.5195,-2.5615,-2.5859,-2.5859,-2.6289,-2.6514,-2.6514,-2.6934,-2.7139,-2.7148,-2.7226,-2.7266,-2.7275,-2.7627,-2.7836,-2.7865,-2.8144,-2.8291,-2.8291,-2.8291,-2.8291,-2.8291,-2.8291,-2.8291,-2.8451,-2.9503,-2.9911,-3.0068,-3.1122,-3.1586,-3.1662,-3.1662,-3.122,-3.0739,-3.0739,-3.0192,-2.9626,-2.9626,-2.9873,-3.0215,-3.0303,-3.0605,-3.0889,-3.0889,-3.0889,-3.0889,-3.0889,-3.0889,-3.0889,-3.0889,-3.0889,-3.0889,-3.0889,-3.0889,-3.0889,-3.0889,-3.0889,-3.0889,-3.0889,-3.0889,-3.0889,-3.0889,-3.0889,-3.0889,-3.0889,-3.0889,-3.0889,-3.0889,-3.0889,-3.0889,-3.0889,-3.0889,-3.0889,-3.0889,-3.0889,-3.0889,-3.0889,-3.0889,-3.0889,-3.0889,-3.0889,-3.0889,-1.6689,-1.6875,-1.7233,-1.6816,0.0,0.0,0.0,-1.6356,-1.6641,-1.7477,-1.7321,-1.7451,-1.873,-1.9131,-1.9346,-1.9561,-2.0703,-2.1631,-2.1826,-2.2555,-2.3179,-2.3437,-2.3467,-2.3633,-2.4062,-2.4102,-2.4189,-2.4394,-2.4619,-2.4834,-2.5106,-2.5283,-2.5508,-2.5684,-2.5947,-2.6064,-2.6064,-2.6484,-2.6699,-2.6709,-2.6914,-2.7012,-2.7021,-2.7236,-2.7344,-2.7363,-2.7793,-2.7978,-2.8041,-2.8968,-2.9303,-2.9303,-2.9303,-2.9713,-3.0369,-3.103,-3.1276,-3.1378,-3.2079,-3.228,-3.228,-3.228,-3.1991,-3.1633,-3.1633,-3.0821,-2.986,-2.94,-2.9394,-2.9609,-2.9834,-3.0215,-3.0547,-3.0547,-3.0723,-3.0889,-3.0889,-3.0889,-3.0889,-3.0889,-3.0889,-3.0889,-3.0889,-3.0889,-3.0889,-3.0889,-3.0889,-3.0889,-3.0889,-3.0889,-3.0889,-3.0889,-3.0889,-3.0889,-3.0889,-3.0889,-3.0889,-3.0889,-3.0889,-3.0889,-3.0889,-3.0889,-3.0889,-3.0889,-3.0889,-3.0889,-3.0889,-3.0889,-3.0889,-3.0889,-3.0889,-3.0889,0.0,0.0,0.0,0.0,0.0,-1.8125,0.0,0.0,0.0,-1.792,-1.736,0.0,0.0,0.0,0.0,0.0,0.0,0.0,0.0,-2.1484,0.0,-2.2594,-2.275,-2.3037,-2.3389,-2.335,-2.3545,-2.4131,-2.4023,-2.4189,-2.4832,-2.5028,-2.5234,-2.5547,-2.5645,-2.5693,-2.5693,-2.6084,-2.6269,-2.6269,-2.6602,-2.6768,-2.6768,-2.6855,-2.6986,-2.7249,-2.7695,-2.8028,-2.8409,-2.99,-3.0685,-3.0901,-3.0741,-3.1327,-3.2331,-3.2593,-3.2694,-3.2744,-3.2994,-3.3082,-3.3082,-3.3082,-3.2883,-3.2632,-3.2381,-3.1531,-3.0547,-2.9781,-2.9425,-2.9367,-2.9778,-2.998,-3.0098,-3.0176,-3.0488,-3.0781,-3.0869,-3.0889,-3.0889,-3.0889,-3.0889,-3.0889,-3.0889,-3.0889,-3.0889,-3.0889,-3.0889,-3.0889,-3.0889,-3.0889,-3.0889,-3.0889,-3.0889,-3.0889,-3.0889,-3.0889,-3.0889,-3.0889,-3.0889,-3.0889,-3.0889,-3.0889,-3.0889,-3.0889,-3.0889,-3.0889,-3.0889,-3.0889,-3.0889,-3.0889,-3.0889,-3.0889,0.0,0.0,0.0,0.0,-1.998,0.0,0.0,0.0,-1.7935,-1.6662,0.0,0.0,0.0,0.0,0.0,0.0,0.0,0.0,-1.8359,-1.9443,-2.043,-2.085,-2.1553,-2.2051,-2.21,-2.1748,-2.197,-2.3149,-2.2598,-2.2685,-2.3867,-2.4705,-2.5135,-2.5184,-2.5527,-2.5693,-2.5693,-2.5732,-2.5762,-2.5762,-2.581,-2.583,-2.5849,-2.6289,-2.7072,-2.8074,-2.8481,-2.9303,-3.0405,-3.1097,-3.2075,-3.3058,-3.2363,-3.218,-3.2431,-3.3723,-3.4178,-3.4325,-3.5511,-3.5953,-3.5953,-3.5953,-3.5114,-3.392,-3.2694,-3.218,-3.2039,-3.1942,-3.1354,-3.0765,-3.0817,-3.0277,-2.9736,-3.0107,-3.0234,-3.0391,-3.0801,-3.0889,-3.0889,-3.0889,-3.0889,-3.0889,-3.0889,-3.0889,-3.0889,-3.0889,-3.0889,-3.0889,-3.0889,-3.0889,-3.0889,-3.0889,-3.0889,-3.0889,-3.0889,-3.0889,-3.0889,-3.0889,-3.0889,-3.0889,-3.0889,-3.0889,-3.0889,-3.0889,-3.0889,-3.0889,-3.0889,-3.0889,-3.0889,-3.0889,-3.0889,-3.0889,0.0,0.0,0.0,0.0,0.0,0.0,-1.8075,0.0,-1.7506,0.0,0.0,0.0,0.0,0.0,0.0,0.0,-1.7393,0.0,0.0,0.0,-1.8789,0.0,0.0,0.0,-2.1114,-2.1342,-2.175,-2.2376,-2.2237,-2.2497,-2.3403,-2.4039,-2.4607,-2.5096,-2.5254,-2.5478,-2.5693,-2.5693,-2.5693,-2.5693,-2.5693,-2.5693,-2.5742,-2.6677,-2.7366,-2.7893,-2.8999,-2.9818,-3.0376,-3.1695,-3.2534,-3.3125,-3.3839,-3.4378,-3.4751,-3.5355,-3.5571,-3.5619,-3.6216,-3.6405,-3.6405,-3.6405,-3.6013,-3.5319,-3.3909,-3.3514,-3.3353,-3.2543,-3.2031,-3.1579,-3.0821,-3.0489,-3.0241,-2.9571,-2.9648,-2.9883,-3.0078,-3.0312,-3.0488,-3.0488,-3.0703,-3.116,-3.2045,-3.1498,-3.0889,-3.0889,-3.0889,-3.1228,-3.2092,-3.1441,-3.1218,-3.2092,-3.1383,-3.0889,-3.0889,-3.1652,-3.2207,-3.2207,-3.2985,-3.3088,-3.2207,-3.2207,-3.1767,-3.0889,-3.0889,-3.0889,-3.0889,-3.0889,-3.1325,-3.215,-3.1276,-3.0889,-2.1108,0.0,0.0,0.0,0.0,0.0,0.0,0.0,0.0,0.0,0.0,0.0,0.0,0.0,0.0,0.0,0.0,-1.7063,0.0,-1.6436,0.0,0.0,0.0,0.0,0.0,-2.0416,-2.0853,-2.1652,-2.146,-2.1809,-2.2944,-2.3389,-2.4,-2.4744,-2.4998,-2.5225,-2.5557,-2.5993,-2.6062,-2.5693,-2.6062,-2.6062,-2.5732,-2.6658,-2.7447,-2.8154,-2.9311,-3.0201,-3.0939,-3.241,-3.3005,-3.3158,-3.4665,-3.5567,-3.5943,-3.6292,-3.6405,-3.6405,-3.6405,-3.6405,-3.6405,-3.6405,-3.6405,-3.6216,-3.5223,-3.4933,-3.4727,-3.3688,-3.3143,-3.2644,-3.1695,-3.1391,-3.1116,-3.0243,-3.0259,-3.0543,-3.0654,-3.0615,-3.0668,-3.105,-3.1208,-3.1748,-3.3215,-3.2401,-3.1662,-3.2055,-3.2102,-3.2483,-3.3575,-3.2758,-3.254,-3.3575,-3.2758,-3.2102,-3.2102,-3.3088,-3.3687,-3.3687,-3.4681,-3.4792,-3.3744,-3.3687,-3.3201,-3.2113,-3.2102,-3.2102,-3.2102,-3.2102,-3.2654,-3.3687,-3.2207,-3.172,0.0,0.0,0.0,-2.0222,0.0,0.0,0.0,0.0,-1.8325,0.0,0.0,0.0,0.0,0.0,0.0,0.0,0.0,0.0,0.0,0.0,0.0,0.0,0.0,0.0,0.0,-1.8247,-1.857,0.0,-1.9678,-1.9834,-2.2402,-2.2993,-2.3423,-2.3818,-2.4639,-2.5125,-2.5135,-2.6709,-2.6897,-2.5684,-2.6935,-2.6897,-2.5693,-2.5732,-2.7067,-2.9361,-2.9383,-3.0756,-3.3057,-3.3608,-3.3878,-3.3928,-3.4492,-3.4763,-3.4901,-3.5968,-3.6405,-3.6405,-3.6405,-3.6405,-3.6405,-3.6405,-3.6405,-3.6405,-3.6358,-3.6358,-3.631,-3.6298,-3.5319,-3.4337,-3.4276,-3.3266,-3.2375,-3.2752,-3.2886,-3.302,-3.3382,-3.2437,-3.192,-3.3239,-3.2879,-3.2772,-3.4117,-3.3644,-3.3519,-3.4958,-3.5189,-3.5189,-3.5233,-3.5189,-3.5189,-3.5233,-3.5189,-3.5189,-3.5189,-3.5178,-3.5245,-3.5245,-3.5288,-3.5288,-3.5245,-3.5245,-3.5233,-3.5189,-3.5189,-3.5189,-3.5189,-3.5189,-3.5178,-3.5178,-3.3744,-3.38,0.0,0.0,-2.5814,-2.2503,0.0,0.0,0.0,0.0,0.0,0.0,0.0,0.0,0.0,0.0,0.0,0.0,0.0,0.0,0.0,0.0,0.0,0.0,0.0,0.0,0.0,0.0,0.0,-1.9404,-1.9679,0.0,-2.2034,-2.25,-2.3057,-2.3769,-2.4072,-2.4538,-2.5106,-2.6449,-2.7098,-2.6993,-2.8179,-2.8132,-2.703,-2.8623,-2.935,-2.9453,-3.0226,-3.1557,-3.3038,-3.2391,-3.2609,-3.3407,-3.396,-3.4173,-3.4311,-3.5416,-3.5818,-3.5868,-3.6279,-3.6405,-3.6405,-3.6405,-3.6405,-3.6405,-3.6405,-3.6405,-3.6405,-3.6405,-3.6061,-3.5523,-3.4629,-3.403,-3.3499,-3.2707,-3.2538,-3.2582,-3.2688,-3.2627,-3.265,-3.3109,-3.3193,-3.3673,-3.5057,-3.5102,-3.4956,-3.5254,-3.5288,-3.5672,-3.6649,-3.589,-3.5672,-3.6649,-3.589,-3.5288,-3.5288,-3.6217,-3.7145,-3.8149,-3.8202,-3.7755,-3.6811,-3.6757,-3.6271,-3.53,-3.5288,-3.5288,-3.5288,-3.5288,-3.5781,-3.6757,-3.6259,-3.577,-2.6493,-2.7062,0.0,-2.399,-2.3256,0.0,-1.9321,0.0,0.0,0.0,0.0,0.0,0.0,0.0,0.0,0.0,0.0,0.0,0.0,-1.387,0.0,0.0,0.0,0.0,0.0,0.0,-1.7515,-1.8311,-1.8958,0.0,0.0,-2.217,-2.2928,-2.4395,-2.4391,-2.4621,-2.5181,-2.6718,-2.7448,-2.7384,-2.8732,-2.8993,-2.8272,-2.9852,-3.0361,-3.009,-3.0855,-3.1921,-3.3025,-3.2196,-3.2382,-3.3106,-3.347,-3.3608,-3.3746,-3.4806,-3.5332,-3.5583,-3.6169,-3.6405,-3.6405,-3.6405,-3.6405,-3.6405,-3.6405,-3.6405,-3.6405,-3.6405,-3.6405,-3.6216,-3.5319,-3.5126,-3.4872,-3.3995,-3.3737,-3.3737,-3.3737,-3.3608,-3.3648,-3.414,-3.418,-3.4629,-3.605,-3.647,-3.6516,-3.6285,-3.6273,-3.6661,-3.7835,-3.715,-3.7009,-3.8166,-3.7435,-3.6888,-3.6888,-3.7755,-3.8687,-3.9633,-3.9697,-3.9245,-3.8295,-3.8295,-3.7861,-3.6876,-3.6888,-3.6888,-3.6888,-3.6888,-3.737,-3.8295,-3.8295,-3.7755]},{"header":{"parameterUnit":"m.s-1","parameterCategory":1,"la1":30.6,"la2":29.2853,"lo1":-89.7004,"lo2":-87.6739,"dy":0.0162,"dx":0.0183,"nx":112,"ny":82,"refTime":"2024-09-01T18:00:00:Z","depth":0,"parameterNumber":3,"parameterNumberName":"V-component_of_WINDS"},"data":[0.0,0.0,0.0,0.0,0.0,0.0,0.0,0.0,0.0,0.0,0.0,0.0,0.0,0.0,0.0,0.0,0.0,0.0,0.0,0.0,0.0,0.0,0.0,0.0,0.0,0.0,0.0,0.0,0.0,0.0,0.0,0.0,0.0,0.0,0.0,0.0,0.0,0.0,0.0,0.0,0.0,0.0,0.0,0.0,0.0,0.0,0.0,0.0,0.0,0.0,0.0,0.0,0.0,0.0,0.0,0.0,0.0,0.0,0.0,0.0,0.0,0.0,0.0,0.0,0.0,0.0,0.0,0.0,0.0,0.0,0.0,0.0,0.0,0.0,0.0,0.0,0.0,0.0,0.0,0.0,0.0,0.0,0.0,0.0,0.0,0.0,0.0,0.0,0.0,0.0,4.8442,5.2462,5.7627,6.0492,5.9762,5.9338,5.6453,5.0183,0.0,0.0,0.0,0.0,0.0,0.0,0.0,0.0,0.0,0.0,0.0,0.0,0.0,0.0,0.0,0.0,0.0,0.0,0.0,0.0,0.0,0.0,0.0,0.0,0.0,0.0,0.0,0.0,0.0,0.0,0.0,0.0,0.0,0.0,0.0,0.0,0.0,0.0,0.0,0.0,0.0,0.0,0.0,0.0,0.0,0.0,0.0,0.0,0.0,0.0,0.0,0.0,0.0,0.0,0.0,0.0,0.0,0.0,0.0,0.0,0.0,0.0,0.0,0.0,0.0,0.0,0.0,0.0,0.0,0.0,0.0,0.0,0.0,0.0,0.0,0.0,0.0,0.0,0.0,0.0,0.0,0.0,0.0,0.0,0.0,0.0,0.0,0.0,0.0,0.0,0.0,0.0,0.0,0.0,0.0,0.0,0.0,0.0,0.0,0.0,0.0,0.0,0.0,0.0,4.9577,5.6588,5.9415,6.0742,6.0608,5.8627,5.5692,5.1769,0.0,0.0,0.0,0.0,0.0,0.0,0.0,0.0,0.0,0.0,0.0,0.0,0.0,0.0,0.0,0.0,0.0,0.0,0.0,0.0,0.0,0.0,0.0,0.0,0.0,0.0,0.0,0.0,0.0,0.0,0.0,0.0,0.0,0.0,0.0,0.0,0.0,0.0,0.0,0.0,0.0,0.0,0.0,0.0,0.0,0.0,0.0,0.0,0.0,0.0,0.0,0.0,0.0,0.0,0.0,0.0,0.0,0.0,0.0,0.0,0.0,0.0,0.0,0.0,0.0,0.0,0.0,0.0,0.0,0.0,0.0,0.0,0.0,0.0,0.0,0.0,0.0,0.0,0.0,0.0,0.0,0.0,0.0,0.0,0.0,0.0,0.0,0.0,0.0,0.0,0.0,0.0,0.0,0.0,0.0,0.0,0.0,0.0,0.0,0.0,0.0,0.0,0.0,4.8471,5.2,5.828,6.005,6.08,6.08,5.8896,5.5857,5.1529,4.7625,0.0,0.0,0.0,0.0,0.0,0.0,0.0,0.0,0.0,0.0,0.0,0.0,0.0,0.0,0.0,0.0,0.0,0.0,0.0,0.0,0.0,0.0,0.0,0.0,0.0,0.0,0.0,0.0,0.0,0.0,0.0,0.0,0.0,0.0,0.0,0.0,0.0,0.0,0.0,0.0,0.0,0.0,0.0,0.0,0.0,0.0,0.0,0.0,0.0,0.0,0.0,0.0,0.0,0.0,0.0,0.0,0.0,0.0,0.0,0.0,0.0,0.0,0.0,0.0,0.0,0.0,0.0,0.0,0.0,0.0,0.0,0.0,0.0,0.0,0.0,0.0,0.0,0.0,0.0,0.0,0.0,0.0,0.0,0.0,0.0,0.0,0.0,0.0,0.0,0.0,0.0,0.0,0.0,0.0,0.0,0.0,0.0,0.0,0.0,0.0,0.0,0.0,5.2904,5.4808,5.9338,6.0396,6.08,6.08,5.8511,5.5184,5.0693,4.5817,0.0,0.0,0.0,0.0,0.0,0.0,0.0,0.0,0.0,0.0,0.0,0.0,0.0,0.0,0.0,0.0,0.0,0.0,0.0,0.0,0.0,0.0,0.0,0.0,0.0,0.0,0.0,0.0,0.0,0.0,0.0,0.0,0.0,0.0,0.0,0.0,0.0,0.0,0.0,0.0,0.0,0.0,0.0,0.0,0.0,0.0,0.0,0.0,0.0,0.0,0.0,0.0,0.0,0.0,0.0,0.0,0.0,0.0,0.0,0.0,0.0,0.0,0.0,0.0,0.0,0.0,0.0,0.0,0.0,0.0,0.0,0.0,0.0,0.0,0.0,0.0,0.0,0.0,0.0,0.0,0.0,0.0,0.0,0.0,0.0,0.0,0.0,0.0,0.0,0.0,0.0,0.0,0.0,0.0,0.0,0.0,0.0,0.0,0.0,0.0,0.0,0.0,5.426,5.7703,6.0416,6.0762,6.08,6.08,5.6357,5.2395,4.9663,4.3297,0.0,0.0,0.0,0.0,0.0,0.0,0.0,0.0,0.0,0.0,0.0,0.0,0.0,0.0,0.0,0.0,0.0,0.0,0.0,0.0,0.0,0.0,0.0,0.0,0.0,0.0,0.0,0.0,0.0,0.0,0.0,0.0,0.0,0.0,0.0,0.0,0.0,0.0,0.0,0.0,0.0,0.0,0.0,0.0,0.0,0.0,0.0,0.0,0.0,0.0,0.0,0.0,0.0,0.0,0.0,0.0,0.0,0.0,0.0,0.0,0.0,0.0,0.0,0.0,0.0,0.0,0.0,0.0,0.0,0.0,0.0,0.0,0.0,0.0,0.0,0.0,0.0,0.0,0.0,0.0,0.0,0.0,0.0,0.0,0.0,0.0,0.0,0.0,0.0,0.0,0.0,0.0,0.0,0.0,0.0,0.0,0.0,0.0,0.0,0.0,0.0,0.0,5.3472,5.6819,0.0,6.08,6.0569,6.0031,5.7261,5.3568,4.8894,0.0,0.0,0.0,0.0,0.0,0.0,0.0,0.0,0.0,0.0,0.0,0.0,0.0,0.0,0.0,0.0,0.0,0.0,0.0,0.0,0.0,0.0,0.0,0.0,0.0,0.0,0.0,0.0,0.0,0.0,0.0,0.0,0.0,0.0,0.0,0.0,0.0,0.0,0.0,0.0,0.0,0.0,0.0,0.0,0.0,0.0,0.0,0.0,0.0,0.0,0.0,0.0,0.0,0.0,0.0,0.0,0.0,0.0,0.0,0.0,0.0,0.0,0.0,0.0,0.0,0.0,0.0,0.0,0.0,0.0,0.0,0.0,0.0,0.0,0.0,0.0,0.0,0.0,0.0,0.0,0.0,0.0,0.0,0.0,0.0,0.0,0.0,0.0,0.0,0.0,0.0,0.0,0.0,0.0,0.0,0.0,0.0,0.0,0.0,0.0,0.0,0.0,4.9827,5.3626,5.7011,0.0,6.08,6.0454,5.9569,5.6973,5.3183,4.8048,0.0,0.0,0.0,0.0,0.0,0.0,0.0,0.0,0.0,0.0,0.0,0.0,0.0,0.0,0.0,0.0,0.0,0.0,0.0,0.0,0.0,0.0,0.0,0.0,0.0,0.0,0.0,0.0,0.0,0.0,0.0,0.0,0.0,0.0,0.0,0.0,0.0,0.0,0.0,0.0,0.0,0.0,0.0,0.0,0.0,0.0,0.0,0.0,0.0,0.0,0.0,0.0,0.0,0.0,0.0,0.0,0.0,0.0,0.0,0.0,0.0,0.0,0.0,0.0,0.0,0.0,0.0,0.0,0.0,0.0,0.0,0.0,0.0,0.0,0.0,0.0,0.0,0.0,0.0,0.0,0.0,0.0,0.0,0.0,0.0,0.0,0.0,0.0,0.0,0.0,0.0,0.0,0.0,0.0,0.0,0.0,0.0,0.0,0.0,0.0,0.0,0.0,5.0038,5.5145,5.8934,6.0608,6.08,6.0435,5.9569,5.4827,5.0481,0.0,0.0,0.0,0.0,0.0,0.0,0.0,0.0,0.0,0.0,0.0,0.0,0.0,0.0,0.0,0.0,0.0,0.0,0.0,0.0,0.0,0.0,0.0,0.0,0.0,0.0,0.0,0.0,0.0,0.0,0.0,0.0,0.0,0.0,0.0,0.0,0.0,0.0,0.0,0.0,0.0,0.0,0.0,0.0,0.0,0.0,0.0,0.0,0.0,0.0,0.0,0.0,0.0,0.0,0.0,0.0,0.0,0.0,0.0,0.0,0.0,0.0,0.0,0.0,0.0,0.0,0.0,0.0,0.0,0.0,0.0,0.0,0.0,0.0,0.0,0.0,0.0,0.0,0.0,0.0,0.0,0.0,0.0,0.0,0.0,0.0,0.0,0.0,0.0,0.0,0.0,0.0,0.0,0.0,0.0,0.0,0.0,0.0,0.0,0.0,0.0,0.0,0.0,5.0038,5.5145,5.8934,6.0608,6.08,6.0223,5.8781,5.5626,5.1529,4.6297,0.0,0.0,0.0,0.0,0.0,0.0,0.0,0.0,0.0,0.0,0.0,0.0,0.0,0.0,0.0,0.0,0.0,0.0,0.0,0.0,0.0,0.0,0.0,0.0,0.0,0.0,0.0,0.0,0.0,0.0,0.0,0.0,0.0,0.0,0.0,0.0,0.0,0.0,0.0,0.0,0.0,0.0,0.0,0.0,0.0,0.0,0.0,0.0,0.0,0.0,0.0,0.0,0.0,0.0,0.0,0.0,0.0,0.0,0.0,0.0,0.0,0.0,0.0,0.0,0.0,0.0,0.0,0.0,0.0,0.0,0.0,0.0,0.0,0.0,0.0,0.0,0.0,0.0,0.0,0.0,0.0,0.0,0.0,0.0,0.0,0.0,0.0,0.0,0.0,0.0,0.0,0.0,0.0,0.0,0.0,0.0,0.0,0.0,0.0,0.0,0.0,0.0,5.0038,5.5145,5.8934,6.0608,6.08,6.0127,5.8434,5.6261,5.2568,4.6951,0.0,0.0,0.0,0.0,0.0,0.0,0.0,0.0,0.0,0.0,0.0,0.0,0.0,0.0,0.0,0.0,0.0,0.0,0.0,0.0,0.0,0.0,0.0,0.0,0.0,0.0,0.0,0.0,0.0,0.0,0.0,0.0,0.0,0.0,0.0,0.0,0.0,0.0,0.0,0.0,0.0,0.0,0.0,0.0,0.0,0.0,0.0,0.0,0.0,0.0,0.0,0.0,0.0,0.0,0.0,0.0,0.0,0.0,0.0,0.0,0.0,0.0,0.0,0.0,0.0,0.0,0.0,0.0,0.0,0.0,0.0,0.0,0.0,0.0,0.0,0.0,0.0,0.0,0.0,0.0,0.0,0.0,0.0,0.0,0.0,0.0,0.0,0.0,0.0,0.0,0.0,0.0,0.0,0.0,0.0,0.0,0.0,0.0,0.0,0.0,0.0,0.0,5.0154,5.5184,5.8934,6.0608,6.0723,6.0031,5.8434,5.6626,5.3472,4.8529,0.0,0.0,0.0,0.0,0.0,0.0,0.0,0.0,0.0,0.0,0.0,0.0,0.0,0.0,0.0,0.0,0.0,0.0,0.0,0.0,0.0,0.0,0.0,0.0,0.0,0.0,0.0,0.0,0.0,0.0,0.0,0.0,0.0,0.0,0.0,0.0,0.0,0.0,0.0,0.0,0.0,0.0,0.0,0.0,0.0,0.0,0.0,0.0,0.0,0.0,0.0,0.0,0.0,0.0,0.0,0.0,0.0,0.0,0.0,0.0,3.6045,0.0,0.0,0.0,0.0,0.0,0.0,0.0,0.0,0.0,0.0,0.0,0.0,0.0,0.0,0.0,0.0,0.0,0.0,0.0,0.0,0.0,0.0,0.0,0.0,0.0,0.0,0.0,0.0,0.0,0.0,0.0,0.0,0.0,0.0,0.0,0.0,0.0,0.0,0.0,0.0,0.0,5.0914,5.5549,5.8934,6.0608,6.0185,5.9377,5.8377,5.6126,5.3145,4.9356,4.497,0.0,0.0,0.0,0.0,0.0,0.0,0.0,0.0,0.0,0.0,0.0,0.0,0.0,0.0,0.0,0.0,0.0,0.0,0.0,0.0,0.0,0.0,0.0,0.0,0.0,0.0,0.0,0.0,0.0,0.0,0.0,0.0,0.0,0.0,0.0,0.0,0.0,0.0,0.0,0.0,0.0,0.0,0.0,0.0,0.0,0.0,0.0,0.0,0.0,0.0,0.0,0.0,0.0,0.0,0.0,0.0,0.0,0.0,0.0,0.0,3.9366,0.0,0.0,0.0,0.0,0.0,0.0,0.0,0.0,0.0,0.0,0.0,0.0,0.0,0.0,0.0,0.0,0.0,0.0,0.0,0.0,0.0,0.0,0.0,0.0,0.0,0.0,0.0,0.0,0.0,0.0,0.0,0.0,0.0,0.0,0.0,0.0,0.0,0.0,0.0,0.0,5.1192,5.5654,5.8934,6.0608,6.0012,5.9165,5.8377,5.6319,5.3972,5.1395,4.7259,0.0,0.0,0.0,0.0,0.0,0.0,0.0,0.0,0.0,0.0,0.0,0.0,0.0,0.0,0.0,0.0,0.0,0.0,0.0,0.0,0.0,0.0,0.0,0.0,0.0,0.0,0.0,0.0,0.0,0.0,0.0,0.0,0.0,0.0,0.0,0.0,0.0,0.0,0.0,0.0,0.0,0.0,0.0,0.0,0.0,0.0,0.0,0.0,0.0,0.0,0.0,0.0,0.0,4.7567,4.8846,5.1558,5.0818,5.1347,5.2541,4.7453,4.5706,4.6249,4.2959,0.0,0.0,0.0,0.0,0.0,0.0,0.0,0.0,0.0,0.0,0.0,0.0,0.0,0.0,0.0,0.0,0.0,0.0,0.0,0.0,0.0,0.0,0.0,0.0,4.8808,4.8961,0.0,0.0,0.0,0.0,0.0,0.0,0.0,0.0,0.0,0.0,0.0,0.0,5.1742,5.6008,5.9144,6.0639,5.9896,5.9031,5.8357,5.6703,5.5049,5.353,5.001,4.6932,0.0,0.0,0.0,0.0,0.0,0.0,0.0,0.0,0.0,0.0,0.0,0.0,0.0,0.0,0.0,0.0,0.0,0.0,0.0,0.0,0.0,0.0,0.0,0.0,0.0,0.0,0.0,0.0,0.0,0.0,0.0,0.0,3.2646,3.5087,0.0,0.0,0.0,0.0,0.0,0.0,0.0,0.0,0.0,0.0,0.0,0.0,0.0,4.6501,4.8202,5.0529,5.1933,5.2395,5.3722,5.4587,5.503,5.4914,5.548,5.646,5.5631,0.0,4.9827,4.7144,0.0,0.0,0.0,0.0,0.0,0.0,0.0,0.0,0.0,0.0,0.0,0.0,0.0,0.0,0.0,0.0,0.0,0.0,0.0,0.0,0.0,0.0,5.241,5.2523,5.3385,5.3954,0.0,4.8344,4.3915,4.2544,4.0613,0.0,0.0,0.0,0.0,0.0,0.0,0.0,5.3777,5.7422,5.9901,6.0719,5.9396,5.8415,5.8319,5.6703,5.5299,5.4395,5.3106,5.1568,4.9769,4.5893,0.0,0.0,0.0,0.0,0.0,0.0,0.0,0.0,0.0,0.0,0.0,0.0,0.0,0.0,0.0,0.0,0.0,0.0,0.0,0.0,0.0,0.0,0.0,0.0,0.0,0.0,0.0,0.0,0.0,3.2917,3.6055,3.7168,3.7893,3.745,0.0,0.0,0.0,0.0,0.0,0.0,0.0,0.0,0.0,4.8651,5.0033,5.1522,5.3215,5.4818,5.609,5.7033,5.7769,5.8362,5.8839,5.8839,5.9087,5.9496,5.9496,5.8141,5.5652,5.211,4.9155,4.6651,0.0,0.0,0.0,0.0,4.4861,4.5477,4.6805,4.7363,0.0,4.514,0.0,0.0,0.0,0.0,0.0,0.0,0.0,0.0,0.0,0.0,5.5186,5.5677,5.6487,5.7147,5.7154,5.4504,5.1103,0.0,4.6459,4.4879,4.1498,0.0,0.0,0.0,0.0,5.1275,5.5068,5.8098,6.0218,6.099,5.9474,5.8404,5.8404,5.6741,5.5549,5.5203,5.4395,5.3376,5.2164,4.9394,4.6249,0.0,0.0,0.0,0.0,0.0,0.0,0.0,0.0,0.0,0.0,0.0,0.0,0.0,0.0,0.0,0.0,0.0,0.0,0.0,0.0,0.0,0.0,0.0,0.0,0.0,0.0,0.0,0.0,3.6315,3.9123,3.9565,4.1147,4.1106,0.0,0.0,0.0,0.0,0.0,0.0,4.7542,4.9401,5.1469,5.3799,5.4819,5.6018,5.7483,5.8159,5.9107,6.0328,6.0328,6.0672,6.1303,6.1303,6.1326,6.1344,6.1344,6.0999,6.0133,5.6212,5.3355,5.1265,4.9594,4.8549,4.8144,4.9652,5.0599,5.1362,5.2906,5.3697,5.3582,5.0881,4.9117,4.7509,4.473,0.0,0.0,0.0,0.0,5.1856,5.339,5.5379,5.7186,5.804,5.8789,5.9345,5.956,5.9011,5.7178,0.0,5.1966,5.0524,4.5822,0.0,0.0,0.0,0.0,5.3783,5.6548,5.8939,6.0618,6.1231,5.9645,5.8556,5.8556,5.6872,5.5808,5.5759,5.519,5.4544,5.3876,5.2222,4.9644,4.6009,0.0,0.0,0.0,0.0,0.0,0.0,0.0,0.0,0.0,0.0,0.0,0.0,0.0,0.0,0.0,0.0,0.0,0.0,0.0,0.0,0.0,0.0,0.0,0.0,0.0,0.0,0.0,0.0,0.0,4.3797,4.5633,0.0,0.0,0.0,0.0,4.5526,4.795,5.0532,5.3156,5.4899,5.6602,5.8323,5.9218,6.0114,6.1036,6.1095,6.1153,6.1231,6.1231,6.127,6.1303,6.1303,6.1359,6.1498,6.1498,6.1534,6.1385,5.8492,5.6748,5.5702,5.4026,5.3349,5.3427,5.4279,5.4686,5.496,5.5872,5.5764,5.5449,5.6894,5.5616,5.3327,5.2312,5.1411,0.0,0.0,5.4066,5.6319,5.7341,5.8339,5.9257,6.0058,6.0293,6.0547,6.1386,6.0786,5.9577,0.0,5.6191,5.4683,5.3422,0.0,5.3338,5.3335,5.5643,5.7709,5.8646,6.0324,6.1385,6.1301,5.9727,5.8696,5.8696,5.7148,5.6084,5.5896,5.5841,5.5747,5.5579,5.3953,5.2222,5.0404,4.6278,0.0,0.0,0.0,0.0,0.0,0.0,0.0,0.0,0.0,0.0,0.0,0.0,0.0,0.0,0.0,0.0,0.0,0.0,0.0,0.0,0.0,0.0,0.0,0.0,0.0,0.0,0.0,0.0,4.7556,4.9423,0.0,4.8024,4.8954,5.0026,5.0883,5.2799,5.4791,5.6806,5.8106,5.9303,6.0465,6.089,6.1241,6.1551,6.1551,6.1551,6.1551,6.1551,6.1551,6.1551,6.1551,6.1582,6.1633,6.1633,6.1657,6.1621,6.0613,5.9685,5.8787,5.7677,5.7247,5.7267,5.7558,5.8036,5.8472,5.8276,5.8377,5.8515,5.8047,5.6874,5.5582,5.5269,5.5323,5.5552,5.5912,5.7437,5.906,5.9414,6.0156,6.0879,6.1172,6.123,6.1328,6.1621,6.1424,6.0992,6.0449,5.886,5.7163,5.5728,5.6001,5.6222,5.5574,5.7291,5.896,5.9759,6.0891,6.1609,6.1553,6.0422,5.9432,5.8886,5.7688,5.6486,5.5326,5.5262,5.4984,5.4365,5.3764,5.2665,5.0985,4.8909,4.5175,0.0,0.0,0.0,0.0,0.0,0.0,0.0,0.0,0.0,0.0,0.0,0.0,0.0,0.0,0.0,0.0,0.0,0.0,0.0,0.0,0.0,0.0,0.0,0.0,0.0,4.4708,4.8243,5.0025,5.2571,5.3627,5.2178,5.339,5.4627,5.5483,5.6842,5.8221,5.9638,6.0349,6.0971,6.1555,6.1657,6.1699,6.1699,6.1699,6.1699,6.1699,6.1699,6.1699,6.1699,6.1699,6.1699,6.1699,6.1699,6.1699,6.1699,6.1699,6.1367,6.0781,6.0254,6.0039,6.0039,6.0039,6.0371,6.0762,6.0234,6.039,6.0664,5.9531,5.8594,5.7871,5.7871,5.8281,5.873,5.873,5.9765,6.084,6.084,6.1269,6.1699,6.1699,6.1699,6.1699,6.1699,6.1699,6.1699,6.1699,6.0696,5.9394,5.7991,5.8552,5.8866,5.7898,5.906,6.0234,6.0762,6.1348,6.1699,6.1699,6.0832,5.9919,5.9078,5.7849,5.6512,5.5067,5.4416,5.3808,5.3194,5.2877,5.2066,5.0651,4.9231,4.6376,4.2048,0.0,0.0,0.0,0.0,0.0,0.0,0.0,0.0,0.0,0.0,0.0,0.0,0.0,0.0,0.0,0.0,0.0,0.0,0.0,0.0,0.0,0.0,0.0,4.3659,4.8006,5.13,5.1351,5.5155,5.6831,5.4385,5.65,5.8379,5.9219,6.0,6.0801,6.164,6.1699,6.1699,6.1699,6.1699,6.1699,6.1699,6.1699,6.1699,6.1699,6.1699,6.1699,6.1699,6.1699,6.1699,6.1699,6.1699,6.1699,6.1699,6.1699,6.1699,6.1699,6.1699,6.1699,6.1699,6.1699,6.1699,6.1699,6.1699,6.1699,6.1699,6.1699,6.1133,6.0449,6.0449,6.0449,6.0449,6.0449,6.1055,6.1699,6.1699,6.1699,6.1699,6.1699,6.1699,6.1699,6.1699,6.1699,6.1699,6.1699,6.1699,6.1426,6.0586,6.1133,6.1406,6.0566,6.1152,0.0,6.1699,6.1699,6.1699,6.1699,6.0937,6.0098,5.9277,5.7637,5.6187,5.5087,5.3401,5.2405,5.2271,5.1463,5.0621,4.981,4.7391,4.5687,4.478,0.0,0.0,0.0,0.0,0.0,0.0,0.0,0.0,0.0,0.0,0.0,0.0,0.0,0.0,0.0,0.0,0.0,0.0,0.0,0.0,0.0,4.6056,4.8664,4.9056,5.2476,5.5445,5.6804,5.8568,5.9625,5.9568,6.0214,6.0742,6.0996,6.1211,6.1445,6.1699,6.1699,6.1699,6.1699,6.1699,6.1699,6.1699,6.1699,6.1699,6.1699,6.1699,6.1699,6.1699,6.1699,6.1699,6.1699,6.1699,6.1699,6.1699,6.1699,6.1699,6.1699,6.1699,6.1699,6.1699,6.1699,6.1699,6.1699,6.1699,6.1699,6.1699,6.1699,6.1543,6.1348,6.1348,6.1348,6.1348,6.1348,6.1523,6.1699,6.1699,6.1699,6.1699,6.1699,6.1699,6.1699,6.1699,6.1699,6.1699,6.1699,6.1699,6.1621,6.1387,6.1543,6.1621,6.1387,6.1543,0.0,6.1699,6.1699,6.1699,6.1699,6.1484,6.0762,5.9316,5.8183,5.6347,5.3531,5.232,5.1691,5.1642,5.1428,5.1467,5.1878,4.9924,4.8179,0.0,0.0,0.0,0.0,0.0,0.0,0.0,0.0,0.0,0.0,0.0,0.0,0.0,0.0,0.0,0.0,0.0,0.0,0.0,0.0,0.0,0.0,5.0659,5.3312,5.4894,5.6533,5.8099,5.9531,6.0449,6.1133,6.164,6.1699,6.1699,6.1699,6.1699,6.1699,6.1699,6.1699,6.1699,6.1699,6.1699,6.1699,6.1699,6.1699,6.1699,6.1699,6.1699,6.1699,6.1699,6.1699,6.1699,6.1699,6.1635,6.161,6.1609,6.1551,6.152,0.0,0.0,0.0,0.0,0.0,6.1699,6.1699,6.1699,6.1699,6.1699,6.1699,6.1699,6.1699,6.1699,6.1699,6.1699,6.1699,6.1699,6.1699,6.1699,6.1699,6.1699,6.1699,6.1699,6.1699,6.1699,6.1699,6.1699,6.1699,6.1699,0.0,6.1699,6.1699,6.1699,6.1699,6.1699,6.1699,6.1699,6.1699,6.1699,6.1699,6.1699,6.1152,5.9824,5.8594,0.0,0.0,0.0,5.1777,5.1426,5.1406,0.0,0.0,0.0,0.0,0.0,0.0,0.0,0.0,5.0241,5.0887,0.0,0.0,0.0,0.0,0.0,0.0,0.0,0.0,0.0,0.0,0.0,0.0,0.0,0.0,0.0,0.0,5.519,5.7754,6.0195,5.9922,5.9746,6.0469,6.123,6.1699,6.1699,6.1699,6.1699,6.1699,6.1699,6.1699,6.1699,0.0,0.0,0.0,0.0,6.1972,6.1972,6.1992,6.1992,6.1972,6.1972,6.1913,6.1794,6.1794,6.1735,6.1656,6.154,6.1488,6.1462,6.1339,6.1303,6.1312,6.1553,6.1657,6.1657,6.1657,6.1657,6.1657,6.1657,0.0,0.0,6.1657,6.1678,6.1679,6.1658,6.1679,6.1699,6.1658,6.1678,6.1679,6.1658,6.1657,6.1657,6.1657,6.1657,6.1657,6.1657,6.1657,6.1657,6.1657,6.1657,6.1657,6.1657,6.1679,6.1699,6.1699,6.1699,6.1699,6.1699,6.1699,6.1699,6.1699,0.0,0.0,6.0469,5.8945,5.7637,5.666,5.4414,5.2793,5.2012,5.2187,5.2969,5.4414,5.4531,5.5683,5.789,5.8086,5.8574,5.9219,5.4292,5.4212,0.0,0.0,0.0,0.0,0.0,0.0,0.0,0.0,0.0,0.0,0.0,0.0,0.0,0.0,0.0,5.5031,5.7378,5.9336,6.1191,6.1308,6.1269,6.1426,6.1601,6.1699,6.1699,6.1699,6.1699,6.1699,6.1699,6.1699,6.1699,6.2267,6.2593,6.2593,6.3277,6.3647,6.3647,6.3745,6.3745,6.3647,0.0,0.0,6.2357,6.2357,6.1987,6.1388,6.1344,6.1348,6.1348,6.132,6.1303,6.1314,6.1369,6.1388,6.1388,6.1388,6.1388,6.1388,6.1388,6.1388,6.1388,6.1388,6.1451,6.1515,6.142,6.154,0.0,6.144,6.1455,6.1512,6.1415,6.1388,6.1388,6.1388,6.1388,6.1388,6.1388,6.1388,6.1388,6.1388,6.1388,6.1388,6.1388,6.1551,6.1699,6.1699,6.1699,6.1699,6.1699,6.1699,6.1699,6.1699,6.1699,6.1348,6.0469,5.9512,5.8281,5.6699,5.6133,5.5762,5.5605,5.6933,5.7519,5.7148,5.7832,5.8105,5.789,5.9258,6.0,6.0137,5.8416,5.8825,0.0,0.0,0.0,0.0,0.0,0.0,0.0,0.0,0.0,0.0,0.0,4.6535,4.9923,0.0,5.4935,5.7923,5.9198,6.0254,6.1523,6.1699,6.1699,6.1699,6.1699,6.1679,6.1608,6.1606,6.1577,6.1507,6.1504,6.1676,6.2086,6.2446,6.2844,6.3288,6.3716,6.3955,6.3955,6.4014,6.4014,6.3955,6.3955,6.3667,6.3139,6.2697,6.2269,6.1861,6.1368,6.1158,6.115,6.1079,6.1055,6.1055,6.1055,6.1147,6.1303,6.1303,6.1303,6.1303,6.1303,6.1303,6.1303,6.1303,6.1358,6.1398,6.1331,6.1383,6.1465,6.1348,6.1358,6.1373,6.1326,6.1303,6.1303,6.1303,6.1303,6.1303,6.1303,6.1303,6.1303,6.1303,6.1303,6.1303,6.1303,6.142,6.1504,6.1504,6.1551,6.1606,6.1606,6.1658,6.1699,6.1699,6.1699,6.1523,6.1094,6.0273,5.9258,5.7988,5.789,5.789,5.789,5.873,5.918,5.914,5.957,5.9805,5.9805,6.0644,6.1055,6.1055,6.1094,6.1543,0.0,0.0,0.0,0.0,0.0,0.0,0.0,4.1658,4.3114,4.718,4.9376,5.1667,5.5236,5.6695,5.8066,6.0293,6.0644,6.0898,6.1561,6.1658,6.1656,6.1632,6.1656,6.1609,6.1469,6.1458,6.1424,6.1314,6.1303,6.1653,6.2464,6.2646,6.3112,6.3961,6.4155,6.4259,6.4259,6.4293,6.4293,6.4259,6.4259,6.4141,6.393,6.3056,6.2578,6.2376,6.1402,6.0973,6.0954,6.0845,6.08,6.08,6.08,6.0964,6.1206,6.1206,6.1206,6.1206,6.1206,6.1206,6.1206,6.1206,6.1214,6.1234,6.122,6.1253,6.1291,6.1226,6.1214,6.1234,6.1213,6.1206,6.1206,6.1206,6.1206,6.1206,6.1206,6.1206,6.1206,6.1206,6.1206,6.1206,6.1206,6.1206,6.1214,6.1297,6.1383,6.1458,6.1458,6.1551,6.1612,6.1612,6.1612,6.1612,6.1612,6.0992,6.0349,5.9685,5.9668,5.9687,5.9687,5.9687,5.998,6.0644,6.0644,6.0996,6.1699,6.1699,6.1699,6.1719,6.2598,6.3086,3.6357,3.7066,3.8601,4.1743,4.2064,4.3426,0.0,5.0911,5.1002,5.4506,5.6101,5.7265,5.8515,5.9414,6.0312,6.1387,6.1543,6.154,6.1525,6.1515,6.1488,6.1349,6.1451,6.1465,6.1348,6.1312,6.1326,6.1309,6.1303,6.1653,6.2464,6.3119,6.3842,6.4656,6.544,6.5836,6.5836,6.6014,6.6014,6.5836,6.5836,6.5373,6.4474,6.3608,6.2818,6.2097,6.1216,6.0819,6.0819,6.0812,6.08,6.08,6.08,6.0827,6.0864,6.0864,6.0864,6.0864,6.0864,6.0864,6.0864,6.0864,6.0935,6.1016,6.0882,6.1053,6.1246,6.0943,6.0945,6.1008,6.089,6.0864,6.0864,6.0864,6.0864,6.0864,6.0864,6.0864,6.0864,6.0864,6.0864,6.0864,6.0864,6.0864,6.0954,6.1259,6.1301,6.1312,6.1312,6.1348,6.1334,6.1334,6.1334,6.1334,6.1334,6.1354,6.1339,6.1242,6.1341,6.1426,6.1426,6.1426,6.1465,6.1543,6.1543,6.1601,6.1699,6.1699,6.1699,6.1719,6.2598,6.3418,4.1027,4.248,4.418,4.6627,4.8164,5.0041,5.376,5.4478,5.5073,5.7532,5.8748,5.9629,6.0488,6.0937,6.1249,6.1546,6.1582,6.1542,6.1392,6.1373,6.1153,6.0498,6.0896,6.1182,6.1123,6.1135,6.1081,6.1001,6.1011,6.1572,6.2897,6.3261,6.4045,6.5396,6.5781,6.5986,6.5986,6.6067,6.6067,6.5986,6.5986,6.5762,6.532,6.4455,6.3339,6.2062,6.1166,6.08,6.08,6.08,6.08,6.08,6.08,6.08,6.08,6.08,6.08,6.08,6.08,6.08,6.08,6.08,6.0834,6.0871,6.0827,6.0901,6.0974,6.0842,6.0834,6.086,6.0816,6.08,6.08,6.08,6.08,6.08,6.08,6.08,6.08,6.08,6.08,6.08,6.08,6.08,6.0853,6.0983,6.1076,6.1135,6.1135,6.1227,6.1303,6.1303,6.1303,6.1303,6.1303,6.1344,6.1373,6.1373,6.144,6.1462,6.1462,6.1462,6.1462,6.1462,6.1462,6.1462,6.1462,6.1462,6.1716,6.218,6.3061,6.3939,4.4267,4.6264,4.8283,5.0253,5.2749,5.5019,5.6113,5.7031,5.8066,5.957,6.0351,6.0957,6.1582,6.1678,6.161,6.1512,6.1465,6.1387,6.124,6.1026,6.0684,6.0141,6.0384,6.0684,6.0916,6.0935,6.0895,6.0804,6.08,6.1531,6.3224,6.3288,6.4109,6.584,6.5897,6.5897,6.5897,6.5897,6.5897,6.5897,6.5897,6.5897,6.5859,6.4993,6.3685,6.2062,6.1416,6.1012,6.08,6.08,6.08,6.08,6.08,6.08,6.08,6.08,6.08,6.08,6.08,6.08,6.08,6.08,6.08,6.08,6.08,6.08,6.08,6.08,6.08,6.08,6.08,6.08,6.08,6.08,6.08,6.08,6.08,6.08,6.08,6.08,6.08,6.08,6.08,6.08,6.08,6.08,6.0873,6.0935,6.0935,6.1068,6.1162,6.1162,6.1162,6.1162,6.1162,6.1206,6.122,6.122,6.1259,6.1303,6.1303,6.1303,6.1303,6.1303,6.1303,6.1303,6.1303,6.1517,6.1925,6.2522,6.3637,6.4493,4.4959,4.6875,4.9453,5.1992,5.459,5.6973,5.8691,5.9707,6.0547,6.1445,6.164,6.168,6.1699,6.1585,6.1507,6.1504,6.1383,6.124,6.104,6.0336,6.0074,6.0704,6.0042,5.9869,6.0716,6.0812,6.0793,6.08,6.08,6.1531,6.3224,6.3288,6.4109,6.584,6.5897,6.5897,6.5897,6.5897,6.5897,6.5897,6.5897,6.5897,6.5859,6.4993,6.3685,6.2101,6.2082,6.1581,6.08,6.08,6.08,6.08,6.08,6.08,6.08,6.08,6.08,6.08,6.08,6.08,6.08,6.08,6.08,6.08,6.08,6.08,6.08,6.08,6.08,6.08,6.08,6.08,6.08,6.08,6.08,6.08,6.08,6.08,6.08,6.08,6.08,6.08,6.08,6.08,6.08,6.08,6.0793,6.0812,6.0812,6.0804,6.0816,6.0816,6.0816,6.0816,6.0816,6.0935,6.1014,6.1014,6.1193,6.1303,6.1303,6.1303,6.1303,6.1303,6.1303,6.1303,6.1303,6.2081,6.2483,6.2542,6.4254,6.5077,4.7812,5.0332,5.287,5.5331,5.7471,5.9278,6.0359,6.0793,6.0914,6.0625,6.0106,5.954,5.9017,5.8874,5.8993,5.9432,5.9954,6.0439,6.0806,6.0629,6.0316,5.9985,6.0185,6.0242,5.9973,6.0454,6.08,6.08,6.08,6.1531,6.3224,6.3288,6.4109,6.584,6.5897,6.5897,6.5897,6.5897,6.5897,6.5897,6.5897,6.5897,6.5859,6.4993,6.4282,6.3705,6.257,6.1928,6.162,6.1031,6.08,6.08,6.08,6.08,6.08,6.08,6.08,6.08,6.08,6.08,6.08,6.08,6.08,6.08,6.08,6.08,6.08,6.08,6.08,6.08,6.08,6.08,6.08,6.08,6.08,6.08,6.08,6.08,6.08,6.08,6.08,6.08,6.08,6.08,6.08,6.08,6.08,6.08,6.08,6.08,6.08,6.08,6.08,6.08,6.08,6.0845,6.088,6.088,6.0924,6.0974,6.0974,6.0974,6.0974,6.0974,6.0974,6.1244,6.1824,6.2094,6.2799,6.391,6.45,6.508,5.0578,5.3053,5.5345,5.7833,5.9537,6.0729,6.119,6.1056,6.0517,5.9341,5.8412,5.7463,5.6344,5.6089,5.6473,5.7823,5.8458,5.9273,6.0604,6.0531,6.0242,5.9992,6.0185,6.0242,5.9992,6.0473,6.08,6.08,6.08,6.1531,6.3224,6.3288,6.4109,6.584,6.5897,6.5897,6.5897,6.5897,6.5897,6.5897,6.5897,6.5897,6.5878,6.532,6.4897,6.4532,6.3128,6.2358,6.2043,6.1146,6.08,6.08,6.08,6.08,6.08,6.08,6.08,6.08,6.08,6.08,6.08,6.08,6.08,6.08,6.08,6.08,6.08,6.08,6.08,6.08,6.08,6.08,6.08,6.08,6.08,6.08,6.08,6.08,6.08,6.08,6.08,6.08,6.08,6.08,6.08,6.08,6.08,6.08,6.08,6.08,6.08,6.08,6.08,6.08,6.08,6.08,6.08,6.08,6.08,6.08,6.08,6.08,6.08,6.08,6.1108,6.1543,6.2101,6.2697,6.3551,6.4609,6.4916,6.5359,5.3054,5.4986,5.6891,5.9412,6.0649,6.1213,6.1207,6.0474,5.9299,5.7637,5.6513,5.5337,5.3657,5.3294,5.4088,5.6582,5.7043,5.7945,6.0454,6.0089,5.9877,6.0704,6.0069,5.9896,6.0723,6.08,6.0819,6.0858,0.0,6.157,6.3224,6.3327,6.4147,6.584,6.5897,6.5897,6.5897,6.5897,6.5897,6.5897,6.5897,6.5897,6.5897,6.5897,6.5455,6.4628,6.3705,6.2878,6.2101,6.1166,6.08,6.08,6.08,6.08,6.08,6.08,6.08,6.08,6.08,6.08,6.08,6.08,6.08,6.08,6.08,6.08,6.08,6.08,6.08,6.08,6.08,6.08,6.08,6.08,6.08,6.08,6.08,6.08,6.08,6.08,6.08,6.08,6.08,6.08,6.08,6.08,6.08,6.08,6.08,6.08,6.08,6.08,6.08,6.08,6.08,6.08,6.08,6.08,6.08,6.08,6.08,6.08,6.08,6.08,6.162,6.2062,6.2101,6.3743,6.457,6.4628,6.5493,6.5897,5.4775,5.72,5.9296,6.0453,6.046,6.0137,5.9988,5.8308,5.6309,5.4638,5.261,5.061,4.8937,5.0135,5.201,5.3909,5.6333,5.8627,6.0531,6.0608,6.055,6.0762,6.0589,6.055,6.0781,6.08,6.1069,0.0,6.1774,6.2224,6.325,6.3916,6.4762,6.5859,6.5897,6.5897,6.5897,6.5897,6.5897,6.5897,6.5897,6.5897,6.5897,6.5897,6.5782,6.5474,6.3955,6.3185,6.2878,6.1416,6.08,6.08,6.08,6.08,6.08,6.08,6.08,6.08,6.08,6.08,6.08,6.08,6.08,6.08,6.08,6.08,6.08,6.08,6.08,6.08,6.08,6.08,6.08,6.08,6.08,6.08,6.08,6.08,6.08,6.08,6.08,6.08,6.08,6.08,6.08,6.08,6.08,6.08,6.08,6.08,6.08,6.08,6.08,6.08,6.08,6.08,6.08,6.08,6.08,6.08,6.08,6.08,6.08,6.08,6.1012,6.1447,6.2101,6.3128,6.3974,6.4628,6.5493,6.5897,5.6924,5.895,6.0435,6.0809,6.0297,5.9349,5.8113,5.6165,5.3703,5.051,4.8721,4.699,4.4547,4.649,4.9154,5.1202,5.4395,5.7473,5.9896,6.055,6.08,6.08,6.08,6.08,6.08,6.0936,6.1216,6.1695,6.1977,6.2608,6.382,6.4339,6.4993,6.5859,6.5897,6.5897,6.5897,6.5897,6.5897,6.5897,6.5897,6.5897,6.5897,6.5897,6.5686,6.5243,0.0,6.3108,6.2666,6.1339,6.08,6.08,6.08,6.08,6.08,6.08,6.08,6.08,6.08,6.08,6.08,6.08,6.08,6.08,6.08,6.08,6.08,6.08,6.08,6.08,6.08,6.08,6.08,6.08,6.08,6.08,6.08,6.08,6.08,6.08,6.08,6.08,6.08,6.08,6.08,6.08,6.08,6.08,6.08,6.08,6.08,6.08,6.08,6.08,6.08,6.08,6.08,6.08,6.08,6.08,6.08,6.08,6.0973,6.1358,6.1358,6.1781,6.2627,6.3455,6.4128,6.4628,6.5493,6.5897,5.8875,6.0146,6.0762,6.0666,5.98,5.8357,5.5915,5.3722,5.0875,4.6229,4.4998,4.3863,4.09,4.3132,4.6306,4.8971,5.226,5.5665,5.9031,6.0092,6.0599,6.0781,6.069,6.0673,6.0844,6.1058,6.1298,6.1526,6.1959,6.2874,6.4314,6.4577,6.4981,6.569,6.5709,6.5722,6.5795,6.5795,6.584,6.5897,6.5897,6.5897,6.5897,6.5782,6.532,6.4551,6.357,6.2743,6.2043,6.1146,6.08,6.08,6.08,6.08,6.08,6.08,6.08,6.08,6.08,6.08,6.08,6.08,6.08,6.08,6.08,6.08,6.08,6.08,6.08,6.08,6.08,6.08,6.08,6.08,6.08,6.08,6.08,6.08,6.08,6.08,6.08,6.08,6.08,6.08,6.08,6.08,6.08,6.08,6.08,6.08,6.08,6.08,6.08,6.08,6.08,6.08,6.08,6.08,6.08,6.08,6.08,6.08,6.1204,6.2082,6.2101,6.2493,6.3288,6.4166,6.4609,6.4628,6.5493,6.5897,5.9003,6.0146,6.0627,5.9915,5.803,5.5876,5.4049,5.0144,4.6259,4.3989,4.1854,4.0208,3.9631,4.2258,4.5605,4.8875,5.226,5.5665,5.9031,5.93,5.9567,6.0681,6.0118,6.0058,6.1105,6.0898,0.0,0.0,6.287,6.3055,6.3339,6.441,6.4899,6.4662,6.4662,6.4854,6.5226,6.5226,6.5446,6.5897,6.5897,6.5897,6.5878,6.5147,6.4743,6.4512,6.2974,0.0,6.2043,6.1146,6.08,6.08,6.08,6.08,6.08,6.08,6.08,6.08,6.08,6.08,6.08,6.08,6.08,6.08,6.08,6.08,6.08,6.08,6.08,6.08,6.08,6.08,6.08,6.08,6.08,6.08,6.08,6.08,6.08,6.08,6.08,6.08,6.08,6.08,6.08,6.08,6.08,6.08,6.08,6.08,6.08,6.08,6.08,6.08,6.08,6.08,6.08,6.08,6.08,6.08,6.08,6.08,6.1204,6.2082,6.2101,6.2493,6.3288,6.4166,6.4609,6.4628,6.5493,6.5897,5.9031,6.0146,6.0589,5.9723,5.7588,5.478,5.1337,4.7625,4.3932,4.0489,3.9161,3.8354,3.7488,4.0431,4.362,4.5496,4.922,5.302,5.6433,5.7243,5.8144,5.9879,5.9677,5.9815,6.0852,6.0885,6.1369,6.2587,6.3094,6.3477,6.3766,6.44,6.4626,6.4407,6.4407,6.4518,6.4731,6.475,6.4852,6.5121,6.5121,6.4873,6.4432,6.3997,6.3364,6.2525,6.1724,6.1114,6.066,6.0241,6.0069,6.0069,6.0069,6.0069,6.0069,6.0069,6.0236,6.0437,6.0437,6.061,6.08,6.08,6.08,6.08,6.08,6.08,6.08,6.08,6.08,6.08,6.08,6.08,6.08,6.08,6.08,6.08,6.08,6.08,6.08,6.08,6.08,6.08,6.08,6.08,6.08,6.08,6.08,6.08,6.08,6.08,6.08,6.08,6.08,6.08,6.08,6.08,6.08,6.08,6.08,6.08,6.08,6.1243,6.1858,6.2704,6.2724,6.3147,6.3974,6.4397,6.4609,6.4628,6.5493,6.5897,5.8992,5.9877,6.0108,5.9415,5.7049,5.3645,4.8913,4.5586,4.22,3.7635,3.7103,3.7103,3.5962,3.8615,4.1387,4.2591,4.5992,4.9893,5.3925,5.5231,5.6664,5.9103,5.9212,5.9534,6.0604,6.0847,0.0,6.235,6.3037,6.3659,6.4197,6.4118,6.4058,6.4058,6.4058,6.4118,6.4236,6.4236,6.4294,6.4407,6.4219,6.3766,6.3086,6.2746,6.1897,6.0689,6.05,6.0029,5.9389,5.9389,5.9389,5.9389,5.9389,5.9389,5.9389,5.9389,5.9644,5.9946,5.9946,6.0189,6.0495,6.0495,6.0634,6.08,6.08,6.08,6.0788,6.0678,6.0714,6.0788,6.0678,6.0647,6.0622,6.0508,6.0578,6.0647,6.0647,6.0647,6.0678,6.0769,6.08,6.08,6.08,6.08,6.08,6.08,6.08,6.08,6.08,6.08,6.08,6.08,6.08,6.08,6.08,6.08,6.08,6.08,6.0973,6.0993,6.08,6.18,6.2647,6.3288,6.3481,6.4012,6.4878,6.4878,6.4878,6.4897,6.557,6.5897,5.8838,5.9031,5.8511,5.8434,5.5288,5.1327,4.7808,4.3816,4.0054,3.7276,3.6173,3.5904,3.6481,3.7546,3.9525,4.3096,4.4698,4.7608,5.3634,5.4225,5.5375,5.8977,5.8652,5.8914,6.0874,6.0691,6.1097,6.2641,6.2824,6.3115,6.3637,6.3215,6.2959,6.2959,6.2959,6.3191,6.3677,6.3659,6.3915,6.4389,6.3596,6.3162,6.3049,6.1595,6.084,6.0651,5.9859,5.9465,0.0,5.9389,5.9389,5.9389,5.9389,5.9389,5.9389,5.9389,5.9443,5.9458,5.9458,5.9475,5.9545,5.9545,6.0118,6.08,6.08,6.08,6.0702,6.0278,6.0482,6.0702,6.0264,6.0161,6.0055,5.9628,5.9855,6.0161,6.0161,6.0161,6.0278,6.0734,6.08,6.08,6.08,6.08,6.08,6.08,6.08,6.08,6.08,6.08,6.08,6.08,6.08,6.08,6.08,6.08,6.08,6.08,6.1543,6.1639,6.0819,6.2339,6.3224,6.3288,6.4089,6.4916,6.5782,6.5782,6.5782,6.5782,6.5859,6.5897,5.6369,5.7565,5.7985,5.6702,5.4119,5.075,4.6336,4.2712,3.9406,3.6364,3.5476,3.5361,3.5675,3.6422,3.7905,4.0753,4.1984,4.4322,4.9344,5.0521,5.2232,5.5931,5.6504,5.7629,6.0416,0.0,6.108,6.2695,6.278,6.2886,6.3115,6.291,6.278,6.278,6.278,6.291,6.3115,6.3115,6.2979,6.2714,6.2361,6.1692,6.0744,6.0091,5.9536,5.9053,5.8698,5.8568,0.0,5.8568,5.8568,5.8568,5.8568,5.8568,5.8568,5.8568,5.8735,5.8971,5.8971,5.9158,5.9389,5.9389,5.9661,5.9965,5.9965,5.9965,5.9916,5.9725,5.9804,5.9916,5.9725,5.9677,5.9644,5.9441,5.9526,5.9677,5.9677,5.9677,5.9725,5.9916,5.9965,6.004,6.0324,6.0384,6.0482,6.0757,6.08,6.08,6.08,6.08,6.08,6.08,6.08,6.08,6.08,6.08,6.08,6.08,6.1127,6.1146,6.08,6.1935,6.282,6.3288,6.4166,6.5032,6.5897,6.5897,6.5897,6.5897,6.5897,6.5897,5.3849,5.539,5.6072,5.4596,5.2507,4.9573,4.4748,4.1733,3.9022,3.5665,3.4981,3.4981,3.4981,3.5446,3.6538,3.8681,3.9789,4.1941,4.647,4.8052,5.0047,5.3634,5.4748,5.6418,5.941,6.0548,6.1594,6.2707,6.278,6.278,6.278,6.278,6.278,6.278,6.278,6.2695,6.2456,6.2456,6.2034,6.1245,6.1006,6.0309,5.9184,5.8946,5.8547,5.7997,5.7997,5.7997,0.0,5.7997,5.7997,5.7997,5.7997,5.7997,5.7997,5.7997,5.8213,5.8484,5.8484,5.8715,5.899,5.899,5.899,5.899,5.899,5.9195,5.9372,5.923,5.9176,5.9176,5.9176,5.9303,5.9319,5.9047,5.9103,5.9176,5.9176,5.9176,5.923,5.9372,5.9389,5.9492,5.9839,5.9885,6.001,6.0338,6.0397,6.0437,6.0565,6.0578,6.0647,6.0788,6.0678,6.0647,6.08,6.08,6.08,6.08,6.1031,6.1015,6.061,6.1791,6.2599,6.2872,6.3863,6.4726,6.547,6.547,6.547,6.5451,6.5603,6.5749,5.1719,5.2341,5.2069,5.2118,5.0232,4.7257,4.3064,4.0823,3.8667,3.5373,3.4694,3.4694,3.4694,3.4713,3.5418,3.7565,3.8598,4.0985,4.636,4.781,4.9536,5.2818,5.3922,5.5354,5.7776,6.0915,6.2762,6.278,6.278,0.0,6.278,6.278,6.278,6.278,6.278,6.242,6.1612,6.1612,6.1208,6.0401,5.9606,5.9221,5.9166,5.8382,5.7997,5.7997,5.7997,5.7997,0.0,5.7997,5.7997,5.7997,5.7997,5.7997,5.7997,5.7997,5.7997,5.802,5.802,5.802,5.802,5.802,5.802,5.802,5.802,5.8654,5.9302,5.8835,5.8715,5.8715,5.8715,5.9047,5.9176,5.8257,5.8372,5.8715,5.8715,5.8715,5.8835,5.9302,5.9389,5.9389,5.9425,5.9407,5.9407,5.9407,5.9407,5.9576,6.004,6.0118,6.0297,6.0757,6.0378,6.0311,6.0757,6.08,6.08,6.08,6.162,6.1492,6.017,6.2145,6.2858,6.1934,6.3177,6.4013,6.4426,6.4426,6.4426,6.4426,6.4902,6.5384,4.588,4.7055,4.7562,4.6158,4.5418,4.4077,4.0461,3.9041,3.7716,3.4929,3.4357,3.4357,3.4357,3.4357,3.5675,3.9714,4.0426,4.2016,4.6471,4.8764,5.06,5.2197,5.5519,5.7973,0.0,0.0,6.1979,6.1979,6.2493,6.2567,6.2016,6.1979,6.2236,6.2762,6.2273,6.1851,6.1594,6.1043,6.0382,5.957,5.9313,5.8891,5.8364,5.8125,5.7997,5.7997,5.7997,5.7997,5.7997,5.7997,5.7997,5.7997,5.7997,5.7997,5.7997,5.7997,5.7997,5.7997,5.7997,5.7997,5.7997,5.7997,5.7997,5.7997,5.7997,5.8213,5.8418,5.826,5.8235,5.8235,5.8235,5.8329,5.8372,5.807,5.8119,5.8235,5.8235,5.8235,5.826,5.8418,5.8421,5.8547,5.8874,5.8932,5.9028,5.9337,5.9389,5.9441,5.9611,5.9628,5.9677,5.9839,5.9709,5.9804,6.0278,6.0025,5.9836,5.9836,6.0102,6.0058,5.9628,6.0804,6.1591,6.1898,6.2854,6.3686,6.4407,6.4407,6.4407,6.4407,6.4536,6.5001,4.118,4.2938,4.3765,4.2173,4.1969,4.1362,3.834,3.751,3.6727,3.45,3.4056,3.4056,3.4056,3.4056,3.5247,3.8942,3.9912,4.159,4.5627,4.8324,5.0618,5.2656,5.6106,0.0,0.0,6.0199,6.1153,6.1153,6.1612,6.1686,6.1172,6.1153,6.1374,6.1887,6.141,6.1006,6.0694,6.0199,5.9557,5.8767,5.8767,5.8492,5.7997,5.7997,5.7997,5.7997,5.7997,5.7997,0.0,5.7997,5.7997,5.7997,5.7997,5.7997,5.7997,5.7997,5.7997,5.7997,5.7997,5.7997,5.7997,5.7997,5.7997,5.7997,5.7997,5.7997,5.7997,5.7997,5.7997,5.7997,5.7997,5.7997,5.7997,5.7997,5.7997,5.7997,5.7997,5.7997,5.7997,5.7997,5.7997,5.8074,5.8394,5.8439,5.8547,5.8815,5.8874,5.8951,5.9121,5.914,5.9194,5.9372,5.923,5.9248,5.9561,5.9477,5.9389,5.9389,5.9389,5.9452,5.959,6.0245,6.098,6.1771,6.2458,6.3133,6.379,6.379,6.3894,6.4116,6.4417,6.493,0.0,3.9464,4.0288,3.9496,3.9331,3.8781,3.6468,3.5991,0.0,3.3954,3.366,3.3752,3.3862,3.3899,3.4523,3.6486,3.8065,4.0451,4.4488,4.7186,5.0215,5.4179,5.5978,0.0,5.7923,5.941,6.0309,6.0309,6.0382,6.0382,6.0327,6.0309,6.0291,6.0236,6.0236,5.9905,5.9203,5.9129,5.8749,5.7997,5.7997,5.7997,5.7997,5.7997,5.7997,0.0,5.7997,5.7997,5.7997,5.7997,5.7997,5.7997,5.7997,5.7997,5.7997,5.7997,5.7997,5.7997,5.7997,5.7997,5.7997,5.7997,5.7997,5.7997,5.7997,5.7997,5.7997,5.7997,5.7997,5.7997,5.7997,5.7997,5.7997,5.7997,5.7997,5.7997,5.7997,5.7997,5.7997,5.7997,5.7997,5.7997,5.7997,5.7997,5.7997,5.7997,5.7997,5.8164,5.8591,5.8652,5.8815,5.9248,5.8913,5.8652,5.8652,5.9047,5.9302,5.9302,5.9302,5.9441,5.975,6.0284,6.0891,6.149,6.2063,6.2489,6.278,6.278,6.3062,6.3543,6.4361,6.5039,3.1088,0.0,3.4399,3.3587,3.3862,3.4009,0.0,3.3036,3.3183,3.2155,3.2449,3.3261,3.4491,3.4729,3.627,4.1038,4.2121,4.3791,4.7884,5.1059,5.4014,5.6822,5.7483,5.7795,5.7978,5.8914,5.9478,5.9478,6.0052,6.0144,5.9496,5.9478,5.9208,5.8584,5.8565,5.8767,5.9184,5.8602,5.8198,5.7997,5.7997,5.7997,5.7997,5.7997,5.7997,5.7997,5.7997,5.7997,5.7997,5.7997,5.7997,5.7997,5.7997,5.7997,5.7997,5.7997,5.7997,5.7997,5.7997,5.7997,5.7997,5.7997,5.7997,5.7997,5.7997,5.7997,5.7997,5.7997,5.7997,5.7997,5.7997,5.7997,5.7997,5.7997,5.7997,5.7997,5.7997,5.7997,5.7997,5.7997,5.7997,5.7997,5.7997,5.7997,5.7997,5.7997,5.7997,5.8024,5.8164,5.8146,5.8213,5.8307,5.8216,5.8146,5.8146,5.826,5.8329,5.8329,5.8329,5.8356,5.8422,5.9737,6.0517,6.0676,6.2015,6.2708,6.278,6.278,6.2861,6.3008,6.3855,6.4672,2.8345,3.1023,3.3592,3.3151,3.3371,3.3592,3.3146,3.254,3.2027,3.1971,3.2302,3.3096,3.4711,3.5334,3.6982,4.1167,4.278,4.5296,5.0508,5.3702,5.6124,5.7795,5.7997,5.7997,0.0,5.84,5.8657,5.8657,5.9061,5.9116,5.8676,5.8657,5.8455,5.8015,5.7997,5.8217,5.8657,5.8217,5.7997,5.7997,5.7997,5.7997,5.7997,5.7997,5.7997,5.7997,5.7997,5.7997,5.7997,5.7997,5.7997,5.7997,5.7997,5.7997,5.7997,5.7997,5.7997,5.7997,5.7997,5.7997,5.7997,5.7997,5.7997,5.7997,5.7997,5.7997,5.7997,5.7997,5.7997,5.7997,5.7997,5.7997,5.7997,5.7997,5.7997,5.7997,5.7997,5.7997,5.7997,5.7997,5.7997,5.7997,5.7997,5.7997,5.7997,5.7997,5.7997,5.7997,5.7997,5.7997,5.7997,5.7997,5.7997,5.7997,5.7997,5.7997,5.7997,5.7997,5.7997,5.8162,5.8547,5.974,6.075,6.1502,6.2365,6.278,6.278,6.278,6.278,6.2817,6.3686,6.453,2.7842,3.15,3.488,3.4399,3.4546,3.4784,3.4656,3.3041,3.1806,3.2632,3.2876,3.35,3.5243,3.6376,3.7863,4.0396,4.3074,4.6838,5.2747,5.5445,5.7097,5.7905,5.7997,0.0,5.7997,5.7997,5.7997,5.7997,5.7997,5.7997,5.7997,5.7997,5.7997,5.7997,5.7997,5.7997,5.7997,5.7997,5.7997,5.7997,5.7997,5.7997,5.7997,5.7997,5.7997,5.7997,0.0,0.0,5.7997,5.7997,5.7997,5.7997,5.7997,5.7997,5.7997,5.7997,5.7997,5.7997,5.7997,5.7997,5.7997,5.7997,5.7997,5.7997,5.7997,5.7997,5.7997,5.7997,5.7997,5.7997,5.7997,5.7997,5.7997,5.7997,5.7997,5.7997,5.7997,5.7997,5.7997,5.7997,5.7997,5.7997,5.7997,5.7997,5.7997,5.7997,5.7997,5.7997,5.7997,5.7997,5.7997,5.7997,5.7997,5.7997,5.7997,5.7997,5.7997,5.7997,5.7997,5.8364,5.9166,5.9979,6.1098,6.2603,6.275,6.278,6.278,6.278,6.278,6.2817,6.3815,6.4659,2.9053,3.2362,3.4344,3.161,3.2467,3.3807,3.3115,3.2674,3.2651,3.3458,3.416,3.5353,3.7701,3.9352,4.1387,4.447,4.8177,5.1756,5.4785,0.0,5.7097,5.7905,0.0,5.7997,5.7997,5.7997,5.7997,5.7997,5.7997,5.7997,5.7997,5.7997,5.7997,5.7997,5.7997,5.7997,5.7997,5.7997,5.7997,5.7997,5.7997,5.7997,5.7997,5.7997,5.7997,5.7997,0.0,5.7997,5.7997,5.7997,5.7997,5.7997,5.7997,5.7997,5.7997,5.7997,5.7997,5.7997,5.7997,5.7997,5.7997,5.7997,5.7997,5.7997,5.7997,5.7997,5.7997,5.7997,5.7997,5.7997,5.7997,5.7997,5.7997,5.7997,5.7997,5.7997,5.7997,5.7997,5.7997,5.7997,5.7997,5.7997,5.7997,5.7997,5.7997,5.7997,5.7997,5.7997,5.7997,5.7997,5.7997,5.7997,5.7997,5.7997,5.7997,5.7997,5.7997,5.7997,5.7997,5.8364,5.9166,5.9979,6.0841,6.1759,6.2456,6.278,6.278,6.278,6.278,6.286,6.4402,6.5191,2.7622,3.0595,3.2908,3.2302,3.4633,3.7,3.6633,3.555,3.4835,3.5624,3.6083,3.6964,3.8982,4.102,4.3759,4.7886,5.1584,5.4345,5.5483,5.6689,5.7593,0.0,0.0,5.7997,5.7997,5.7637,5.7401,5.7401,5.7004,5.6763,5.6763,5.6763,5.6953,5.7401,5.7401,5.7589,5.7997,5.7997,5.7997,5.7997,5.7997,5.7997,5.7997,5.7997,5.7997,5.7997,0.0,5.7997,5.7997,5.7997,5.7997,5.7997,5.7997,5.7997,5.7997,5.7997,5.7997,5.7997,5.7997,5.7997,5.7997,5.7997,5.7997,5.7997,5.7997,5.7997,5.7997,5.7997,5.7997,5.7997,5.7997,5.7997,5.7997,5.7997,5.7997,5.7997,5.7997,5.7997,5.7997,5.7997,5.7997,5.7997,5.7997,5.7997,5.7997,5.7997,5.7997,5.7997,5.7997,5.7997,5.7997,5.7997,5.7997,5.7997,5.7997,5.7997,5.7997,5.7997,5.7997,5.8364,5.9166,5.9979,6.0786,6.1575,6.2401,6.278,6.278,6.278,6.278,6.2817,6.4071,6.4879,2.6851,2.9384,3.1929,3.4119,3.6872,3.9239,4.001,3.8597,3.7533,3.8906,3.92,3.9622,4.1038,4.3277,4.6394,5.0909,5.3872,5.5702,5.5941,5.7,5.766,5.748,5.7637,5.766,5.748,5.7116,5.6817,5.6642,5.6049,5.5706,5.5706,5.5706,5.5976,5.6616,5.6616,5.6876,5.7456,5.7456,5.7642,5.7997,5.7997,5.7997,5.7997,5.7839,5.775,5.7726,5.7546,5.757,5.775,5.775,5.7821,5.7997,5.7997,5.7997,5.7997,5.7997,5.7997,5.7997,5.7997,5.7997,5.7997,5.7997,5.7997,5.7997,5.7997,5.7997,5.7997,5.7997,5.7997,5.7997,5.7997,5.7997,5.7997,5.7997,5.7997,5.7997,5.7997,5.7997,5.7997,5.7997,5.7997,5.7997,5.7997,5.7997,5.7997,5.7997,5.7997,5.7997,5.7997,5.7997,5.7997,5.7997,5.7997,5.7997,5.7997,5.7997,5.7997,5.7997,5.7997,5.829,5.8896,5.9887,6.0694,6.13,6.2291,6.278,6.278,6.278,6.278,6.2817,6.3686,6.453,2.8906,3.065,3.2351,3.6262,3.6905,3.7331,4.0325,4.0304,4.0487,4.3552,4.4177,4.4452,4.5314,4.7499,5.0251,5.3601,5.4965,5.5885,5.67,0.0,5.6695,5.5931,5.6518,5.6695,5.5948,5.6492,5.6589,5.5819,5.5734,5.5706,5.5706,5.5706,5.5752,5.5762,5.5808,5.5791,5.5865,5.5865,5.6588,5.7997,5.7997,5.7997,5.7973,5.7284,5.6989,5.6938,5.6186,5.6295,5.6989,5.6989,5.7376,5.7997,5.7997,5.7997,5.7997,5.7997,5.7997,5.7997,5.7997,5.7997,5.7997,5.7997,5.7997,5.7997,5.7997,5.7997,5.7997,5.7997,5.7997,5.7997,5.7997,5.7997,5.7997,5.7997,5.7997,5.7997,5.7997,5.7997,5.7997,5.7997,5.7997,5.7997,5.7997,5.7997,5.7997,5.7997,5.7997,5.7997,5.7997,5.7997,5.7997,5.7997,5.7997,5.7997,5.7997,5.7997,5.7997,5.7997,5.7997,5.8033,5.807,5.9575,6.0438,6.0493,6.2016,6.278,6.278,6.278,6.278,6.2817,6.3686,6.453,2.7291,2.9405,3.1837,3.5772,3.6737,3.7628,4.1071,4.2763,4.4121,4.5828,4.6581,4.7205,4.8031,4.8999,5.0397,5.2628,5.4094,5.5096,5.5411,5.5854,5.6049,5.5752,5.5976,5.6031,5.5734,5.5552,5.5338,5.5042,5.4575,5.4328,5.4328,5.4328,5.4544,5.5012,5.5012,5.5232,5.5706,5.5706,5.5986,5.6562,5.6562,5.6562,5.6562,5.6295,5.6159,5.6132,5.5836,5.5865,5.6159,5.6159,5.6624,5.7376,5.7839,5.7997,5.7997,5.7997,5.7997,5.7997,5.7997,5.7997,5.7997,5.7997,5.7997,5.7997,5.7997,5.7997,5.7997,5.7997,5.7997,5.7997,5.7997,5.7997,5.7997,5.7997,5.7997,5.7997,5.7997,5.7997,5.7997,5.7997,5.7997,5.7997,5.7997,5.7997,5.7997,5.7997,5.7997,5.7997,5.7997,5.7997,5.7997,5.7997,5.7997,5.7997,5.7997,5.7997,5.7997,5.7997,5.7997,5.7997,5.7997,5.9557,6.0401,6.0401,6.1998,6.278,6.278,6.278,6.278,6.2817,6.3686,6.4255,2.6631,2.8842,3.1589,3.4938,3.6594,3.8294,4.1703,4.3938,4.5794,4.7554,4.82,4.8704,4.9492,4.9693,5.0276,0.0,5.3492,5.4585,5.4591,5.5042,5.5262,5.5012,5.5203,5.5262,5.5029,5.4757,5.4513,5.4264,5.3783,5.3501,5.3501,5.3501,5.3717,5.4249,5.4232,5.4499,5.4999,5.4999,5.4999,5.4999,5.4999,5.525,5.5678,5.5466,5.535,5.535,5.5102,5.5131,5.535,5.535,5.5808,5.6571,5.7098,5.7272,5.7272,5.7272,5.7431,5.7613,5.7364,5.7594,5.7973,5.7726,5.7797,5.7997,5.7997,5.7997,5.7997,5.7997,5.7997,5.7997,5.7997,5.7997,5.7997,5.7997,5.7997,5.7997,5.7997,5.7997,5.7997,5.7997,5.7997,5.7997,5.7997,5.7997,5.7997,5.7997,5.7997,5.7997,5.7997,5.7997,5.7997,5.7997,5.7997,5.7997,5.7997,5.7997,5.7997,5.7997,5.7997,5.7997,5.7997,5.93,6.0144,6.0401,6.1741,6.2567,6.278,6.278,6.278,6.2798,6.3411,6.3833,2.7653,2.9457,3.1768,3.404,3.6492,3.9111,4.2141,4.3469,4.5106,4.892,4.9222,4.8981,4.959,4.9792,5.0389,5.1927,5.3482,5.4499,5.4578,5.4589,5.4328,5.3584,5.4154,5.4296,5.3551,5.4154,5.4296,5.3551,5.3501,5.3501,5.3501,5.3501,5.3501,5.3501,5.3501,5.3501,5.3501,5.3501,5.3501,5.3501,5.3501,5.4249,5.5649,5.4922,5.4589,5.4544,5.3799,5.3913,5.4589,5.4589,5.5042,5.5678,5.5706,5.5706,5.5706,5.5706,5.6186,5.6765,5.5976,5.6711,5.7862,5.7134,5.7376,5.7973,5.7973,5.7973,5.7997,5.7997,5.7997,5.7997,5.7997,5.7997,5.7997,5.7997,5.7997,5.7997,5.7997,5.7997,5.7997,5.7997,5.7997,5.7997,5.7997,5.7997,5.7997,5.7997,5.7997,5.7997,5.7997,5.7997,5.7997,5.7997,5.7997,5.7997,5.7997,5.7997,5.7997,5.7997,5.7997,5.7997,5.7997,5.8786,5.957,6.0382,6.119,6.1998,6.278,6.278,6.278,6.278,6.278,6.3264,2.7213,2.9241,3.2333,3.5554,3.7982,4.0571,4.4454,4.5947,4.7316,5.009,5.0097,4.9624,4.9799,4.9917,5.0276,5.1268,5.2296,5.3151,5.3746,5.3832,5.375,5.3534,5.3701,5.375,5.3534,5.3701,5.375,5.3534,5.3501,5.3501,5.3501,5.3501,5.3501,5.3501,5.3501,5.3501,5.3501,5.3501,5.3501,5.3501,5.3501,5.3734,5.4139,5.3913,5.3832,5.3799,5.3584,5.3601,5.3865,5.4374,5.4726,5.4982,5.5495,5.5706,5.5706,5.5706,5.5865,5.6004,5.5762,5.6004,5.6349,5.6132,5.6196,5.6385,5.6385,5.6781,5.7234,5.7234,5.7589,5.7997,5.7997,5.7997,5.7997,5.7997,5.7997,5.7997,5.7997,5.7997,5.7997,5.7997,5.7997,5.7997,5.7997,5.7997,5.7997,5.7997,5.7997,5.7997,5.7997,5.7997,5.7997,5.7997,5.7997,5.7997,5.7997,5.7997,5.7997,5.7997,5.7997,5.7997,5.7997,5.8786,5.957,6.0382,6.119,6.1998,6.278,6.278,6.278,6.278,6.278,6.2952,2.9184,3.1055,3.3705,3.7369,3.9202,4.1231,4.5572,4.7352,4.8574,5.0311,4.9841,4.9286,4.9836,4.9756,0.0,5.0973,5.1794,5.2587,5.3399,5.3501,5.3501,5.3501,5.3501,5.3501,5.3501,5.3501,5.3501,5.3501,5.3501,5.3501,5.3501,5.3501,5.3501,5.3501,5.3501,5.3501,5.3501,5.3501,5.3501,5.3501,5.3501,5.3501,5.3501,5.3501,5.3501,5.3501,5.3501,5.3501,5.3534,5.3962,5.4154,5.4218,5.4668,5.4835,5.4835,5.4835,5.5029,5.5203,5.4939,5.522,5.5649,5.535,5.5448,5.5706,5.5706,5.6049,5.6421,5.6421,5.6729,5.7173,5.7474,5.7565,5.7655,5.7932,5.7997,5.7997,5.7997,5.7997,5.7997,5.7997,5.7997,5.7997,5.7997,5.7997,5.7997,5.7997,5.7997,5.7997,5.7997,5.7997,5.7997,5.7997,5.7997,5.7997,5.7997,5.7997,5.7997,5.7997,5.7997,5.7997,5.7997,5.8474,5.9116,5.9924,6.0713,6.152,6.2328,6.2633,6.278,6.278,6.278,6.278,3.217,3.3677,3.5318,3.9148,4.0367,4.1687,4.5754,4.7752,4.8946,4.9735,4.889,4.8401,4.9671,4.9471,4.9543,5.0896,5.1725,5.2469,5.3196,5.3298,5.3331,5.3382,5.3399,5.3416,5.3501,5.3501,5.3501,5.3501,5.3501,5.3501,5.3501,5.3501,5.3501,5.3501,5.3501,5.3501,5.3501,5.3501,5.3501,5.3501,5.3501,5.3501,5.3501,5.3501,5.3501,5.3501,5.3501,5.3501,5.3501,5.3501,5.3501,5.3501,5.3501,5.3501,5.3501,5.3501,5.3913,5.4405,5.3717,5.4391,5.5379,5.4713,5.4952,5.5495,5.5495,5.5552,5.5592,5.5592,5.5649,5.5865,5.6616,5.6791,5.6946,5.7637,5.7909,5.7997,5.7997,5.7997,5.7997,5.7997,5.7997,5.7997,5.7997,5.7997,5.7997,5.7997,5.7997,5.7997,5.7997,5.7997,5.7997,5.7997,5.7997,5.7997,5.7997,5.7997,5.7997,5.7997,5.7997,5.7997,5.7997,5.7997,5.8382,5.9166,5.9924,6.0731,6.1594,6.2346,6.275,6.278,6.278,6.278,2.985,3.1749,3.4675,3.9029,4.2303,4.4756,4.572,4.7056,4.8328,4.9059,4.8972,4.8877,4.9148,4.9565,4.9965,5.0287,5.0963,5.1505,5.1658,5.1708,5.1928,5.2486,5.2553,5.2807,5.345,5.3501,5.3501,5.3501,5.3501,5.3501,5.3501,5.3501,5.3501,5.3501,5.3501,5.3501,5.3501,5.3501,5.3501,5.3501,5.3501,5.3501,5.3501,5.3501,5.3501,5.3501,5.3501,5.3501,5.3501,5.3501,5.3501,5.3501,5.3501,5.3501,5.3501,5.3501,5.3618,5.3717,5.3568,5.3701,5.3946,5.3783,5.3832,5.3979,5.3979,5.4391,5.4848,5.4848,5.5262,5.5734,5.592,5.5948,5.6004,5.6169,5.7105,5.7997,5.7997,5.7997,5.7997,5.7997,5.7997,5.7997,5.7997,5.7997,5.7997,5.7997,5.7997,5.7997,5.7997,5.7997,5.7997,5.7997,5.7997,5.7997,5.7997,5.7997,5.7997,5.7997,5.7997,5.7997,5.7997,5.7997,5.8382,5.9166,5.9368,6.0162,6.1594,6.1759,6.2181,6.278,6.278,6.278,3.0491,3.2493,3.5081,3.996,4.3436,4.5703,4.5703,4.6583,4.7479,4.7868,4.8511,4.9001,4.9001,4.9306,4.9678,5.0033,5.0422,5.0811,5.1134,5.1185,5.132,5.1742,5.1775,5.1944,5.2367,5.2418,5.2418,5.2418,5.2418,5.2418,5.2418,5.2739,5.2926,5.2926,5.3298,5.3501,5.3501,5.3501,5.3501,5.3501,5.3501,5.3501,5.3501,5.3501,5.3501,5.3501,5.3501,5.3501,5.3501,5.3501,5.3501,5.3501,5.3501,5.3501,5.3501,5.3501,5.3501,5.3501,5.3501,5.3501,5.3501,5.3501,5.3501,5.3501,5.3501,5.3783,5.4074,5.4074,5.4359,5.4713,5.5072,5.5173,5.5262,5.5621,5.6304,5.6909,5.6909,5.6909,5.6909,5.6909,5.6909,5.6909,5.6909,5.7216,5.7589,5.795,5.7997,5.7997,5.7997,5.7997,5.7997,5.7997,5.7997,5.7997,5.7997,5.7997,5.7997,5.7997,5.7997,5.7997,5.7997,5.7997,5.8198,5.8621,5.8982,5.9606,6.0456,6.085,6.1236,6.1654,6.1652,6.186,3.1004,3.3541,3.6028,4.073,4.3623,4.5314,4.5314,4.5974,4.6599,4.6599,4.7784,4.8815,4.8815,4.8917,4.9204,4.9796,4.9898,5.0118,5.0744,5.0813,5.0879,5.0997,5.1014,5.1065,5.12,5.1185,5.1185,5.1185,5.1185,5.1185,5.1185,5.1792,5.2114,5.2114,5.2756,5.3112,5.3112,5.3112,5.3112,5.3112,5.323,5.3365,5.3501,5.3501,5.3501,5.3501,5.3501,5.3501,5.3501,5.3501,5.3501,5.3501,5.3501,5.3501,5.3501,5.3501,5.3501,5.3501,5.3501,5.3501,5.3501,5.3501,5.3501,5.3501,5.3501,5.3501,5.3501,5.3501,5.3501,5.3634,5.4232,5.4405,5.4575,5.5191,5.532,5.5379,5.5667,5.5706,5.5706,5.5706,5.5706,5.5706,5.5706,5.6259,5.6894,5.7504,5.7594,5.7594,5.7594,5.7594,5.7594,5.7594,5.7726,5.7797,5.7797,5.7797,5.7797,5.7797,5.7684,5.7594,5.7594,5.7594,5.7594,5.7594,5.8384,5.8877,5.9023,5.9544,5.995,6.021,6.0202,6.0636,2.7046,3.1955,3.7134,3.9749,4.2057,4.3696,4.3696,4.4823,4.5855,4.5855,4.7022,4.8041,4.8041,4.8578,4.9035,4.9137,4.9154,4.9187,4.9289,4.9289,4.9526,5.0168,5.0236,5.049,5.115,5.1185,5.1185,5.1185,5.1185,5.1185,5.1185,5.1269,5.1369,5.1369,5.1471,5.1522,5.1522,5.1522,5.1522,5.1489,5.2164,5.2841,5.3501,5.3501,5.3501,5.3501,5.3501,5.3501,5.3501,5.3501,5.3501,5.3501,5.3501,5.3501,5.3501,5.3501,5.3501,5.3501,5.3501,5.3501,5.3501,5.3501,5.3501,5.3501,5.3501,5.3501,5.3501,5.3501,5.3501,5.3534,5.3601,5.3651,5.3668,5.3783,5.3783,5.4139,5.5437,5.5706,5.5706,5.5706,5.5706,5.5706,5.5706,5.5808,5.5875,5.5986,5.6004,5.6004,5.6004,5.6004,5.6004,5.6004,5.6624,5.7058,5.7058,5.7058,5.7058,5.7058,5.6376,5.6004,5.6004,5.6004,5.6004,5.6004,5.6803,5.7546,5.8241,5.7654,5.8088,5.9455,5.9443,5.985,2.8756,3.2916,3.6874,3.9969,4.1762,4.2895,4.3291,4.3916,4.4553,4.4976,4.5923,4.6802,4.7208,4.7547,4.7902,4.8325,4.8392,4.8545,4.8951,4.9001,4.912,4.9441,4.9475,4.961,4.9949,4.9982,4.9982,4.9982,4.9982,4.9982,4.9982,5.0371,5.0591,5.0591,5.0997,5.1185,5.1185,5.1185,5.1185,5.1185,5.1539,5.1877,5.2215,5.2215,5.2689,5.3501,5.3501,5.3501,5.3501,5.3501,5.3501,5.3501,5.3501,5.3501,5.3501,5.3501,5.3501,5.3501,5.3501,5.3501,5.3501,5.3501,5.3501,5.3501,5.3501,5.3501,5.3501,5.3501,5.3501,5.3501,5.3501,5.3501,5.3501,5.3501,5.3501,5.3668,5.4345,5.4468,5.4468,5.4468,5.4468,5.4606,5.5012,5.5084,5.5232,5.5621,5.5706,5.5706,5.5706,5.5706,5.5706,5.5706,5.6022,5.6214,5.6214,5.6214,5.6214,5.6214,5.5893,5.5706,5.5706,5.5706,5.5706,5.5706,5.6049,5.642,5.6759,5.6417,5.6589,5.7289,5.7285,5.7699,2.9247,3.2222,3.4827,3.8565,4.0493,4.1694,4.2642,4.2997,4.3301,4.3876,4.4604,4.528,4.5838,4.6397,4.6972,4.7547,4.7631,4.7817,4.8359,4.8443,4.8443,4.8443,4.8612,4.8731,4.8731,4.89,4.9001,4.9001,4.9001,4.9001,4.9001,4.9509,4.9813,4.9813,5.0355,5.0659,5.0659,5.0659,5.0744,5.093,5.093,5.1031,5.1185,5.1185,5.1843,5.2942,5.3112,5.3315,5.3501,5.3501,5.3501,5.3501,5.3501,5.3501,5.3501,5.3501,5.3501,5.3501,5.3501,5.3501,5.3501,5.3501,5.3501,5.3501,5.3501,5.3501,5.3501,5.3501,5.3501,5.3501,5.3501,5.3501,5.3501,5.3501,5.3501,5.3501,5.3501,5.3501,5.3501,5.3501,5.3501,5.3668,5.4249,5.4328,5.4513,5.5059,5.5131,5.5131,5.5131,5.5131,5.5131,5.5131,5.532,5.5437,5.5437,5.5437,5.5437,5.5437,5.5232,5.5131,5.5131,5.5131,5.5131,5.5131,5.5131,5.5232,5.5437,5.5223,5.5243,5.54,5.5434,5.5843,2.5288,2.7604,3.0228,3.3914,3.7026,3.9546,4.0984,4.1863,4.2354,4.2405,4.3014,4.3511,4.3561,4.5348,4.6802,4.6836,4.6853,4.6853,4.6904,4.6904,4.6904,4.6904,4.753,4.7939,4.7939,4.8595,4.9001,4.9001,4.9001,4.9001,4.9001,4.9035,4.9069,4.9069,4.9086,4.912,4.912,4.912,4.9475,5.0152,5.0152,5.0524,5.1185,5.1185,5.1251,5.1369,5.2063,5.2807,5.3501,5.3501,5.3501,5.3501,5.3501,5.3501,5.3501,5.3501,5.3501,5.3501,5.3501,5.3501,5.3501,5.3501,5.3501,5.3501,5.3501,5.3501,5.3501,5.3501,5.3501,5.3501,5.3501,5.3501,5.3501,5.3501,5.3501,5.3501,5.3501,5.3501,5.3501,5.3501,5.3501,5.3501,5.3551,5.3568,5.3551,5.3618,5.3618,5.3618,5.3618,5.3618,5.3618,5.3618,5.4232,5.4651,5.4651,5.4651,5.4651,5.4651,5.3994,5.3618,5.3618,5.3618,5.3618,5.3618,5.3618,5.3979,5.4651,5.3965,5.3974,5.4652,5.4668,5.5058,2.5575,2.6894,2.8417,3.2158,3.4962,3.7229,3.8751,4.0375,4.1728,4.2202,4.2506,4.2692,4.2692,4.4164,4.5534,4.6024,4.6092,4.6261,4.6718,4.6786,4.6786,4.6786,4.7022,4.7192,4.7192,4.7428,4.7784,4.8274,4.8308,4.8511,4.8984,4.9001,4.9001,4.9001,4.9001,4.9001,4.9001,4.9001,4.9137,4.939,4.939,4.9526,4.9796,4.9796,5.005,5.0507,5.076,5.1319,5.2029,5.2029,5.2029,5.2029,5.2029,5.2317,5.2739,5.2739,5.3061,5.3501,5.3501,5.3501,5.3501,5.3501,5.3501,5.3501,5.3501,5.3501,5.3501,5.3501,5.3501,5.3501,5.3501,5.3501,5.3501,5.3501,5.3501,5.3501,5.3501,5.3501,5.3501,5.3501,5.3501,5.3501,5.3501,5.3501,5.3501,5.3501,5.3501,5.3501,5.3501,5.3501,5.3501,5.3501,5.375,5.3881,5.3881,5.3881,5.3881,5.3881,5.3651,5.3501,5.3501,5.3501,5.3501,5.3501,5.3501,5.3634,5.3881,5.3651,5.3636,5.389,5.389,5.4042,2.4695,2.5575,2.686,3.0615,3.2679,3.4467,3.728,3.8853,4.0003,4.0984,4.1576,4.1931,4.1931,4.2963,4.4062,4.4823,4.4942,4.5196,4.594,4.6041,4.6041,4.6041,4.6278,4.643,4.643,4.665,4.7005,4.7496,4.7547,0.0,4.824,4.8257,4.8376,4.8629,4.8883,4.9001,4.9001,4.9001,4.9001,4.9001,4.9001,4.9001,4.9001,4.9001,4.9272,4.9729,4.9729,5.0287,5.1185,5.1185,5.1185,5.1185,5.1185,5.1505,5.1944,5.1944,5.2283,5.2739,5.2739,5.2892,5.3112,5.3112,5.3281,5.3501,5.3501,5.3501,5.3501,5.3501,5.3501,5.3501,5.3501,5.3501,5.3501,5.3501,5.3501,5.3501,5.3501,5.3501,5.3501,5.3501,5.3501,5.3501,5.3501,5.3501,5.3501,5.3501,5.3501,5.3501,5.3501,5.3501,5.3501,5.3501,5.3501,5.3501,5.3501,5.3501,5.3501,5.3501,5.3501,5.3501,5.3501,5.3501,5.3501,5.3501,5.3501,5.3501,5.3501,5.3501,5.3501,5.3501,5.3501,5.3501,0.0,0.0,0.0,2.8991,2.9956,3.1343,3.6468,3.7127,3.71,3.8616,4.007,4.1085,4.117,4.1745,4.2472,4.3206,4.3341,4.3656,4.4429,4.453,4.4547,4.4564,4.5196,4.5652,4.5669,4.6312,4.6735,4.6752,4.6752,4.6769,4.6786,4.6786,4.7124,4.7821,4.8595,4.8968,4.8968,4.8984,4.9001,4.9001,4.9001,4.9001,4.9001,4.9001,4.9001,4.9001,4.9001,4.9813,5.115,5.115,5.115,5.115,5.115,5.1134,5.1183,5.1183,5.1168,5.1185,5.1185,5.1674,5.2266,5.2266,5.2807,5.3467,5.3467,5.3484,5.3501,5.3501,5.3501,5.3501,5.3501,5.3501,5.3501,5.3501,5.3501,5.3501,5.3501,5.3501,5.3501,5.3501,5.3501,5.3501,5.3501,5.3501,5.3501,5.3501,5.3501,5.3501,5.3501,5.3501,5.3501,5.3501,5.3501,5.3501,5.3501,5.3501,5.3501,5.3501,5.3501,5.3501,5.3501,5.3501,5.3501,5.3501,5.3501,5.3501,5.3501,5.3501,5.3501,5.3501,5.3501,5.3501,2.2431,0.0,0.0,0.0,0.0,0.0,0.0,0.0,3.429,3.688,3.7743,3.8522,4.0113,4.057,4.0959,4.1694,4.2252,4.2675,4.2895,4.2956,4.3132,4.3673,4.3927,4.4265,4.484,4.5106,4.5415,0.0,4.6007,4.6244,4.6752,4.6786,4.6887,4.7107,4.7834,4.8193,4.8193,4.8731,4.9001,4.9001,4.9001,4.9001,4.9001,4.9001,4.9001,4.9001,4.9001,4.9238,4.961,4.961,4.961,4.961,4.961,4.9932,5.0388,5.0388,5.0744,5.1185,5.1185,5.1352,5.1522,5.1522,5.2029,5.2638,5.2638,5.3044,5.3501,5.3501,5.3501,5.3501,5.3501,5.3501,5.3501,5.3501,5.3501,5.3501,5.3501,5.3501,5.3501,5.3501,5.3501,5.3501,5.3501,5.3501,5.3501,5.3501,5.3501,5.3501,5.3501,5.3501,5.3501,5.3501,5.3501,5.3501,5.3501,5.3501,5.3501,5.3501,5.3501,5.3501,5.3501,5.3501,5.3501,5.3501,5.3501,5.3501,5.3501,5.3501,5.3501,5.3501,5.3501,5.3501,2.3427,2.3765,2.4475,2.5084,0.0,0.0,2.9738,3.0905,3.2222,0.0,3.6355,3.7202,3.8488,3.9233,3.9766,4.0206,4.0899,4.1602,4.2202,4.2286,4.2455,4.2895,4.2946,4.325,4.4012,4.4096,4.4418,4.5179,4.5229,4.5415,4.5855,4.616,4.6346,4.6346,4.7056,4.7445,4.7445,4.8173,4.8545,4.8545,4.8849,4.9001,4.9001,4.9001,4.9001,4.9001,4.9001,4.9001,4.9001,4.9001,4.9001,4.9001,4.9001,4.9255,4.9644,4.9644,4.9915,5.0287,5.0287,5.049,5.0744,5.0744,5.1251,5.1843,5.1843,5.2181,5.2553,5.2553,5.2773,5.3078,5.3416,5.3501,5.3501,5.3501,5.3501,5.3501,5.3501,5.3501,5.3501,5.3501,5.3501,5.3501,5.3501,5.3501,5.3501,5.3501,5.3501,5.3501,5.3501,5.3501,5.3501,5.3501,5.3501,5.3501,5.3501,5.3501,5.3501,5.3501,5.3501,5.3501,5.3501,5.3501,5.3501,5.3501,5.3501,5.3501,5.3501,5.3501,5.3501,5.3501,5.3501,5.3501,2.51,2.5406,0.0,2.7384,2.6877,0.0,3.0618,3.0666,3.0734,0.0,3.5052,3.6135,3.6389,3.755,3.8497,3.8497,3.9242,4.0383,4.1856,4.2049,4.211,4.2168,4.2168,4.2472,4.3189,4.3274,4.3572,4.4293,4.4429,4.4479,4.4479,4.5162,4.5585,4.5585,4.6295,4.6667,4.6667,4.7411,4.78,4.777,4.8443,4.8765,4.8765,4.8849,4.8883,4.8883,4.8968,4.9001,4.9001,4.9001,4.9001,4.9001,4.9001,4.9001,4.9001,4.8892,4.8829,4.8829,4.8719,4.9108,4.9678,4.9678,5.0232,5.092,5.092,5.1036,5.1185,5.1185,5.1742,5.2469,5.3179,5.3433,5.3501,5.3501,5.3501,5.3501,5.3501,5.3501,5.3501,5.3501,5.3501,5.3501,5.3501,5.3501,5.3501,5.3501,5.3501,5.3501,5.3501,5.3501,5.3501,5.3501,5.3501,5.3501,5.3501,5.3501,5.3501,5.3501,5.3501,5.3501,5.3501,5.3501,5.3501,5.3501,5.3501,5.3501,5.3501,5.3501,5.3501,5.3501,5.3501,5.3501,2.7536,2.7723,2.8113,2.7148,0.0,0.0,2.6505,2.7673,2.9382,0.0,3.0768,3.1952,3.3744,3.4776,3.5368,3.5368,3.7043,3.8836,4.0333,4.0536,4.0756,4.1339,4.1407,4.1694,4.2439,4.2506,4.2574,4.2726,4.3301,4.3639,4.3639,4.4367,4.479,4.479,4.5534,4.5923,4.5923,4.665,4.7005,4.7022,4.7158,4.7225,4.7242,4.7851,4.8091,4.8142,4.8748,4.9001,4.9001,4.9001,4.9001,4.9001,4.9001,4.9001,4.8909,4.8144,4.7868,4.777,4.702,4.6828,4.6941,4.6941,4.796,4.9193,4.9193,5.0125,5.1185,5.1185,5.1742,5.2334,5.2486,5.301,5.3501,5.3501,5.3501,5.3501,5.3501,5.3501,5.3501,5.3501,5.3501,5.3501,5.3501,5.3501,5.3501,5.3501,5.3501,5.3501,5.3501,5.3501,5.3501,5.3501,5.3501,5.3501,5.3501,5.3501,5.3501,5.3501,5.3501,5.3501,5.3501,5.3501,5.3501,5.3501,5.3501,5.3501,5.3501,5.3501,5.3501,5.3501,5.3501,5.3501,2.8907,2.9228,2.9924,2.9127,0.0,0.0,0.0,2.84,2.8822,3.0347,3.0076,3.0226,3.2442,3.3136,3.3508,3.388,3.5859,3.7466,3.7804,3.9165,4.0248,4.0595,4.0646,4.0933,4.1677,4.1745,4.1897,4.2252,4.2642,4.3014,4.3375,4.3792,4.4181,4.4598,4.4942,4.5145,4.5145,4.5872,4.6244,4.6261,4.6616,4.6786,4.6802,4.7175,4.7361,4.7394,4.8139,4.846,4.8446,4.8331,4.8289,4.8289,4.8289,4.8015,4.7556,4.7104,4.6918,4.685,4.6349,4.6208,4.6208,4.6208,4.6765,4.7454,4.7454,4.838,4.9573,5.0413,5.0913,5.1285,5.1674,5.2334,5.2909,5.2909,5.3213,5.3501,5.3501,5.3501,5.3501,5.3501,5.3501,5.3501,5.3501,5.3501,5.3501,5.3501,5.3501,5.3501,5.3501,5.3501,5.3501,5.3501,5.3501,5.3501,5.3501,5.3501,5.3501,5.3501,5.3501,5.3501,5.3501,5.3501,5.3501,5.3501,5.3501,5.3501,5.3501,5.3501,5.3501,5.3501,5.3501,5.3501,0.0,0.0,0.0,0.0,0.0,3.1393,0.0,0.0,0.0,3.1038,3.0144,0.0,0.0,0.0,0.0,0.0,0.0,0.0,0.0,3.7212,0.0,3.9233,3.9503,3.9901,4.051,4.0443,4.0781,4.1796,4.161,4.1897,4.2902,4.324,4.3707,4.4361,4.453,4.4615,4.4615,4.5179,4.55,4.55,4.6075,4.6363,4.6363,4.6515,4.6507,4.6376,4.7134,4.7345,4.7163,4.716,4.7026,4.6908,4.7224,4.6884,4.6173,4.6012,4.5941,4.5905,4.5726,4.5638,4.5638,4.5638,4.5782,4.5961,4.6138,4.6747,4.7605,4.8958,4.9582,4.998,5.0553,5.1408,5.2131,5.2266,5.2807,5.3315,5.3467,5.3501,5.3501,5.3501,5.3501,5.3501,5.3501,5.3501,5.3501,5.3501,5.3501,5.3501,5.3501,5.3501,5.3501,5.3501,5.3501,5.3501,5.3501,5.3501,5.3501,5.3501,5.3501,5.3501,5.3501,5.3501,5.3501,5.3501,5.3501,5.3501,5.3501,5.3501,5.3501,5.3501,5.3501,5.3501,0.0,0.0,0.0,0.0,3.4607,0.0,0.0,0.0,3.1142,2.8787,0.0,0.0,0.0,0.0,0.0,0.0,0.0,0.0,3.1799,3.3677,3.5385,3.6022,3.733,3.8193,3.8278,3.7669,3.8149,4.0197,3.914,3.9292,4.1339,4.2682,4.3426,4.3511,4.4215,4.4615,4.4615,4.4682,4.4733,4.4733,4.4818,4.4852,4.4886,4.5534,4.5391,4.471,4.5469,4.5339,4.4655,4.5246,4.4967,4.4371,4.5792,4.6279,4.6103,4.5264,4.4946,4.4834,4.395,4.3615,4.3615,4.3615,4.4243,4.5116,4.5941,4.6279,4.64,4.6585,4.7709,4.8878,4.896,5.0142,5.1505,5.2147,5.2367,5.2638,5.3348,5.3501,5.3501,5.3501,5.3501,5.3501,5.3501,5.3501,5.3501,5.3501,5.3501,5.3501,5.3501,5.3501,5.3501,5.3501,5.3501,5.3501,5.3501,5.3501,5.3501,5.3501,5.3501,5.3501,5.3501,5.3501,5.3501,5.3501,5.3501,5.3501,5.3501,5.3501,5.3501,5.3501,5.3501,5.3501,0.0,0.0,0.0,0.0,0.0,0.0,3.0993,0.0,3.0398,0.0,0.0,0.0,0.0,0.0,0.0,0.0,3.0125,0.0,0.0,0.0,3.2544,0.0,0.0,0.0,3.6479,3.6051,3.6558,3.8659,3.7564,3.7909,4.0434,4.1533,4.2513,4.3358,4.3741,4.413,4.4615,4.4615,4.4615,4.4615,4.4615,4.4615,4.4587,4.4398,4.4115,4.3784,4.4021,4.3897,4.3584,4.3725,4.3568,4.3268,4.3803,4.4201,4.4479,4.4051,4.3927,4.3888,4.3448,4.329,4.329,4.329,4.3591,4.4105,4.5101,4.5395,4.5488,4.6048,4.6714,4.7373,4.7916,4.8912,4.9958,5.0833,5.1352,5.1758,5.2097,5.2503,5.2807,5.2807,5.3179,5.3298,5.2679,5.3076,5.3501,5.3501,5.3501,5.328,5.2627,5.311,5.3264,5.2627,5.3144,5.3501,5.3501,5.2939,5.2557,5.2557,5.2026,5.1938,5.2557,5.2557,5.287,5.3501,5.3501,5.3501,5.3501,5.3501,5.3179,5.2592,5.323,5.3501,3.5304,0.0,0.0,0.0,0.0,0.0,0.0,0.0,0.0,0.0,0.0,0.0,0.0,0.0,0.0,0.0,0.0,2.948,0.0,2.8467,0.0,0.0,0.0,0.0,0.0,3.4147,3.4705,3.7408,3.5981,3.6386,3.964,4.051,4.1465,4.275,4.3189,4.369,4.4265,4.4237,4.4355,4.4615,4.4355,4.4355,4.457,4.3931,4.3396,4.2941,4.2848,4.2537,4.21,4.2142,4.215,4.2155,4.2146,4.2387,4.2836,4.3155,4.329,4.329,4.329,4.329,4.329,4.329,4.329,4.3448,4.4182,4.4412,4.4548,4.5217,4.5618,4.5977,4.6659,4.7427,4.826,4.9111,4.9742,5.0209,5.0393,5.1078,5.1547,5.1295,5.2067,5.2448,5.1392,5.2231,5.2956,5.2696,5.2644,5.2364,5.1578,5.217,5.2329,5.1578,5.217,5.2644,5.2644,5.1938,5.1504,5.1504,5.0817,5.0741,5.1467,5.1504,5.1865,5.2661,5.2644,5.2644,5.2644,5.2644,5.2258,5.1504,5.2557,5.2921,0.0,0.0,0.0,3.433,0.0,0.0,0.0,0.0,3.1819,0.0,0.0,0.0,0.0,0.0,0.0,0.0,0.0,0.0,0.0,0.0,0.0,0.0,0.0,0.0,0.0,3.1526,3.2084,0.0,3.4083,3.4353,3.8802,3.9724,4.0468,4.1255,4.2675,4.3409,4.3426,4.3373,4.3785,4.4598,4.3739,4.3785,4.4615,4.457,4.3634,4.2029,4.2062,4.1093,3.9571,4.0231,4.0464,4.0524,4.1197,4.1429,4.1594,4.2865,4.329,4.329,4.329,4.329,4.329,4.329,4.329,4.329,4.3329,4.3329,4.3369,4.3354,4.4105,4.4849,4.4871,4.5577,4.6452,4.7212,4.7405,4.7598,4.8345,4.9241,4.9624,4.8703,4.9792,5.0585,4.9641,5.0831,5.1614,5.0627,5.049,5.049,5.0435,5.049,5.049,5.0435,5.049,5.049,5.049,5.0474,5.0451,5.0451,5.0397,5.0397,5.0451,5.0451,5.0435,5.049,5.049,5.049,5.049,5.049,5.0474,5.0474,5.1467,5.1431,0.0,0.0,3.6358,3.5153,0.0,0.0,0.0,0.0,0.0,0.0,0.0,0.0,0.0,0.0,0.0,0.0,0.0,0.0,0.0,0.0,0.0,0.0,0.0,0.0,0.0,0.0,0.0,3.3609,3.2995,0.0,3.8067,3.8971,3.9935,4.117,4.1694,4.2395,4.3375,4.2845,4.2947,4.3726,4.2878,4.2909,4.368,4.2536,4.2013,4.1965,4.1412,4.0481,3.946,4.0269,4.0269,3.9813,4.0472,4.0726,4.0891,4.2207,4.2686,4.2746,4.314,4.329,4.329,4.329,4.329,4.329,4.329,4.329,4.329,4.329,4.3551,4.3966,4.4624,4.5058,4.5478,4.6386,4.6577,4.6641,4.6901,4.7584,4.8065,4.7726,4.8522,4.888,4.7921,4.8202,4.9006,5.0231,5.0397,5.0126,4.9416,4.997,5.0126,4.9416,4.997,5.0397,5.0397,4.9734,4.9069,4.8392,4.835,4.8651,4.9296,4.9336,4.9694,5.0413,5.0397,5.0397,5.0397,5.0397,5.0048,4.9336,4.9679,5.0032,3.6132,3.6076,0.0,3.4987,3.3524,0.0,3.0995,0.0,0.0,0.0,0.0,0.0,0.0,0.0,0.0,0.0,0.0,0.0,0.0,2.4085,0.0,0.0,0.0,0.0,0.0,0.0,2.9078,3.1715,3.1787,0.0,0.0,3.792,3.8925,3.9615,4.0394,4.1282,4.2221,4.1939,4.2166,4.2881,4.2297,4.2284,4.2816,4.1658,4.1313,4.1511,4.0946,4.022,3.9445,4.0025,3.99,3.9454,3.9888,4.0053,4.0217,4.1572,4.2201,4.25,4.3105,4.329,4.329,4.329,4.329,4.329,4.329,4.329,4.329,4.329,4.329,4.3448,4.4105,4.4259,4.4434,4.5011,4.518,4.518,4.518,4.5835,4.6313,4.5927,4.6723,4.712,4.6142,4.6159,4.6843,4.8372,4.8576,4.8431,4.7993,4.8525,4.878,4.8304,4.8897,4.9287,4.9287,4.8651,4.7988,4.7337,4.7309,4.7609,4.8252,4.8252,4.8569,4.9271,4.9287,4.9287,4.9287,4.9287,4.8922,4.8252,4.8252,4.8651]}]]